Wetterdaten: Dienstag, 04.07.2017
Datum Zeit Temp. A. Pool Temp. Feuchte A. Luftdruck Regen Wind Richtung Richtung Sonnenschein ET UV Solar Taupunkt Windchill Windben Empfang
04.07.2017 00:00 15,1 C 21,7 C 79 % 1019,6 hPa 0,0 l/m 4,9 km/h (1 Bft) S-SW 194 0 min 0,000 mm 0,0 UV-I 0 W/m 11,5 C 15,1 C 8,0 km/h (2 Bft) 100,00 %
04.07.2017 00:02 15,1 C 21,7 C 79 % 1019,7 hPa 0,0 l/m 3,3 km/h (1 Bft) S-SW 198 0 min 0,000 mm 0,0 UV-I 0 W/m 11,5 C 15,1 C 6,4 km/h (2 Bft) 100,00 %
04.07.2017 00:04 15,1 C 21,7 C 79 % 1019,7 hPa 0,0 l/m 4,3 km/h (1 Bft) S-SW 198 0 min 0,000 mm 0,0 UV-I 0 W/m 11,5 C 15,1 C 4,8 km/h (1 Bft) 98,00 %
04.07.2017 00:06 15,0 C 21,7 C 79 % 1019,6 hPa 0,0 l/m 3,8 km/h (1 Bft) S-SW 198 0 min 0,000 mm 0,0 UV-I 0 W/m 11,4 C 15,0 C 4,8 km/h (1 Bft) 100,00 %
04.07.2017 00:08 14,9 C 21,7 C 80 % 1019,6 hPa 0,0 l/m 3,8 km/h (1 Bft) S-SW 198 0 min 0,000 mm 0,0 UV-I 0 W/m 11,5 C 14,9 C 6,4 km/h (2 Bft) 97,44 %
04.07.2017 00:10 14,8 C 21,7 C 80 % 1019,6 hPa 0,0 l/m 3,0 km/h (1 Bft) S-SW 198 0 min 0,000 mm 0,0 UV-I 0 W/m 11,4 C 14,8 C 4,8 km/h (1 Bft) 100,00 %
04.07.2017 00:12 14,8 C 21,7 C 80 % 1019,6 hPa 0,0 l/m 3,7 km/h (1 Bft) S-SW 198 0 min 0,000 mm 0,0 UV-I 0 W/m 11,4 C 14,8 C 4,8 km/h (1 Bft) 98,00 %
04.07.2017 00:14 14,7 C 21,7 C 81 % 1019,6 hPa 0,0 l/m 4,9 km/h (1 Bft) S-SW 198 0 min 0,000 mm 0,0 UV-I 0 W/m 11,5 C 14,7 C 6,4 km/h (2 Bft) 97,87 %
04.07.2017 00:16 14,7 C 21,7 C 81 % 1019,5 hPa 0,0 l/m 4,7 km/h (1 Bft) S-SW 206 0 min 0,000 mm 0,0 UV-I 0 W/m 11,5 C 14,7 C 8,0 km/h (2 Bft) 100,00 %
04.07.2017 00:18 14,6 C 21,7 C 81 % 1019,6 hPa 0,0 l/m 3,5 km/h (1 Bft) S-SW 206 0 min 0,000 mm 0,0 UV-I 0 W/m 11,4 C 14,6 C 4,8 km/h (1 Bft) 98,11 %
04.07.2017 00:20 14,6 C 21,7 C 81 % 1019,6 hPa 0,0 l/m 4,8 km/h (1 Bft) S-SW 206 0 min 0,000 mm 0,0 UV-I 0 W/m 11,4 C 14,6 C 6,4 km/h (2 Bft) 97,56 %
04.07.2017 00:22 14,5 C 21,7 C 81 % 1019,6 hPa 0,0 l/m 4,9 km/h (1 Bft) S-SW 206 0 min 0,000 mm 0,0 UV-I 0 W/m 11,3 C 14,5 C 8,0 km/h (2 Bft) 98,21 %
04.07.2017 00:24 14,4 C 21,7 C 81 % 1019,6 hPa 0,0 l/m 5,2 km/h (1 Bft) S-SW 206 0 min 0,000 mm 0,0 UV-I 0 W/m 11,2 C 14,4 C 8,0 km/h (2 Bft) 100,00 %
04.07.2017 00:26 14,4 C 21,7 C 82 % 1019,6 hPa 0,0 l/m 4,9 km/h (1 Bft) S-SW 206 0 min 0,000 mm 0,0 UV-I 0 W/m 11,4 C 14,4 C 6,4 km/h (2 Bft) 98,11 %
04.07.2017 00:28 14,4 C 21,7 C 82 % 1019,6 hPa 0,0 l/m 4,5 km/h (1 Bft) S-SW 206 0 min 0,000 mm 0,0 UV-I 0 W/m 11,4 C 14,4 C 6,4 km/h (2 Bft) 97,37 %
04.07.2017 00:30 14,4 C 21,7 C 82 % 1019,6 hPa 0,0 l/m 3,4 km/h (1 Bft) S-SW 196 0 min 0,000 mm 0,0 UV-I 0 W/m 11,4 C 14,4 C 4,8 km/h (1 Bft) 100,00 %
04.07.2017 00:32 14,3 C 21,7 C 82 % 1019,6 hPa 0,0 l/m 4,1 km/h (1 Bft) S-SW 196 0 min 0,000 mm 0,0 UV-I 0 W/m 11,3 C 14,3 C 4,8 km/h (1 Bft) 100,00 %
04.07.2017 00:34 14,3 C 21,7 C 82 % 1019,6 hPa 0,0 l/m 3,4 km/h (1 Bft) S-SW 196 0 min 0,000 mm 0,0 UV-I 0 W/m 11,3 C 14,3 C 4,8 km/h (1 Bft) 100,00 %
04.07.2017 00:36 14,3 C 21,7 C 82 % 1019,6 hPa 0,0 l/m 5,8 km/h (2 Bft) S-SW 196 0 min 0,000 mm 0,0 UV-I 0 W/m 11,3 C 14,3 C 8,0 km/h (2 Bft) 100,00 %
04.07.2017 00:38 14,2 C 21,7 C 82 % 1019,6 hPa 0,0 l/m 4,9 km/h (1 Bft) S-SW 193 0 min 0,000 mm 0,0 UV-I 0 W/m 11,2 C 14,2 C 6,4 km/h (2 Bft) 97,37 %
04.07.2017 00:40 14,2 C 21,7 C 82 % 1019,6 hPa 0,0 l/m 4,9 km/h (1 Bft) S-SW 203 0 min 0,000 mm 0,0 UV-I 0 W/m 11,2 C 14,2 C 6,4 km/h (2 Bft) 98,11 %
04.07.2017 00:42 14,2 C 21,7 C 83 % 1019,5 hPa 0,0 l/m 4,9 km/h (1 Bft) S-SW 192 0 min 0,000 mm 0,0 UV-I 0 W/m 11,4 C 14,2 C 8,0 km/h (2 Bft) 97,83 %
04.07.2017 00:44 14,2 C 21,7 C 83 % 1019,6 hPa 0,0 l/m 4,7 km/h (1 Bft) S-SW 211 0 min 0,000 mm 0,0 UV-I 0 W/m 11,4 C 14,2 C 9,7 km/h (2 Bft) 95,74 %
04.07.2017 00:46 14,2 C 21,7 C 83 % 1019,6 hPa 0,0 l/m 5,6 km/h (1 Bft) S 188 0 min 0,000 mm 0,0 UV-I 0 W/m 11,4 C 14,2 C 8,0 km/h (2 Bft) 100,00 %
04.07.2017 00:48 14,2 C 21,7 C 82 % 1019,5 hPa 0,0 l/m 5,9 km/h (2 Bft) S-SW 192 0 min 0,000 mm 0,0 UV-I 0 W/m 11,2 C 14,2 C 9,7 km/h (2 Bft) 95,74 %
04.07.2017 00:50 14,2 C 21,7 C 82 % 1019,5 hPa 0,0 l/m 5,3 km/h (1 Bft) SW 215 0 min 0,000 mm 0,0 UV-I 0 W/m 11,2 C 14,2 C 9,7 km/h (2 Bft) 97,44 %
04.07.2017 00:52 14,2 C 21,7 C 82 % 1019,5 hPa 0,0 l/m 6,4 km/h (2 Bft) SW 215 0 min 0,000 mm 0,0 UV-I 0 W/m 11,2 C 14,2 C 9,7 km/h (2 Bft) 96,00 %
04.07.2017 00:54 14,2 C 21,7 C 82 % 1019,4 hPa 0,0 l/m 6,5 km/h (2 Bft) S 186 0 min 0,000 mm 0,0 UV-I 0 W/m 11,2 C 14,2 C 11,3 km/h (2 Bft) 95,12 %
04.07.2017 00:56 14,2 C 21,7 C 82 % 1019,5 hPa 0,0 l/m 5,5 km/h (1 Bft) S-SW 210 0 min 0,000 mm 0,0 UV-I 0 W/m 11,2 C 14,2 C 9,7 km/h (2 Bft) 98,21 %
04.07.2017 00:58 14,2 C 21,7 C 82 % 1019,5 hPa 0,0 l/m 5,8 km/h (2 Bft) SW 215 0 min 0,000 mm 0,0 UV-I 0 W/m 11,2 C 14,2 C 9,7 km/h (2 Bft) 94,29 %
04.07.2017 01:00 14,2 C 21,7 C 82 % 1019,5 hPa 0,0 l/m 5,7 km/h (1 Bft) S-SW 205 0 min 0,025 mm 0,0 UV-I 0 W/m 11,2 C 14,2 C 11,3 km/h (2 Bft) 98,31 %
04.07.2017 01:02 14,2 C 21,7 C 82 % 1019,5 hPa 0,0 l/m 7,0 km/h (2 Bft) S 188 0 min 0,000 mm 0,0 UV-I 0 W/m 11,2 C 13,8 C 9,7 km/h (2 Bft) 94,29 %
04.07.2017 01:04 14,2 C 21,7 C 82 % 1019,5 hPa 0,0 l/m 7,5 km/h (2 Bft) S-SW 210 0 min 0,000 mm 0,0 UV-I 0 W/m 11,2 C 13,5 C 11,3 km/h (2 Bft) 94,92 %
04.07.2017 01:06 14,2 C 21,1 C 82 % 1019,5 hPa 0,0 l/m 8,1 km/h (2 Bft) SW 228 0 min 0,000 mm 0,0 UV-I 0 W/m 11,2 C 13,2 C 12,9 km/h (3 Bft) 97,87 %
04.07.2017 01:08 14,2 C 21,1 C 82 % 1019,5 hPa 0,0 l/m 8,0 km/h (2 Bft) S-SW 211 0 min 0,000 mm 0,0 UV-I 0 W/m 11,2 C 13,3 C 11,3 km/h (2 Bft) 95,12 %
04.07.2017 01:10 14,3 C 21,7 C 82 % 1019,5 hPa 0,0 l/m 8,0 km/h (2 Bft) SW 230 0 min 0,000 mm 0,0 UV-I 0 W/m 11,3 C 13,4 C 11,3 km/h (2 Bft) 95,74 %
04.07.2017 01:12 14,3 C 21,1 C 82 % 1019,5 hPa 0,0 l/m 6,2 km/h (2 Bft) SW 215 0 min 0,000 mm 0,0 UV-I 0 W/m 11,3 C 14,3 C 9,7 km/h (2 Bft) 96,23 %
04.07.2017 01:14 14,3 C 21,1 C 82 % 1019,5 hPa 0,0 l/m 5,4 km/h (1 Bft) W-SW 238 0 min 0,000 mm 0,0 UV-I 0 W/m 11,3 C 14,3 C 9,7 km/h (2 Bft) 97,14 %
04.07.2017 01:16 14,3 C 21,1 C 82 % 1019,5 hPa 0,0 l/m 6,8 km/h (2 Bft) SW 221 0 min 0,000 mm 0,0 UV-I 0 W/m 11,3 C 14,1 C 12,9 km/h (3 Bft) 96,23 %
04.07.2017 01:18 14,3 C 21,1 C 82 % 1019,5 hPa 0,0 l/m 6,3 km/h (2 Bft) S-SW 210 0 min 0,000 mm 0,0 UV-I 0 W/m 11,3 C 14,3 C 9,7 km/h (2 Bft) 96,00 %
04.07.2017 01:20 14,3 C 21,1 C 82 % 1019,5 hPa 0,0 l/m 7,7 km/h (2 Bft) S-SW 210 0 min 0,000 mm 0,0 UV-I 0 W/m 11,3 C 13,5 C 11,3 km/h (2 Bft) 96,00 %
04.07.2017 01:22 14,2 C 21,1 C 82 % 1019,5 hPa 0,0 l/m 6,7 km/h (2 Bft) SW 220 0 min 0,000 mm 0,0 UV-I 0 W/m 11,2 C 14,0 C 9,7 km/h (2 Bft) 97,87 %
04.07.2017 01:24 14,2 C 21,7 C 82 % 1019,5 hPa 0,0 l/m 6,8 km/h (2 Bft) S-SW 207 0 min 0,000 mm 0,0 UV-I 0 W/m 11,2 C 14,0 C 11,3 km/h (2 Bft) 100,00 %
04.07.2017 01:26 14,2 C 21,7 C 82 % 1019,4 hPa 0,0 l/m 7,0 km/h (2 Bft) SW 219 0 min 0,000 mm 0,0 UV-I 0 W/m 11,2 C 13,8 C 9,7 km/h (2 Bft) 96,15 %
04.07.2017 01:28 14,1 C 21,7 C 82 % 1019,4 hPa 0,0 l/m 6,0 km/h (2 Bft) S-SW 213 0 min 0,000 mm 0,0 UV-I 0 W/m 11,1 C 14,1 C 8,0 km/h (2 Bft) 95,83 %
04.07.2017 01:30 14,1 C 21,7 C 82 % 1019,5 hPa 0,0 l/m 6,1 km/h (2 Bft) S-SW 199 0 min 0,000 mm 0,0 UV-I 0 W/m 11,1 C 14,1 C 9,7 km/h (2 Bft) 97,87 %
04.07.2017 01:32 14,1 C 21,7 C 83 % 1019,4 hPa 0,0 l/m 6,0 km/h (2 Bft) SW 218 0 min 0,000 mm 0,0 UV-I 0 W/m 11,3 C 14,1 C 8,0 km/h (2 Bft) 97,37 %
04.07.2017 01:34 14,1 C 21,7 C 83 % 1019,4 hPa 0,0 l/m 5,7 km/h (1 Bft) SW 221 0 min 0,000 mm 0,0 UV-I 0 W/m 11,3 C 14,1 C 9,7 km/h (2 Bft) 94,34 %
04.07.2017 01:36 14,0 C 21,7 C 83 % 1019,4 hPa 0,0 l/m 6,4 km/h (2 Bft) SW 219 0 min 0,000 mm 0,0 UV-I 0 W/m 11,2 C 14,0 C 9,7 km/h (2 Bft) 98,00 %
04.07.2017 01:38 13,9 C 21,7 C 83 % 1019,4 hPa 0,0 l/m 6,6 km/h (2 Bft) S-SW 207 0 min 0,000 mm 0,0 UV-I 0 W/m 11,1 C 13,8 C 9,7 km/h (2 Bft) 95,12 %
04.07.2017 01:40 13,9 C 21,7 C 83 % 1019,4 hPa 0,0 l/m 6,2 km/h (2 Bft) SW 214 0 min 0,000 mm 0,0 UV-I 0 W/m 11,1 C 13,9 C 8,0 km/h (2 Bft) 98,11 %
04.07.2017 01:42 13,9 C 21,7 C 83 % 1019,4 hPa 0,0 l/m 5,9 km/h (2 Bft) S-SW 207 0 min 0,000 mm 0,0 UV-I 0 W/m 11,1 C 13,9 C 8,0 km/h (2 Bft) 94,74 %
04.07.2017 01:44 13,9 C 21,1 C 83 % 1019,4 hPa 0,0 l/m 6,1 km/h (2 Bft) SW 217 0 min 0,000 mm 0,0 UV-I 0 W/m 11,1 C 13,9 C 9,7 km/h (2 Bft) 95,74 %
04.07.2017 01:46 13,8 C 21,7 C 83 % 1019,4 hPa 0,0 l/m 5,7 km/h (1 Bft) SW 216 0 min 0,000 mm 0,0 UV-I 0 W/m 11,0 C 13,8 C 8,0 km/h (2 Bft) 95,83 %
04.07.2017 01:48 13,8 C 21,7 C 83 % 1019,4 hPa 0,0 l/m 6,4 km/h (2 Bft) SW 214 0 min 0,000 mm 0,0 UV-I 0 W/m 11,0 C 13,8 C 8,0 km/h (2 Bft) 95,89 %
04.07.2017 01:50 13,8 C 21,1 C 83 % 1019,4 hPa 0,0 l/m 6,6 km/h (2 Bft) S-SW 199 0 min 0,000 mm 0,0 UV-I 0 W/m 11,0 C 13,7 C 9,7 km/h (2 Bft) 97,87 %
04.07.2017 01:52 13,8 C 21,1 C 83 % 1019,4 hPa 0,0 l/m 6,9 km/h (2 Bft) SW 221 0 min 0,000 mm 0,0 UV-I 0 W/m 11,0 C 13,5 C 9,7 km/h (2 Bft) 97,37 %
04.07.2017 01:54 13,7 C 21,7 C 83 % 1019,4 hPa 0,0 l/m 5,7 km/h (1 Bft) S-SW 208 0 min 0,000 mm 0,0 UV-I 0 W/m 10,9 C 13,7 C 8,0 km/h (2 Bft) 98,08 %
04.07.2017 01:56 13,7 C 21,7 C 84 % 1019,4 hPa 0,0 l/m 4,5 km/h (1 Bft) S-SW 208 0 min 0,000 mm 0,0 UV-I 0 W/m 11,0 C 13,7 C 6,4 km/h (2 Bft) 94,00 %
04.07.2017 01:58 13,7 C 21,7 C 84 % 1019,4 hPa 0,0 l/m 6,4 km/h (2 Bft) S-SW 208 0 min 0,000 mm 0,0 UV-I 0 W/m 11,0 C 13,7 C 9,7 km/h (2 Bft) 98,11 %
04.07.2017 02:00 13,7 C 21,1 C 84 % 1019,4 hPa 0,0 l/m 5,5 km/h (1 Bft) S-SW 208 0 min 0,026 mm 0,0 UV-I 0 W/m 11,0 C 13,7 C 9,7 km/h (2 Bft) 94,74 %
04.07.2017 02:02 13,7 C 21,7 C 84 % 1019,4 hPa 0,0 l/m 5,7 km/h (1 Bft) S-SW 210 0 min 0,000 mm 0,0 UV-I 0 W/m 11,0 C 13,7 C 8,0 km/h (2 Bft) 98,00 %
04.07.2017 02:04 13,7 C 21,7 C 84 % 1019,4 hPa 0,0 l/m 6,8 km/h (2 Bft) S-SW 198 0 min 0,000 mm 0,0 UV-I 0 W/m 11,0 C 13,5 C 8,0 km/h (2 Bft) 96,30 %
04.07.2017 02:06 13,7 C 21,7 C 84 % 1019,4 hPa 0,0 l/m 5,2 km/h (1 Bft) S 188 0 min 0,000 mm 0,0 UV-I 0 W/m 11,0 C 13,7 C 8,0 km/h (2 Bft) 97,06 %
04.07.2017 02:08 13,7 C 21,1 C 84 % 1019,4 hPa 0,0 l/m 5,8 km/h (2 Bft) S-SW 200 0 min 0,000 mm 0,0 UV-I 0 W/m 11,0 C 13,7 C 8,0 km/h (2 Bft) 97,87 %
04.07.2017 02:10 13,7 C 21,7 C 84 % 1019,4 hPa 0,0 l/m 5,7 km/h (1 Bft) S-SW 200 0 min 0,000 mm 0,0 UV-I 0 W/m 11,0 C 13,7 C 8,0 km/h (2 Bft) 93,62 %
04.07.2017 02:12 13,6 C 21,7 C 84 % 1019,4 hPa 0,0 l/m 4,9 km/h (1 Bft) S-SW 203 0 min 0,000 mm 0,0 UV-I 0 W/m 10,9 C 13,6 C 6,4 km/h (2 Bft) 97,56 %
04.07.2017 02:14 13,6 C 21,7 C 84 % 1019,4 hPa 0,0 l/m 5,6 km/h (1 Bft) S-SW 203 0 min 0,000 mm 0,0 UV-I 0 W/m 10,9 C 13,6 C 9,7 km/h (2 Bft) 96,43 %
04.07.2017 02:16 13,6 C 21,1 C 84 % 1019,3 hPa 0,0 l/m 5,2 km/h (1 Bft) S-SW 203 0 min 0,000 mm 0,0 UV-I 0 W/m 10,9 C 13,6 C 9,7 km/h (2 Bft) 97,37 %
04.07.2017 02:18 13,6 C 21,1 C 84 % 1019,3 hPa 0,0 l/m 5,3 km/h (1 Bft) S-SW 203 0 min 0,000 mm 0,0 UV-I 0 W/m 10,9 C 13,6 C 8,0 km/h (2 Bft) 98,11 %
04.07.2017 02:20 13,6 C 21,1 C 85 % 1019,3 hPa 0,0 l/m 6,0 km/h (2 Bft) S-SW 200 0 min 0,000 mm 0,0 UV-I 0 W/m 11,1 C 13,6 C 9,7 km/h (2 Bft) 97,56 %
04.07.2017 02:22 13,6 C 21,1 C 85 % 1019,3 hPa 0,0 l/m 4,9 km/h (1 Bft) S-SW 192 0 min 0,000 mm 0,0 UV-I 0 W/m 11,1 C 13,6 C 8,0 km/h (2 Bft) 96,00 %
04.07.2017 02:24 13,6 C 21,1 C 85 % 1019,3 hPa 0,0 l/m 4,5 km/h (1 Bft) S-SW 198 0 min 0,000 mm 0,0 UV-I 0 W/m 11,1 C 13,6 C 6,4 km/h (2 Bft) 97,37 %
04.07.2017 02:26 13,6 C 21,1 C 85 % 1019,3 hPa 0,0 l/m 5,0 km/h (1 Bft) S 188 0 min 0,000 mm 0,0 UV-I 0 W/m 11,1 C 13,6 C 8,0 km/h (2 Bft) 96,77 %
04.07.2017 02:28 13,6 C 21,1 C 85 % 1019,3 hPa 0,0 l/m 5,4 km/h (1 Bft) S 189 0 min 0,000 mm 0,0 UV-I 0 W/m 11,1 C 13,6 C 8,0 km/h (2 Bft) 93,62 %
04.07.2017 02:30 13,6 C 21,1 C 85 % 1019,3 hPa 0,0 l/m 5,3 km/h (1 Bft) S-SW 213 0 min 0,000 mm 0,0 UV-I 0 W/m 11,1 C 13,6 C 9,7 km/h (2 Bft) 100,00 %
04.07.2017 02:32 13,6 C 21,1 C 85 % 1019,3 hPa 0,0 l/m 5,7 km/h (1 Bft) S-SW 213 0 min 0,000 mm 0,0 UV-I 0 W/m 11,1 C 13,6 C 8,0 km/h (2 Bft) 97,22 %
04.07.2017 02:34 13,6 C 21,1 C 85 % 1019,2 hPa 0,0 l/m 5,9 km/h (2 Bft) S-SW 213 0 min 0,000 mm 0,0 UV-I 0 W/m 11,1 C 13,6 C 8,0 km/h (2 Bft) 100,00 %
04.07.2017 02:36 13,6 C 21,1 C 85 % 1019,3 hPa 0,0 l/m 5,8 km/h (2 Bft) S-SW 213 0 min 0,000 mm 0,0 UV-I 0 W/m 11,1 C 13,6 C 8,0 km/h (2 Bft) 98,11 %
04.07.2017 02:38 13,6 C 21,1 C 85 % 1019,3 hPa 0,0 l/m 5,7 km/h (1 Bft) S-SW 213 0 min 0,000 mm 0,0 UV-I 0 W/m 11,1 C 13,6 C 8,0 km/h (2 Bft) 100,00 %
04.07.2017 02:40 13,6 C 21,1 C 85 % 1019,2 hPa 0,0 l/m 5,8 km/h (2 Bft) S-SW 209 0 min 0,000 mm 0,0 UV-I 0 W/m 11,1 C 13,6 C 9,7 km/h (2 Bft) 100,00 %
04.07.2017 02:42 13,7 C 21,1 C 86 % 1019,3 hPa 0,0 l/m 6,8 km/h (2 Bft) S-SW 208 0 min 0,000 mm 0,0 UV-I 0 W/m 11,4 C 13,5 C 8,0 km/h (2 Bft) 100,00 %
04.07.2017 02:44 13,7 C 21,1 C 86 % 1019,3 hPa 0,0 l/m 6,9 km/h (2 Bft) SW 214 0 min 0,000 mm 0,0 UV-I 0 W/m 11,4 C 13,4 C 9,7 km/h (2 Bft) 100,00 %
04.07.2017 02:46 13,8 C 21,1 C 86 % 1019,3 hPa 0,0 l/m 8,1 km/h (2 Bft) SW 220 0 min 0,000 mm 0,0 UV-I 0 W/m 11,5 C 12,8 C 11,3 km/h (2 Bft) 100,00 %
04.07.2017 02:48 13,8 C 21,1 C 85 % 1019,3 hPa 0,0 l/m 7,3 km/h (2 Bft) S-SW 210 0 min 0,000 mm 0,0 UV-I 0 W/m 11,3 C 13,3 C 11,3 km/h (2 Bft) 98,21 %
04.07.2017 02:50 13,9 C 21,1 C 85 % 1019,3 hPa 0,0 l/m 6,7 km/h (2 Bft) SW 219 0 min 0,000 mm 0,0 UV-I 0 W/m 11,4 C 13,7 C 11,3 km/h (2 Bft) 97,87 %
04.07.2017 02:52 13,9 C 21,1 C 85 % 1019,2 hPa 0,0 l/m 7,1 km/h (2 Bft) S-SW 209 0 min 0,000 mm 0,0 UV-I 0 W/m 11,4 C 13,5 C 11,3 km/h (2 Bft) 97,37 %
04.07.2017 02:54 14,1 C 21,1 C 85 % 1019,2 hPa 0,0 l/m 7,3 km/h (2 Bft) SW 222 0 min 0,000 mm 0,0 UV-I 0 W/m 11,6 C 13,6 C 9,7 km/h (2 Bft) 94,00 %
04.07.2017 02:56 14,2 C 21,1 C 85 % 1019,2 hPa 0,0 l/m 6,9 km/h (2 Bft) S-SW 202 0 min 0,000 mm 0,0 UV-I 0 W/m 11,7 C 13,9 C 11,3 km/h (2 Bft) 95,74 %
04.07.2017 02:58 14,2 C 21,1 C 85 % 1019,2 hPa 0,0 l/m 9,4 km/h (2 Bft) S-SW 204 0 min 0,000 mm 0,0 UV-I 0 W/m 11,7 C 12,5 C 12,9 km/h (3 Bft) 93,62 %
04.07.2017 03:00 14,3 C 21,1 C 85 % 1019,1 hPa 0,0 l/m 6,4 km/h (2 Bft) S-SW 198 0 min 0,000 mm 0,0 UV-I 0 W/m 11,8 C 14,3 C 9,7 km/h (2 Bft) 98,00 %
04.07.2017 03:02 14,4 C 21,1 C 85 % 1019,2 hPa 0,0 l/m 6,6 km/h (2 Bft) S-SW 210 0 min 0,025 mm 0,0 UV-I 0 W/m 11,9 C 14,3 C 9,7 km/h (2 Bft) 95,12 %
04.07.2017 03:04 14,5 C 21,1 C 84 % 1019,2 hPa 0,0 l/m 6,7 km/h (2 Bft) S-SW 212 0 min 0,000 mm 0,0 UV-I 0 W/m 11,8 C 14,3 C 11,3 km/h (2 Bft) 96,00 %
04.07.2017 03:06 14,5 C 21,1 C 84 % 1019,2 hPa 0,0 l/m 7,3 km/h (2 Bft) S-SW 208 0 min 0,000 mm 0,0 UV-I 0 W/m 11,8 C 14,0 C 9,7 km/h (2 Bft) 98,11 %
04.07.2017 03:08 14,6 C 21,1 C 84 % 1019,1 hPa 0,0 l/m 7,4 km/h (2 Bft) SW 214 0 min 0,000 mm 0,0 UV-I 0 W/m 11,9 C 14,0 C 11,3 km/h (2 Bft) 95,45 %
04.07.2017 03:10 14,6 C 21,1 C 84 % 1019,1 hPa 0,0 l/m 7,9 km/h (2 Bft) S-SW 211 0 min 0,000 mm 0,0 UV-I 0 W/m 11,9 C 13,7 C 11,3 km/h (2 Bft) 95,74 %
04.07.2017 03:12 14,6 C 21,1 C 84 % 1019,2 hPa 0,0 l/m 7,8 km/h (2 Bft) SW 235 0 min 0,000 mm 0,0 UV-I 0 W/m 11,9 C 13,8 C 11,3 km/h (2 Bft) 95,12 %
04.07.2017 03:14 14,6 C 21,1 C 84 % 1019,2 hPa 0,0 l/m 7,9 km/h (2 Bft) SW 216 0 min 0,000 mm 0,0 UV-I 0 W/m 11,9 C 13,7 C 11,3 km/h (2 Bft) 98,00 %
04.07.2017 03:16 14,7 C 21,1 C 84 % 1019,2 hPa 0,0 l/m 6,6 km/h (2 Bft) S-SW 213 0 min 0,000 mm 0,0 UV-I 0 W/m 12,0 C 14,6 C 9,7 km/h (2 Bft) 95,74 %
04.07.2017 03:18 14,7 C 21,1 C 84 % 1019,2 hPa 0,0 l/m 7,9 km/h (2 Bft) S-SW 198 0 min 0,000 mm 0,0 UV-I 0 W/m 12,0 C 13,8 C 11,3 km/h (2 Bft) 94,00 %
04.07.2017 03:20 14,7 C 21,1 C 84 % 1019,2 hPa 0,0 l/m 7,9 km/h (2 Bft) S-SW 209 0 min 0,000 mm 0,0 UV-I 0 W/m 12,0 C 13,8 C 11,3 km/h (2 Bft) 97,62 %
04.07.2017 03:22 14,7 C 21,1 C 84 % 1019,2 hPa 0,0 l/m 6,2 km/h (2 Bft) S-SW 211 0 min 0,000 mm 0,0 UV-I 0 W/m 12,0 C 14,7 C 9,7 km/h (2 Bft) 94,23 %
04.07.2017 03:24 14,7 C 21,1 C 84 % 1019,2 hPa 0,0 l/m 8,0 km/h (2 Bft) S-SW 211 0 min 0,000 mm 0,0 UV-I 0 W/m 12,0 C 13,8 C 11,3 km/h (2 Bft) 97,22 %
04.07.2017 03:26 14,7 C 21,1 C 84 % 1019,2 hPa 0,0 l/m 8,6 km/h (2 Bft) S-SW 207 0 min 0,000 mm 0,0 UV-I 0 W/m 12,0 C 13,5 C 12,9 km/h (3 Bft) 98,11 %
04.07.2017 03:28 14,7 C 21,1 C 84 % 1019,2 hPa 0,0 l/m 7,6 km/h (2 Bft) SW 219 0 min 0,000 mm 0,0 UV-I 0 W/m 12,0 C 14,0 C 9,7 km/h (2 Bft) 97,56 %
04.07.2017 03:30 14,7 C 21,1 C 84 % 1019,2 hPa 0,0 l/m 8,6 km/h (2 Bft) S-SW 206 0 min 0,000 mm 0,0 UV-I 0 W/m 12,0 C 13,5 C 12,9 km/h (3 Bft) 96,43 %
04.07.2017 03:32 14,7 C 21,1 C 84 % 1019,2 hPa 0,0 l/m 5,5 km/h (1 Bft) SW 217 0 min 0,000 mm 0,0 UV-I 0 W/m 12,0 C 14,7 C 9,7 km/h (2 Bft) 100,00 %
04.07.2017 03:34 14,7 C 21,1 C 84 % 1019,1 hPa 0,0 l/m 8,4 km/h (2 Bft) S-SW 211 0 min 0,000 mm 0,0 UV-I 0 W/m 12,0 C 13,6 C 12,9 km/h (3 Bft) 100,00 %
04.07.2017 03:36 14,8 C 21,1 C 84 % 1019,2 hPa 0,0 l/m 9,4 km/h (2 Bft) S-SW 194 0 min 0,000 mm 0,0 UV-I 0 W/m 12,1 C 13,2 C 12,9 km/h (3 Bft) 100,00 %
04.07.2017 03:38 14,8 C 21,1 C 84 % 1019,2 hPa 0,0 l/m 8,2 km/h (2 Bft) SW 229 0 min 0,000 mm 0,0 UV-I 0 W/m 12,1 C 13,8 C 11,3 km/h (2 Bft) 98,11 %
04.07.2017 03:40 14,8 C 21,1 C 84 % 1019,1 hPa 0,0 l/m 7,1 km/h (2 Bft) SW 227 0 min 0,000 mm 0,0 UV-I 0 W/m 12,1 C 14,4 C 14,5 km/h (3 Bft) 93,62 %
04.07.2017 03:42 14,8 C 21,1 C 84 % 1019,1 hPa 0,0 l/m 7,4 km/h (2 Bft) SW 234 0 min 0,000 mm 0,0 UV-I 0 W/m 12,1 C 14,2 C 14,5 km/h (3 Bft) 100,00 %
04.07.2017 03:44 14,8 C 21,1 C 83 % 1019,1 hPa 0,0 l/m 7,1 km/h (2 Bft) SW 215 0 min 0,000 mm 0,0 UV-I 0 W/m 11,9 C 14,4 C 11,3 km/h (2 Bft) 97,87 %
04.07.2017 03:46 14,8 C 21,1 C 83 % 1019,2 hPa 0,0 l/m 6,0 km/h (2 Bft) SW 221 0 min 0,000 mm 0,0 UV-I 0 W/m 11,9 C 14,8 C 9,7 km/h (2 Bft) 100,00 %
04.07.2017 03:48 14,8 C 21,1 C 83 % 1019,1 hPa 0,0 l/m 5,3 km/h (1 Bft) S-SW 207 0 min 0,000 mm 0,0 UV-I 0 W/m 11,9 C 14,8 C 8,0 km/h (2 Bft) 98,00 %
04.07.2017 03:50 14,8 C 21,1 C 84 % 1019,2 hPa 0,0 l/m 6,9 km/h (2 Bft) S 190 0 min 0,000 mm 0,0 UV-I 0 W/m 12,1 C 14,5 C 9,7 km/h (2 Bft) 100,00 %
04.07.2017 03:52 14,8 C 21,1 C 84 % 1019,1 hPa 0,0 l/m 6,6 km/h (2 Bft) S-SW 209 0 min 0,000 mm 0,0 UV-I 0 W/m 12,1 C 14,7 C 11,3 km/h (2 Bft) 97,73 %
04.07.2017 03:54 14,8 C 21,1 C 84 % 1019,1 hPa 0,0 l/m 7,0 km/h (2 Bft) S-SW 202 0 min 0,000 mm 0,0 UV-I 0 W/m 12,1 C 14,5 C 9,7 km/h (2 Bft) 100,00 %
04.07.2017 03:56 14,8 C 21,1 C 84 % 1019,1 hPa 0,0 l/m 6,4 km/h (2 Bft) S-SW 206 0 min 0,000 mm 0,0 UV-I 0 W/m 12,1 C 14,8 C 9,7 km/h (2 Bft) 100,00 %
04.07.2017 03:58 14,8 C 21,1 C 84 % 1019,1 hPa 0,0 l/m 6,7 km/h (2 Bft) S-SW 204 0 min 0,000 mm 0,0 UV-I 0 W/m 12,1 C 14,6 C 9,7 km/h (2 Bft) 100,00 %
04.07.2017 04:00 14,8 C 21,1 C 84 % 1019,1 hPa 0,0 l/m 6,5 km/h (2 Bft) S-SW 212 0 min 0,026 mm 0,0 UV-I 0 W/m 12,1 C 14,8 C 8,0 km/h (2 Bft) 97,44 %
04.07.2017 04:02 14,8 C 21,1 C 84 % 1019,1 hPa 0,0 l/m 6,3 km/h (2 Bft) SW 214 0 min 0,000 mm 0,0 UV-I 0 W/m 12,1 C 14,8 C 8,0 km/h (2 Bft) 93,75 %
04.07.2017 04:04 14,8 C 21,1 C 84 % 1019,1 hPa 0,0 l/m 5,6 km/h (1 Bft) S-SW 201 0 min 0,000 mm 0,0 UV-I 0 W/m 12,1 C 14,8 C 8,0 km/h (2 Bft) 100,00 %
04.07.2017 04:06 14,7 C 21,1 C 84 % 1019,1 hPa 0,0 l/m 5,6 km/h (1 Bft) W-SW 241 0 min 0,000 mm 0,0 UV-I 0 W/m 12,0 C 14,7 C 8,0 km/h (2 Bft) 97,73 %
04.07.2017 04:08 14,7 C 21,1 C 84 % 1019,2 hPa 0,0 l/m 6,8 km/h (2 Bft) W-SW 243 0 min 0,000 mm 0,0 UV-I 0 W/m 12,0 C 14,5 C 8,0 km/h (2 Bft) 100,00 %
04.07.2017 04:10 14,7 C 21,1 C 85 % 1019,1 hPa 0,0 l/m 6,4 km/h (2 Bft) SW 232 0 min 0,000 mm 0,0 UV-I 0 W/m 12,2 C 14,7 C 8,0 km/h (2 Bft) 97,87 %
04.07.2017 04:12 14,7 C 21,1 C 85 % 1019,1 hPa 0,0 l/m 5,4 km/h (1 Bft) SW 231 0 min 0,000 mm 0,0 UV-I 0 W/m 12,2 C 14,7 C 8,0 km/h (2 Bft) 98,00 %
04.07.2017 04:14 14,7 C 21,1 C 85 % 1019,1 hPa 0,0 l/m 5,1 km/h (1 Bft) SW 234 0 min 0,000 mm 0,0 UV-I 0 W/m 12,2 C 14,7 C 6,4 km/h (2 Bft) 97,56 %
04.07.2017 04:16 14,6 C 21,1 C 85 % 1019,1 hPa 0,0 l/m 5,2 km/h (1 Bft) SW 236 0 min 0,000 mm 0,0 UV-I 0 W/m 12,1 C 14,6 C 6,4 km/h (2 Bft) 100,00 %
04.07.2017 04:18 14,6 C 21,1 C 85 % 1019,2 hPa 0,0 l/m 6,6 km/h (2 Bft) SW 233 0 min 0,000 mm 0,0 UV-I 0 W/m 12,1 C 14,5 C 9,7 km/h (2 Bft) 97,56 %
04.07.2017 04:20 14,6 C 21,1 C 86 % 1019,2 hPa 0,0 l/m 7,1 km/h (2 Bft) SW 236 0 min 0,000 mm 0,0 UV-I 0 W/m 12,3 C 14,2 C 9,7 km/h (2 Bft) 100,00 %
04.07.2017 04:22 14,6 C 21,1 C 86 % 1019,3 hPa 0,0 l/m 6,2 km/h (2 Bft) W-SW 252 0 min 0,000 mm 0,0 UV-I 0 W/m 12,3 C 14,6 C 8,0 km/h (2 Bft) 100,00 %
04.07.2017 04:24 14,6 C 21,1 C 86 % 1019,3 hPa 0,0 l/m 6,6 km/h (2 Bft) W-SW 239 0 min 0,000 mm 0,0 UV-I 0 W/m 12,3 C 14,5 C 9,7 km/h (2 Bft) 98,00 %
04.07.2017 04:26 14,6 C 21,1 C 86 % 1019,3 hPa 0,0 l/m 7,4 km/h (2 Bft) S-SW 201 0 min 0,000 mm 0,0 UV-I 0 W/m 12,3 C 14,0 C 11,3 km/h (2 Bft) 98,00 %
04.07.2017 04:28 14,6 C 21,1 C 86 % 1019,3 hPa 0,0 l/m 7,3 km/h (2 Bft) SW 217 0 min 0,000 mm 0,0 UV-I 0 W/m 12,3 C 14,1 C 11,3 km/h (2 Bft) 100,00 %
04.07.2017 04:30 14,7 C 21,1 C 86 % 1019,3 hPa 0,0 l/m 9,7 km/h (2 Bft) SW 223 0 min 0,000 mm 0,0 UV-I 0 W/m 12,4 C 12,9 C 14,5 km/h (3 Bft) 97,73 %
04.07.2017 04:32 14,7 C 21,1 C 86 % 1019,3 hPa 0,0 l/m 7,9 km/h (2 Bft) SW 219 0 min 0,000 mm 0,0 UV-I 0 W/m 12,4 C 13,8 C 12,9 km/h (3 Bft) 98,11 %
04.07.2017 04:34 14,8 C 21,1 C 86 % 1019,2 hPa 0,0 l/m 7,4 km/h (2 Bft) S-SW 208 0 min 0,000 mm 0,0 UV-I 0 W/m 12,5 C 14,2 C 11,3 km/h (2 Bft) 98,11 %
04.07.2017 04:36 14,8 C 21,1 C 86 % 1019,2 hPa 0,0 l/m 7,9 km/h (2 Bft) SW 230 0 min 0,000 mm 0,0 UV-I 0 W/m 12,5 C 13,9 C 11,3 km/h (2 Bft) 100,00 %
04.07.2017 04:38 14,8 C 21,1 C 86 % 1019,2 hPa 0,0 l/m 7,4 km/h (2 Bft) SW 229 0 min 0,000 mm 0,0 UV-I 0 W/m 12,5 C 14,2 C 9,7 km/h (2 Bft) 97,87 %
04.07.2017 04:40 14,8 C 21,1 C 86 % 1019,2 hPa 0,0 l/m 7,1 km/h (2 Bft) W-SW 250 0 min 0,000 mm 0,0 UV-I 0 W/m 12,5 C 14,4 C 11,3 km/h (2 Bft) 96,67 %
04.07.2017 04:42 14,7 C 21,1 C 87 % 1019,2 hPa 0,0 l/m 6,6 km/h (2 Bft) SW 226 0 min 0,000 mm 0,0 UV-I 0 W/m 12,6 C 14,6 C 11,3 km/h (2 Bft) 100,00 %
04.07.2017 04:44 14,7 C 21,1 C 87 % 1019,2 hPa 0,0 l/m 6,0 km/h (2 Bft) SW 222 0 min 0,000 mm 0,0 UV-I 0 W/m 12,6 C 14,7 C 9,7 km/h (2 Bft) 98,21 %
04.07.2017 04:46 14,7 C 21,1 C 87 % 1019,2 hPa 0,0 l/m 6,4 km/h (2 Bft) S-SW 211 0 min 0,000 mm 0,0 UV-I 0 W/m 12,6 C 14,7 C 11,3 km/h (2 Bft) 97,56 %
04.07.2017 04:48 14,7 C 21,1 C 87 % 1019,2 hPa 0,0 l/m 6,9 km/h (2 Bft) S-SW 206 0 min 0,000 mm 0,0 UV-I 0 W/m 12,6 C 14,4 C 9,7 km/h (2 Bft) 100,00 %
04.07.2017 04:50 14,7 C 21,1 C 87 % 1019,2 hPa 0,0 l/m 7,2 km/h (2 Bft) SW 225 0 min 0,000 mm 0,0 UV-I 0 W/m 12,6 C 14,2 C 9,7 km/h (2 Bft) 97,73 %
04.07.2017 04:52 14,7 C 21,1 C 88 % 1019,2 hPa 0,0 l/m 7,5 km/h (2 Bft) S-SW 213 0 min 0,000 mm 0,0 UV-I 0 W/m 12,7 C 14,1 C 9,7 km/h (2 Bft) 96,23 %
04.07.2017 04:54 14,7 C 21,1 C 88 % 1019,2 hPa 0,0 l/m 7,5 km/h (2 Bft) S-SW 211 0 min 0,000 mm 0,0 UV-I 0 W/m 12,7 C 14,1 C 11,3 km/h (2 Bft) 97,56 %
04.07.2017 04:56 14,7 C 21,1 C 88 % 1019,1 hPa 0,0 l/m 6,9 km/h (2 Bft) SW 221 0 min 0,000 mm 0,0 UV-I 0 W/m 12,7 C 14,4 C 8,0 km/h (2 Bft) 94,34 %
04.07.2017 04:58 14,7 C 21,1 C 88 % 1019,1 hPa 0,0 l/m 6,6 km/h (2 Bft) S-SW 207 0 min 0,000 mm 0,0 UV-I 0 W/m 12,7 C 14,6 C 9,7 km/h (2 Bft) 97,56 %
04.07.2017 05:00 14,7 C 21,1 C 88 % 1019,1 hPa 0,0 l/m 5,9 km/h (2 Bft) SW 223 0 min 0,000 mm 0,0 UV-I 0 W/m 12,7 C 14,7 C 6,4 km/h (2 Bft) 95,12 %
04.07.2017 05:02 14,7 C 21,1 C 88 % 1019,1 hPa 0,0 l/m 5,0 km/h (1 Bft) SW 216 0 min 0,025 mm 0,0 UV-I 5 W/m 12,7 C 14,7 C 8,0 km/h (2 Bft) 98,00 %
04.07.2017 05:04 14,7 C 21,1 C 88 % 1019,1 hPa 0,0 l/m 6,5 km/h (2 Bft) SW 225 0 min 0,000 mm 0,0 UV-I 5 W/m 12,7 C 14,7 C 9,7 km/h (2 Bft) 96,43 %
04.07.2017 05:06 14,7 C 21,1 C 88 % 1019,2 hPa 0,0 l/m 6,4 km/h (2 Bft) S-SW 211 0 min 0,000 mm 0,0 UV-I 5 W/m 12,7 C 14,7 C 9,7 km/h (2 Bft) 94,74 %
04.07.2017 05:08 14,7 C 21,1 C 88 % 1019,2 hPa 0,0 l/m 7,2 km/h (2 Bft) W-SW 244 0 min 0,000 mm 0,0 UV-I 5 W/m 12,7 C 14,2 C 12,9 km/h (3 Bft) 96,23 %
04.07.2017 05:10 14,7 C 21,1 C 88 % 1019,2 hPa 0,0 l/m 7,9 km/h (2 Bft) SW 221 0 min 0,000 mm 0,0 UV-I 7 W/m 12,7 C 13,8 C 12,9 km/h (3 Bft) 95,74 %
04.07.2017 05:12 14,7 C 21,1 C 88 % 1019,2 hPa 0,0 l/m 8,6 km/h (2 Bft) SW 222 0 min 0,000 mm 0,0 UV-I 7 W/m 12,7 C 13,5 C 12,9 km/h (3 Bft) 95,74 %
04.07.2017 05:14 14,7 C 21,1 C 88 % 1019,2 hPa 0,0 l/m 11,0 km/h (2 Bft) SW 222 0 min 0,000 mm 0,0 UV-I 7 W/m 12,7 C 12,3 C 14,5 km/h (3 Bft) 97,37 %
04.07.2017 05:16 14,6 C 21,1 C 88 % 1019,2 hPa 0,0 l/m 11,2 km/h (2 Bft) S-SW 213 0 min 0,000 mm 0,0 UV-I 7 W/m 12,6 C 12,1 C 14,5 km/h (3 Bft) 92,86 %
04.07.2017 05:18 14,6 C 21,1 C 88 % 1019,2 hPa 0,0 l/m 10,7 km/h (2 Bft) S-SW 202 0 min 0,000 mm 0,0 UV-I 9 W/m 12,6 C 12,4 C 16,1 km/h (3 Bft) 95,24 %
04.07.2017 05:20 14,7 C 21,1 C 88 % 1019,2 hPa 0,0 l/m 9,5 km/h (2 Bft) SW 218 0 min 0,000 mm 0,0 UV-I 9 W/m 12,7 C 13,0 C 16,1 km/h (3 Bft) 93,88 %
04.07.2017 05:22 14,7 C 21,1 C 88 % 1019,2 hPa 0,0 l/m 10,0 km/h (2 Bft) SW 217 2 min 0,000 mm 0,0 UV-I 10 W/m 12,7 C 12,8 C 16,1 km/h (3 Bft) 93,75 %
04.07.2017 05:24 14,7 C 21,1 C 87 % 1019,3 hPa 0,0 l/m 10,9 km/h (2 Bft) SW 220 2 min 0,000 mm 0,0 UV-I 11 W/m 12,6 C 12,4 C 17,7 km/h (3 Bft) 96,00 %
04.07.2017 05:26 14,8 C 21,1 C 87 % 1019,3 hPa 0,0 l/m 10,2 km/h (2 Bft) SW 229 0 min 0,000 mm 0,0 UV-I 12 W/m 12,7 C 12,8 C 17,7 km/h (3 Bft) 94,74 %
04.07.2017 05:28 14,8 C 21,1 C 86 % 1019,3 hPa 0,0 l/m 11,7 km/h (2 Bft) SW 227 0 min 0,000 mm 0,0 UV-I 12 W/m 12,5 C 12,2 C 16,1 km/h (3 Bft) 98,11 %
04.07.2017 05:30 14,8 C 20,6 C 86 % 1019,3 hPa 0,0 l/m 10,7 km/h (2 Bft) SW 232 0 min 0,000 mm 0,0 UV-I 14 W/m 12,5 C 12,6 C 12,9 km/h (3 Bft) 95,12 %
04.07.2017 05:32 14,8 C 21,1 C 86 % 1019,3 hPa 0,0 l/m 10,4 km/h (2 Bft) W-SW 252 0 min 0,000 mm 0,0 UV-I 16 W/m 12,5 C 12,7 C 16,1 km/h (3 Bft) 96,43 %
04.07.2017 05:34 14,9 C 21,1 C 86 % 1019,3 hPa 0,0 l/m 9,8 km/h (2 Bft) SW 227 0 min 0,000 mm 0,0 UV-I 18 W/m 12,6 C 13,1 C 12,9 km/h (3 Bft) 94,74 %
04.07.2017 05:36 14,8 C 21,1 C 86 % 1019,3 hPa 0,0 l/m 9,1 km/h (2 Bft) SW 231 0 min 0,000 mm 0,0 UV-I 20 W/m 12,5 C 13,3 C 12,9 km/h (3 Bft) 97,87 %
04.07.2017 05:38 14,8 C 21,1 C 86 % 1019,3 hPa 0,0 l/m 7,8 km/h (2 Bft) SW 220 0 min 0,000 mm 0,0 UV-I 24 W/m 12,5 C 14,0 C 14,5 km/h (3 Bft) 96,00 %
04.07.2017 05:40 14,8 C 21,1 C 86 % 1019,3 hPa 0,0 l/m 7,3 km/h (2 Bft) W-SW 241 0 min 0,000 mm 0,0 UV-I 28 W/m 12,5 C 14,3 C 11,3 km/h (2 Bft) 94,74 %
04.07.2017 05:42 14,8 C 21,1 C 86 % 1019,3 hPa 0,0 l/m 9,1 km/h (2 Bft) SW 234 0 min 0,000 mm 0,0 UV-I 34 W/m 12,5 C 13,3 C 12,9 km/h (3 Bft) 94,64 %
04.07.2017 05:44 14,8 C 21,1 C 86 % 1019,3 hPa 0,0 l/m 8,4 km/h (2 Bft) SW 227 2 min 0,000 mm 0,0 UV-I 38 W/m 12,5 C 13,7 C 11,3 km/h (2 Bft) 97,56 %
04.07.2017 05:46 14,8 C 21,1 C 86 % 1019,4 hPa 0,0 l/m 7,6 km/h (2 Bft) W 266 2 min 0,000 mm 0,0 UV-I 42 W/m 12,5 C 14,1 C 11,3 km/h (2 Bft) 94,34 %
04.07.2017 05:48 14,8 C 21,1 C 86 % 1019,5 hPa 0,0 l/m 7,0 km/h (2 Bft) W-SW 242 2 min 0,000 mm 0,0 UV-I 44 W/m 12,5 C 14,5 C 14,5 km/h (3 Bft) 95,12 %
04.07.2017 05:50 14,8 C 21,1 C 86 % 1019,5 hPa 0,0 l/m 6,7 km/h (2 Bft) W-SW 240 0 min 0,000 mm 0,0 UV-I 44 W/m 12,5 C 14,6 C 12,9 km/h (3 Bft) 95,74 %
04.07.2017 05:52 14,8 C 21,1 C 86 % 1019,5 hPa 0,0 l/m 6,0 km/h (2 Bft) W-SW 252 0 min 0,000 mm 0,0 UV-I 46 W/m 12,5 C 14,8 C 8,0 km/h (2 Bft) 96,23 %
04.07.2017 05:54 14,8 C 21,1 C 86 % 1019,5 hPa 0,0 l/m 6,1 km/h (2 Bft) SW 224 0 min 0,000 mm 0,0 UV-I 45 W/m 12,5 C 14,8 C 9,7 km/h (2 Bft) 97,44 %
04.07.2017 05:56 14,9 C 21,1 C 86 % 1019,5 hPa 0,0 l/m 5,3 km/h (1 Bft) SW 223 0 min 0,000 mm 0,0 UV-I 47 W/m 12,6 C 14,9 C 6,4 km/h (2 Bft) 96,36 %
04.07.2017 05:58 14,9 C 21,1 C 86 % 1019,5 hPa 0,0 l/m 7,4 km/h (2 Bft) SW 235 0 min 0,000 mm 0,0 UV-I 48 W/m 12,6 C 14,3 C 11,3 km/h (2 Bft) 95,56 %
04.07.2017 06:00 14,9 C 21,1 C 86 % 1019,6 hPa 0,0 l/m 5,0 km/h (1 Bft) SW 236 0 min 0,025 mm 0,0 UV-I 49 W/m 12,6 C 14,9 C 8,0 km/h (2 Bft) 93,18 %
04.07.2017 06:02 15,0 C 21,1 C 86 % 1019,5 hPa 0,0 l/m 6,0 km/h (2 Bft) SW 227 0 min 0,000 mm 0,0 UV-I 49 W/m 12,7 C 15,0 C 9,7 km/h (2 Bft) 94,00 %
04.07.2017 06:04 15,0 C 21,1 C 86 % 1019,5 hPa 0,0 l/m 6,6 km/h (2 Bft) SW 218 0 min 0,000 mm 0,0 UV-I 49 W/m 12,7 C 14,9 C 9,7 km/h (2 Bft) 97,87 %
04.07.2017 06:06 15,1 C 20,6 C 86 % 1019,6 hPa 0,0 l/m 4,9 km/h (1 Bft) SW 225 0 min 0,000 mm 0,0 UV-I 49 W/m 12,8 C 15,1 C 8,0 km/h (2 Bft) 97,56 %
04.07.2017 06:08 15,1 C 21,1 C 86 % 1019,6 hPa 0,0 l/m 6,5 km/h (2 Bft) SW 224 0 min 0,000 mm 0,0 UV-I 49 W/m 12,8 C 15,1 C 8,0 km/h (2 Bft) 97,73 %
04.07.2017 06:10 15,1 C 21,1 C 85 % 1019,5 hPa 0,0 l/m 6,0 km/h (2 Bft) W-SW 241 0 min 0,000 mm 0,0 UV-I 53 W/m 12,6 C 15,1 C 8,0 km/h (2 Bft) 96,43 %
04.07.2017 06:12 15,1 C 20,6 C 85 % 1019,6 hPa 0,0 l/m 6,4 km/h (2 Bft) SW 229 0 min 0,000 mm 0,0 UV-I 54 W/m 12,6 C 15,1 C 8,0 km/h (2 Bft) 94,74 %
04.07.2017 06:14 15,1 C 20,6 C 85 % 1019,6 hPa 0,0 l/m 4,7 km/h (1 Bft) SW 223 0 min 0,000 mm 0,0 UV-I 56 W/m 12,6 C 15,1 C 8,0 km/h (2 Bft) 98,00 %
04.07.2017 06:16 15,1 C 20,6 C 86 % 1019,7 hPa 0,0 l/m 4,1 km/h (1 Bft) W 273 0 min 0,000 mm 0,0 UV-I 58 W/m 12,8 C 15,1 C 6,4 km/h (2 Bft) 94,00 %
04.07.2017 06:18 15,1 C 20,6 C 86 % 1019,6 hPa 0,0 l/m 4,7 km/h (1 Bft) W 271 0 min 0,000 mm 0,0 UV-I 61 W/m 12,8 C 15,1 C 6,4 km/h (2 Bft) 98,00 %
04.07.2017 06:20 15,1 C 21,1 C 86 % 1019,6 hPa 0,0 l/m 3,3 km/h (1 Bft) SW 230 0 min 0,000 mm 0,0 UV-I 65 W/m 12,8 C 15,1 C 4,8 km/h (1 Bft) 98,00 %
04.07.2017 06:22 15,1 C 20,6 C 86 % 1019,6 hPa 0,0 l/m 4,5 km/h (1 Bft) W-SW 254 0 min 0,000 mm 0,0 UV-I 70 W/m 12,8 C 15,1 C 8,0 km/h (2 Bft) 100,00 %
04.07.2017 06:24 15,1 C 20,6 C 86 % 1019,6 hPa 0,0 l/m 3,7 km/h (1 Bft) W-SW 240 0 min 0,000 mm 0,0 UV-I 84 W/m 12,8 C 15,1 C 4,8 km/h (1 Bft) 98,11 %
04.07.2017 06:26 15,1 C 20,6 C 86 % 1019,6 hPa 0,0 l/m 5,0 km/h (1 Bft) SW 224 2 min 0,000 mm 0,0 UV-I 101 W/m 12,8 C 15,1 C 8,0 km/h (2 Bft) 100,00 %
04.07.2017 06:28 15,1 C 20,6 C 87 % 1019,6 hPa 0,0 l/m 5,4 km/h (1 Bft) SW 229 0 min 0,000 mm 0,0 UV-I 68 W/m 13,0 C 15,1 C 6,4 km/h (2 Bft) 95,74 %
04.07.2017 06:30 15,1 C 20,6 C 87 % 1019,6 hPa 0,0 l/m 3,4 km/h (1 Bft) SW 232 0 min 0,000 mm 0,0 UV-I 65 W/m 13,0 C 15,1 C 6,4 km/h (2 Bft) 98,00 %
04.07.2017 06:32 15,1 C 20,6 C 87 % 1019,7 hPa 0,0 l/m 4,4 km/h (1 Bft) S-SW 202 0 min 0,000 mm 0,0 UV-I 72 W/m 13,0 C 15,1 C 6,4 km/h (2 Bft) 100,00 %
04.07.2017 06:34 15,2 C 20,6 C 86 % 1019,6 hPa 0,0 l/m 5,0 km/h (1 Bft) S-SW 211 0 min 0,000 mm 0,0 UV-I 106 W/m 12,9 C 15,2 C 6,4 km/h (2 Bft) 98,00 %
04.07.2017 06:36 15,3 C 20,6 C 86 % 1019,6 hPa 0,0 l/m 6,1 km/h (2 Bft) S-SW 212 2 min 0,000 mm 0,0 UV-I 180 W/m 13,0 C 15,3 C 8,0 km/h (2 Bft) 98,00 %
04.07.2017 06:38 15,4 C 20,6 C 85 % 1019,6 hPa 0,0 l/m 6,0 km/h (2 Bft) S-SW 207 2 min 0,000 mm 0,0 UV-I 199 W/m 12,9 C 15,4 C 9,7 km/h (2 Bft) 95,74 %
04.07.2017 06:40 15,5 C 20,6 C 85 % 1019,6 hPa 0,0 l/m 6,6 km/h (2 Bft) S-SW 203 2 min 0,000 mm 0,0 UV-I 204 W/m 13,0 C 15,4 C 9,7 km/h (2 Bft) 100,00 %
04.07.2017 06:42 15,6 C 20,6 C 85 % 1019,6 hPa 0,0 l/m 7,2 km/h (2 Bft) SW 215 2 min 0,000 mm 0,0 UV-I 201 W/m 13,1 C 15,2 C 9,7 km/h (2 Bft) 100,00 %
04.07.2017 06:44 15,7 C 20,6 C 84 % 1019,6 hPa 0,0 l/m 5,6 km/h (1 Bft) S-SW 194 2 min 0,000 mm 0,0 UV-I 193 W/m 13,0 C 15,7 C 9,7 km/h (2 Bft) 100,00 %
04.07.2017 06:46 15,8 C 20,6 C 84 % 1019,6 hPa 0,0 l/m 4,9 km/h (1 Bft) W-SW 240 2 min 0,000 mm 0,0 UV-I 192 W/m 13,1 C 15,8 C 8,0 km/h (2 Bft) 97,56 %
04.07.2017 06:48 15,9 C 20,6 C 84 % 1019,6 hPa 0,0 l/m 4,3 km/h (1 Bft) S-SW 200 2 min 0,000 mm 0,0 UV-I 193 W/m 13,2 C 15,9 C 8,0 km/h (2 Bft) 98,11 %
04.07.2017 06:50 16,1 C 20,6 C 83 % 1019,6 hPa 0,0 l/m 6,7 km/h (2 Bft) S-SW 197 2 min 0,000 mm 0,0 UV-I 193 W/m 13,2 C 16,0 C 12,9 km/h (3 Bft) 100,00 %
04.07.2017 06:52 16,1 C 20,6 C 82 % 1019,6 hPa 0,0 l/m 5,9 km/h (2 Bft) SW 236 2 min 0,000 mm 0,0 UV-I 193 W/m 13,0 C 16,1 C 9,7 km/h (2 Bft) 91,49 %
04.07.2017 06:54 16,2 C 20,6 C 82 % 1019,6 hPa 0,0 l/m 6,0 km/h (2 Bft) W-SW 240 2 min 0,000 mm 0,0 UV-I 195 W/m 13,1 C 16,2 C 11,3 km/h (2 Bft) 98,11 %
04.07.2017 06:56 16,3 C 20,6 C 81 % 1019,6 hPa 0,0 l/m 4,3 km/h (1 Bft) SW 232 2 min 0,000 mm 0,0 UV-I 198 W/m 13,0 C 16,3 C 8,0 km/h (2 Bft) 95,12 %
04.07.2017 06:58 16,4 C 20,6 C 81 % 1019,6 hPa 0,0 l/m 4,2 km/h (1 Bft) SW 230 2 min 0,000 mm 0,0 UV-I 201 W/m 13,1 C 16,4 C 6,4 km/h (2 Bft) 96,00 %
04.07.2017 07:00 16,5 C 20,6 C 81 % 1019,6 hPa 0,0 l/m 4,6 km/h (1 Bft) SW 226 2 min 0,077 mm 0,0 UV-I 206 W/m 13,2 C 16,5 C 6,4 km/h (2 Bft) 97,73 %
04.07.2017 07:02 16,6 C 20,6 C 80 % 1019,6 hPa 0,0 l/m 7,4 km/h (2 Bft) W-SW 243 2 min 0,000 mm 0,0 UV-I 210 W/m 13,1 C 16,1 C 9,7 km/h (2 Bft) 96,00 %
04.07.2017 07:04 16,6 C 20,6 C 80 % 1019,6 hPa 0,0 l/m 6,7 km/h (2 Bft) S-SW 196 2 min 0,000 mm 0,0 UV-I 213 W/m 13,1 C 16,5 C 11,3 km/h (2 Bft) 97,37 %
04.07.2017 07:06 16,7 C 20,6 C 80 % 1019,6 hPa 0,0 l/m 5,0 km/h (1 Bft) SW 229 2 min 0,000 mm 0,0 UV-I 220 W/m 13,2 C 16,7 C 6,4 km/h (2 Bft) 94,34 %
04.07.2017 07:08 16,7 C 20,6 C 80 % 1019,7 hPa 0,0 l/m 5,6 km/h (1 Bft) S 171 2 min 0,000 mm 0,0 UV-I 226 W/m 13,2 C 16,7 C 11,3 km/h (2 Bft) 95,12 %
04.07.2017 07:10 16,7 C 20,6 C 80 % 1019,7 hPa 0,0 l/m 6,9 km/h (2 Bft) S-SW 209 2 min 0,000 mm 0,0 UV-I 231 W/m 13,2 C 16,4 C 9,7 km/h (2 Bft) 94,87 %
04.07.2017 07:12 16,8 C 20,6 C 79 % 1019,7 hPa 0,0 l/m 7,8 km/h (2 Bft) SW 215 2 min 0,000 mm 0,5 UV-I 235 W/m 13,1 C 16,1 C 12,9 km/h (3 Bft) 92,45 %
04.07.2017 07:14 16,8 C 20,6 C 80 % 1019,7 hPa 0,0 l/m 6,0 km/h (2 Bft) S-SW 203 2 min 0,000 mm 0,5 UV-I 241 W/m 13,3 C 16,8 C 9,7 km/h (2 Bft) 92,73 %
04.07.2017 07:16 16,8 C 20,6 C 80 % 1019,7 hPa 0,0 l/m 7,0 km/h (2 Bft) S-SW 209 2 min 0,000 mm 0,5 UV-I 247 W/m 13,3 C 16,5 C 9,7 km/h (2 Bft) 95,56 %
04.07.2017 07:18 16,9 C 20,6 C 79 % 1019,7 hPa 0,0 l/m 5,4 km/h (1 Bft) W-SW 245 2 min 0,000 mm 0,5 UV-I 251 W/m 13,2 C 16,9 C 9,7 km/h (2 Bft) 98,08 %
04.07.2017 07:20 17,1 C 20,6 C 80 % 1019,7 hPa 0,0 l/m 6,0 km/h (2 Bft) S-SW 212 2 min 0,000 mm 0,5 UV-I 257 W/m 13,6 C 17,1 C 11,3 km/h (2 Bft) 94,44 %
04.07.2017 07:22 17,1 C 20,6 C 79 % 1019,7 hPa 0,0 l/m 6,8 km/h (2 Bft) SW 235 2 min 0,000 mm 0,6 UV-I 266 W/m 13,4 C 16,9 C 14,5 km/h (3 Bft) 93,22 %
04.07.2017 07:24 17,2 C 20,6 C 78 % 1019,7 hPa 0,0 l/m 6,7 km/h (2 Bft) S-SW 207 2 min 0,000 mm 0,6 UV-I 274 W/m 13,3 C 17,1 C 9,7 km/h (2 Bft) 95,74 %
04.07.2017 07:26 17,3 C 20,6 C 78 % 1019,8 hPa 0,0 l/m 6,3 km/h (2 Bft) SW 236 2 min 0,000 mm 0,6 UV-I 283 W/m 13,4 C 17,3 C 8,0 km/h (2 Bft) 94,74 %
04.07.2017 07:28 17,3 C 20,6 C 77 % 1019,8 hPa 0,0 l/m 6,2 km/h (2 Bft) W-SW 242 2 min 0,000 mm 0,6 UV-I 293 W/m 13,2 C 17,3 C 9,7 km/h (2 Bft) 96,23 %
04.07.2017 07:30 17,4 C 20,6 C 78 % 1019,7 hPa 0,0 l/m 7,0 km/h (2 Bft) S 175 2 min 0,000 mm 0,6 UV-I 304 W/m 13,5 C 17,1 C 12,9 km/h (3 Bft) 97,73 %
04.07.2017 07:32 17,5 C 20,6 C 77 % 1019,7 hPa 0,0 l/m 4,8 km/h (1 Bft) S 178 2 min 0,000 mm 0,7 UV-I 318 W/m 13,4 C 17,5 C 8,0 km/h (2 Bft) 98,00 %
04.07.2017 07:34 17,6 C 20,6 C 77 % 1019,7 hPa 0,0 l/m 7,1 km/h (2 Bft) W-SW 245 2 min 0,000 mm 0,7 UV-I 336 W/m 13,5 C 17,3 C 11,3 km/h (2 Bft) 100,00 %
04.07.2017 07:36 17,7 C 20,6 C 77 % 1019,7 hPa 0,0 l/m 6,6 km/h (2 Bft) S-SW 196 2 min 0,000 mm 0,7 UV-I 358 W/m 13,6 C 17,6 C 9,7 km/h (2 Bft) 92,00 %
04.07.2017 07:38 17,8 C 20,6 C 76 % 1019,7 hPa 0,0 l/m 5,8 km/h (2 Bft) SW 230 2 min 0,000 mm 0,8 UV-I 376 W/m 13,5 C 17,8 C 11,3 km/h (2 Bft) 97,37 %
04.07.2017 07:40 17,9 C 20,6 C 75 % 1019,7 hPa 0,0 l/m 8,2 km/h (2 Bft) W-SW 257 2 min 0,000 mm 0,8 UV-I 384 W/m 13,4 C 17,1 C 14,5 km/h (3 Bft) 94,34 %
04.07.2017 07:42 18,1 C 20,6 C 75 % 1019,7 hPa 0,0 l/m 5,8 km/h (2 Bft) W-SW 257 2 min 0,000 mm 0,8 UV-I 392 W/m 13,6 C 18,1 C 11,3 km/h (2 Bft) 98,11 %
04.07.2017 07:44 18,2 C 20,6 C 74 % 1019,7 hPa 0,0 l/m 4,8 km/h (1 Bft) SW 229 2 min 0,000 mm 0,8 UV-I 397 W/m 13,5 C 18,2 C 8,0 km/h (2 Bft) 100,00 %
04.07.2017 07:46 18,3 C 20,6 C 74 % 1019,7 hPa 0,0 l/m 7,3 km/h (2 Bft) W-SW 247 2 min 0,000 mm 0,8 UV-I 397 W/m 13,6 C 17,9 C 14,5 km/h (3 Bft) 91,07 %
04.07.2017 07:48 18,3 C 20,6 C 74 % 1019,7 hPa 0,0 l/m 8,8 km/h (2 Bft) W-SW 252 2 min 0,000 mm 0,9 UV-I 392 W/m 13,6 C 17,2 C 14,5 km/h (3 Bft) 100,00 %
04.07.2017 07:50 18,3 C 20,6 C 75 % 1019,7 hPa 0,0 l/m 7,1 km/h (2 Bft) W-SW 239 2 min 0,000 mm 0,9 UV-I 294 W/m 13,8 C 18,0 C 9,7 km/h (2 Bft) 94,00 %
04.07.2017 07:52 18,3 C 20,6 C 74 % 1019,7 hPa 0,0 l/m 4,0 km/h (1 Bft) SW 234 2 min 0,000 mm 0,9 UV-I 347 W/m 13,6 C 18,3 C 6,4 km/h (2 Bft) 100,00 %
04.07.2017 07:54 18,3 C 20,6 C 74 % 1019,7 hPa 0,0 l/m 6,4 km/h (2 Bft) W-SW 254 0 min 0,000 mm 0,9 UV-I 168 W/m 13,6 C 18,3 C 11,3 km/h (2 Bft) 96,00 %
04.07.2017 07:56 18,4 C 20,6 C 74 % 1019,8 hPa 0,0 l/m 9,5 km/h (2 Bft) W-SW 252 2 min 0,000 mm 1,0 UV-I 316 W/m 13,7 C 17,1 C 12,9 km/h (3 Bft) 100,00 %
04.07.2017 07:58 18,5 C 20,6 C 74 % 1019,7 hPa 0,0 l/m 6,9 km/h (2 Bft) W 262 2 min 0,000 mm 1,0 UV-I 378 W/m 13,8 C 18,3 C 11,3 km/h (2 Bft) 98,11 %
04.07.2017 08:00 18,6 C 20,6 C 74 % 1019,8 hPa 0,0 l/m 3,6 km/h (1 Bft) W-SW 254 2 min 0,000 mm 1,1 UV-I 394 W/m 13,9 C 18,6 C 6,4 km/h (2 Bft) 97,37 %
04.07.2017 08:02 18,9 C 20,6 C 73 % 1019,8 hPa 0,0 l/m 6,5 km/h (2 Bft) W-SW 258 2 min 0,177 mm 1,1 UV-I 424 W/m 13,9 C 18,9 C 14,5 km/h (3 Bft) 94,64 %
04.07.2017 08:04 18,9 C 20,6 C 71 % 1019,8 hPa 0,0 l/m 10,8 km/h (2 Bft) SW 221 2 min 0,000 mm 1,2 UV-I 448 W/m 13,5 C 17,1 C 14,5 km/h (3 Bft) 100,00 %
04.07.2017 08:06 19,0 C 20,6 C 71 % 1019,8 hPa 0,0 l/m 5,0 km/h (1 Bft) W-SW 240 2 min 0,000 mm 1,2 UV-I 451 W/m 13,6 C 19,0 C 9,7 km/h (2 Bft) 97,37 %
04.07.2017 08:08 19,2 C 20,6 C 70 % 1019,8 hPa 0,0 l/m 6,5 km/h (2 Bft) S-SW 192 2 min 0,000 mm 1,2 UV-I 424 W/m 13,6 C 19,2 C 11,3 km/h (2 Bft) 97,73 %
04.07.2017 08:10 19,2 C 20,6 C 69 % 1019,8 hPa 0,0 l/m 7,5 km/h (2 Bft) SW 219 0 min 0,000 mm 1,1 UV-I 213 W/m 13,4 C 18,7 C 12,9 km/h (3 Bft) 98,11 %
04.07.2017 08:12 19,2 C 20,6 C 70 % 1019,8 hPa 0,0 l/m 9,1 km/h (2 Bft) W-SW 248 0 min 0,000 mm 1,1 UV-I 230 W/m 13,6 C 18,1 C 12,9 km/h (3 Bft) 100,00 %
04.07.2017 08:14 19,2 C 20,6 C 70 % 1019,9 hPa 0,0 l/m 9,1 km/h (2 Bft) W-SW 257 0 min 0,000 mm 1,1 UV-I 230 W/m 13,6 C 18,1 C 14,5 km/h (3 Bft) 98,00 %
04.07.2017 08:16 19,1 C 20,6 C 70 % 1019,9 hPa 0,0 l/m 6,1 km/h (2 Bft) W-SW 255 0 min 0,000 mm 1,2 UV-I 251 W/m 13,5 C 19,1 C 12,9 km/h (3 Bft) 100,00 %
04.07.2017 08:18 19,2 C 20,6 C 71 % 1019,9 hPa 0,0 l/m 4,7 km/h (1 Bft) W-SW 238 2 min 0,000 mm 1,2 UV-I 405 W/m 13,8 C 19,2 C 8,0 km/h (2 Bft) 89,36 %
04.07.2017 08:20 19,3 C 20,6 C 71 % 1019,8 hPa 0,0 l/m 4,8 km/h (1 Bft) W 281 2 min 0,000 mm 1,4 UV-I 477 W/m 13,9 C 19,3 C 8,0 km/h (2 Bft) 100,00 %
04.07.2017 08:22 19,4 C 20,6 C 69 % 1019,9 hPa 0,0 l/m 3,9 km/h (1 Bft) W 272 2 min 0,000 mm 1,4 UV-I 384 W/m 13,6 C 19,4 C 8,0 km/h (2 Bft) 96,00 %
04.07.2017 08:24 19,4 C 20,6 C 70 % 1019,8 hPa 0,0 l/m 6,2 km/h (2 Bft) W 261 2 min 0,000 mm 1,4 UV-I 325 W/m 13,8 C 19,4 C 9,7 km/h (2 Bft) 100,00 %
04.07.2017 08:26 19,6 C 20,6 C 69 % 1019,9 hPa 0,0 l/m 5,3 km/h (1 Bft) SW 236 2 min 0,000 mm 1,3 UV-I 279 W/m 13,8 C 19,6 C 6,4 km/h (2 Bft) 96,23 %
04.07.2017 08:28 19,6 C 20,6 C 69 % 1019,8 hPa 0,0 l/m 3,7 km/h (1 Bft) W-SW 245 0 min 0,000 mm 1,4 UV-I 259 W/m 13,8 C 19,6 C 8,0 km/h (2 Bft) 93,62 %
04.07.2017 08:30 19,6 C 20,6 C 68 % 1019,9 hPa 0,0 l/m 4,5 km/h (1 Bft) W-SW 253 2 min 0,000 mm 1,4 UV-I 298 W/m 13,5 C 19,6 C 12,9 km/h (3 Bft) 100,00 %
04.07.2017 08:32 19,6 C 20,6 C 68 % 1019,9 hPa 0,0 l/m 11,1 km/h (2 Bft) SW 221 2 min 0,000 mm 1,5 UV-I 379 W/m 13,5 C 17,8 C 14,5 km/h (3 Bft) 98,00 %
04.07.2017 08:34 19,6 C 20,6 C 68 % 1019,9 hPa 0,0 l/m 4,3 km/h (1 Bft) W 272 2 min 0,000 mm 1,6 UV-I 384 W/m 13,5 C 19,6 C 6,4 km/h (2 Bft) 97,44 %
04.07.2017 08:36 19,7 C 20,6 C 68 % 1019,9 hPa 0,0 l/m 3,3 km/h (1 Bft) W-NW 296 2 min 0,000 mm 1,7 UV-I 503 W/m 13,6 C 19,7 C 4,8 km/h (1 Bft) 98,11 %
04.07.2017 08:38 19,8 C 20,6 C 67 % 1019,9 hPa 0,0 l/m 5,0 km/h (1 Bft) W 263 2 min 0,000 mm 1,7 UV-I 463 W/m 13,5 C 19,8 C 9,7 km/h (2 Bft) 93,18 %
04.07.2017 08:40 19,9 C 20,6 C 67 % 1019,9 hPa 0,0 l/m 3,9 km/h (1 Bft) W 275 2 min 0,000 mm 1,6 UV-I 410 W/m 13,6 C 19,9 C 6,4 km/h (2 Bft) 100,00 %
04.07.2017 08:42 20,1 C 20,6 C 68 % 1019,9 hPa 0,0 l/m 3,7 km/h (1 Bft) W 271 2 min 0,000 mm 1,4 UV-I 324 W/m 14,0 C 20,1 C 9,7 km/h (2 Bft) 94,74 %
04.07.2017 08:44 20,1 C 20,6 C 67 % 1019,9 hPa 0,0 l/m 5,1 km/h (1 Bft) W 273 2 min 0,000 mm 1,4 UV-I 301 W/m 13,8 C 20,1 C 11,3 km/h (2 Bft) 96,23 %
04.07.2017 08:46 20,0 C 20,6 C 66 % 1019,9 hPa 0,0 l/m 8,2 km/h (2 Bft) W 269 2 min 0,000 mm 1,4 UV-I 311 W/m 13,4 C 19,3 C 14,5 km/h (3 Bft) 96,00 %
04.07.2017 08:48 20,0 C 20,6 C 66 % 1019,9 hPa 0,0 l/m 8,4 km/h (2 Bft) W-SW 251 2 min 0,000 mm 1,4 UV-I 323 W/m 13,4 C 19,2 C 14,5 km/h (3 Bft) 91,43 %
04.07.2017 08:50 20,1 C 20,6 C 67 % 1019,9 hPa 0,0 l/m 4,1 km/h (1 Bft) W 259 2 min 0,000 mm 1,4 UV-I 312 W/m 13,8 C 20,1 C 9,7 km/h (2 Bft) 95,74 %
04.07.2017 08:52 20,1 C 20,6 C 65 % 1019,9 hPa 0,0 l/m 7,0 km/h (2 Bft) W 269 0 min 0,000 mm 1,3 UV-I 292 W/m 13,3 C 19,9 C 11,3 km/h (2 Bft) 94,00 %
04.07.2017 08:54 20,2 C 20,6 C 66 % 1019,9 hPa 0,0 l/m 3,5 km/h (1 Bft) W 279 0 min 0,000 mm 1,3 UV-I 295 W/m 13,6 C 20,2 C 6,4 km/h (2 Bft) 90,57 %
04.07.2017 08:56 20,2 C 20,6 C 66 % 1020,0 hPa 0,0 l/m 1,5 km/h (1 Bft) NW 321 0 min 0,000 mm 1,3 UV-I 283 W/m 13,6 C 20,2 C 4,8 km/h (1 Bft) 94,74 %
04.07.2017 08:58 20,3 C 20,6 C 66 % 1020,0 hPa 0,0 l/m 1,4 km/h (1 Bft) NW 323 0 min 0,000 mm 1,2 UV-I 258 W/m 13,7 C 20,3 C 4,8 km/h (1 Bft) 92,45 %
04.07.2017 09:00 20,3 C 20,6 C 67 % 1020,0 hPa 0,0 l/m 2,0 km/h (1 Bft) N-NW 328 0 min 0,229 mm 1,2 UV-I 250 W/m 14,0 C 20,3 C 4,8 km/h (1 Bft) 93,62 %
04.07.2017 09:02 20,2 C 20,6 C 68 % 1020,0 hPa 0,0 l/m 2,9 km/h (1 Bft) SW 223 0 min 0,000 mm 1,2 UV-I 246 W/m 14,1 C 20,2 C 6,4 km/h (2 Bft) 93,62 %
04.07.2017 09:04 20,2 C 20,6 C 67 % 1020,1 hPa 0,0 l/m 5,0 km/h (1 Bft) W-SW 237 0 min 0,000 mm 1,1 UV-I 231 W/m 13,9 C 20,2 C 9,7 km/h (2 Bft) 97,87 %
04.07.2017 09:06 20,2 C 20,6 C 66 % 1020,1 hPa 0,0 l/m 2,5 km/h (1 Bft) W 272 0 min 0,000 mm 1,2 UV-I 225 W/m 13,6 C 20,2 C 4,8 km/h (1 Bft) 92,68 %
04.07.2017 09:08 20,2 C 20,6 C 68 % 1020,1 hPa 0,0 l/m 4,9 km/h (1 Bft) W 259 0 min 0,000 mm 1,3 UV-I 242 W/m 14,1 C 20,2 C 9,7 km/h (2 Bft) 96,00 %
04.07.2017 09:10 20,2 C 20,6 C 66 % 1020,1 hPa 0,0 l/m 11,3 km/h (2 Bft) W-SW 244 0 min 0,000 mm 1,4 UV-I 269 W/m 13,6 C 18,5 C 16,1 km/h (3 Bft) 90,48 %
04.07.2017 09:12 20,1 C 20,6 C 66 % 1020,1 hPa 0,0 l/m 7,4 km/h (2 Bft) SW 234 0 min 0,000 mm 1,4 UV-I 307 W/m 13,5 C 19,7 C 12,9 km/h (3 Bft) 92,73 %
04.07.2017 09:14 20,1 C 20,6 C 65 % 1020,1 hPa 0,0 l/m 6,8 km/h (2 Bft) W 273 0 min 0,000 mm 1,4 UV-I 273 W/m 13,3 C 19,9 C 16,1 km/h (3 Bft) 93,62 %
04.07.2017 09:16 20,0 C 20,6 C 65 % 1020,1 hPa 0,0 l/m 11,9 km/h (2 Bft) W 259 0 min 0,000 mm 1,6 UV-I 266 W/m 13,2 C 18,1 C 16,1 km/h (3 Bft) 97,22 %
04.07.2017 09:18 20,0 C 20,6 C 65 % 1020,1 hPa 0,0 l/m 10,7 km/h (2 Bft) W-SW 249 0 min 0,000 mm 1,7 UV-I 284 W/m 13,2 C 18,4 C 17,7 km/h (3 Bft) 92,86 %
04.07.2017 09:20 20,0 C 20,6 C 66 % 1020,0 hPa 0,0 l/m 8,1 km/h (2 Bft) W-SW 244 2 min 0,000 mm 2,0 UV-I 369 W/m 13,4 C 19,3 C 12,9 km/h (3 Bft) 97,87 %
04.07.2017 09:22 20,1 C 21,1 C 65 % 1020,1 hPa 0,0 l/m 10,9 km/h (2 Bft) SW 226 2 min 0,000 mm 2,2 UV-I 472 W/m 13,3 C 18,5 C 17,7 km/h (3 Bft) 97,37 %
04.07.2017 09:24 20,2 C 21,1 C 66 % 1020,1 hPa 0,0 l/m 6,9 km/h (2 Bft) S-SW 199 2 min 0,000 mm 2,4 UV-I 512 W/m 13,6 C 20,0 C 11,3 km/h (2 Bft) 96,43 %
04.07.2017 09:26 20,4 C 21,1 C 65 % 1020,1 hPa 0,0 l/m 9,0 km/h (2 Bft) W-SW 250 2 min 0,000 mm 2,8 UV-I 630 W/m 13,6 C 19,4 C 14,5 km/h (3 Bft) 97,73 %
04.07.2017 09:28 20,7 C 21,1 C 65 % 1020,1 hPa 0,0 l/m 10,6 km/h (2 Bft) W-SW 257 2 min 0,000 mm 3,0 UV-I 790 W/m 13,9 C 19,2 C 14,5 km/h (3 Bft) 94,34 %
04.07.2017 09:30 20,8 C 21,1 C 64 % 1020,1 hPa 0,0 l/m 9,1 km/h (2 Bft) W 269 2 min 0,000 mm 2,9 UV-I 639 W/m 13,7 C 19,8 C 14,5 km/h (3 Bft) 97,73 %
04.07.2017 09:32 20,8 C 21,1 C 64 % 1020,1 hPa 0,0 l/m 8,5 km/h (2 Bft) W 266 2 min 0,000 mm 2,7 UV-I 589 W/m 13,7 C 20,0 C 12,9 km/h (3 Bft) 95,45 %
04.07.2017 09:34 20,8 C 21,1 C 64 % 1020,1 hPa 0,0 l/m 5,8 km/h (2 Bft) SW 229 2 min 0,000 mm 2,4 UV-I 445 W/m 13,7 C 20,8 C 9,7 km/h (2 Bft) 94,00 %
04.07.2017 09:36 20,8 C 21,1 C 64 % 1020,1 hPa 0,0 l/m 8,4 km/h (2 Bft) W-SW 254 2 min 0,000 mm 2,4 UV-I 449 W/m 13,7 C 20,0 C 14,5 km/h (3 Bft) 98,00 %
04.07.2017 09:38 20,9 C 21,1 C 63 % 1020,0 hPa 0,0 l/m 10,1 km/h (2 Bft) SW 229 2 min 0,000 mm 2,4 UV-I 458 W/m 13,6 C 19,6 C 19,3 km/h (3 Bft) 92,68 %
04.07.2017 09:40 20,9 C 21,1 C 63 % 1020,1 hPa 0,0 l/m 9,5 km/h (2 Bft) S-SW 213 2 min 0,000 mm 2,7 UV-I 464 W/m 13,6 C 19,8 C 16,1 km/h (3 Bft) 95,12 %
04.07.2017 09:42 20,9 C 21,1 C 64 % 1020,1 hPa 0,0 l/m 8,0 km/h (2 Bft) SW 229 2 min 0,000 mm 2,3 UV-I 431 W/m 13,8 C 20,3 C 17,7 km/h (3 Bft) 95,45 %
04.07.2017 09:44 20,9 C 21,1 C 62 % 1020,0 hPa 0,0 l/m 11,9 km/h (2 Bft) S-SW 200 2 min 0,000 mm 2,2 UV-I 376 W/m 13,3 C 19,1 C 17,7 km/h (3 Bft) 96,00 %
04.07.2017 09:46 20,8 C 21,1 C 63 % 1020,1 hPa 0,0 l/m 9,7 km/h (2 Bft) S-SW 205 2 min 0,000 mm 2,3 UV-I 382 W/m 13,5 C 19,6 C 12,9 km/h (3 Bft) 98,00 %
04.07.2017 09:48 20,8 C 21,1 C 64 % 1020,1 hPa 0,0 l/m 8,4 km/h (2 Bft) S-SW 209 2 min 0,000 mm 2,4 UV-I 408 W/m 13,7 C 20,0 C 11,3 km/h (2 Bft) 97,87 %
04.07.2017 09:50 20,8 C 21,1 C 64 % 1020,1 hPa 0,0 l/m 7,7 km/h (2 Bft) W-NW 294 2 min 0,000 mm 2,8 UV-I 491 W/m 13,7 C 20,3 C 14,5 km/h (3 Bft) 98,00 %
04.07.2017 09:52 21,0 C 21,1 C 64 % 1020,1 hPa 0,0 l/m 6,7 km/h (2 Bft) S-SW 195 2 min 0,000 mm 3,1 UV-I 681 W/m 13,9 C 20,9 C 16,1 km/h (3 Bft) 100,00 %
04.07.2017 09:54 21,1 C 21,1 C 63 % 1020,0 hPa 0,0 l/m 9,1 km/h (2 Bft) W 269 2 min 0,000 mm 2,7 UV-I 615 W/m 13,8 C 20,1 C 16,1 km/h (3 Bft) 98,21 %
04.07.2017 09:56 21,1 C 21,1 C 63 % 1020,1 hPa 0,0 l/m 8,7 km/h (2 Bft) SW 220 2 min 0,000 mm 2,7 UV-I 424 W/m 13,8 C 20,3 C 14,5 km/h (3 Bft) 100,00 %
04.07.2017 09:58 20,9 C 21,1 C 63 % 1020,1 hPa 0,0 l/m 8,3 km/h (2 Bft) SW 226 2 min 0,000 mm 2,7 UV-I 395 W/m 13,6 C 20,2 C 14,5 km/h (3 Bft) 100,00 %
04.07.2017 10:00 20,9 C 21,1 C 63 % 1020,1 hPa 0,0 l/m 11,6 km/h (2 Bft) W-SW 249 0 min 0,279 mm 2,7 UV-I 379 W/m 13,6 C 19,2 C 16,1 km/h (3 Bft) 100,00 %
04.07.2017 10:02 20,8 C 21,1 C 64 % 1020,1 hPa 0,0 l/m 8,8 km/h (2 Bft) SW 225 2 min 0,000 mm 2,8 UV-I 406 W/m 13,7 C 19,9 C 12,9 km/h (3 Bft) 100,00 %
04.07.2017 10:04 20,8 C 21,1 C 63 % 1020,1 hPa 0,0 l/m 8,6 km/h (2 Bft) SW 223 2 min 0,000 mm 3,0 UV-I 456 W/m 13,5 C 20,0 C 12,9 km/h (3 Bft) 100,00 %
04.07.2017 10:06 20,8 C 21,1 C 63 % 1020,0 hPa 0,0 l/m 9,5 km/h (2 Bft) S-SW 211 2 min 0,000 mm 3,2 UV-I 513 W/m 13,5 C 19,7 C 14,5 km/h (3 Bft) 97,56 %
04.07.2017 10:08 20,9 C 21,1 C 64 % 1020,0 hPa 0,0 l/m 12,6 km/h (3 Bft) W-SW 240 2 min 0,000 mm 3,5 UV-I 569 W/m 13,8 C 18,9 C 17,7 km/h (3 Bft) 98,00 %
04.07.2017 10:10 21,1 C 21,1 C 63 % 1020,1 hPa 0,0 l/m 9,7 km/h (2 Bft) W 277 2 min 0,000 mm 3,2 UV-I 485 W/m 13,8 C 19,9 C 14,5 km/h (3 Bft) 100,00 %
04.07.2017 10:12 21,2 C 21,1 C 62 % 1020,0 hPa 0,0 l/m 6,9 km/h (2 Bft) SW 227 2 min 0,000 mm 3,2 UV-I 477 W/m 13,6 C 21,0 C 12,9 km/h (3 Bft) 98,00 %
04.07.2017 10:14 21,2 C 21,1 C 63 % 1020,0 hPa 0,0 l/m 9,4 km/h (2 Bft) W 261 2 min 0,000 mm 3,2 UV-I 491 W/m 13,9 C 20,1 C 16,1 km/h (3 Bft) 97,87 %
04.07.2017 10:16 21,3 C 21,1 C 63 % 1020,0 hPa 0,0 l/m 7,9 km/h (2 Bft) S-SW 209 2 min 0,000 mm 3,2 UV-I 466 W/m 14,0 C 20,8 C 12,9 km/h (3 Bft) 97,37 %
04.07.2017 10:18 21,4 C 21,1 C 63 % 1020,0 hPa 0,0 l/m 7,6 km/h (2 Bft) W 263 2 min 0,000 mm 3,3 UV-I 492 W/m 14,1 C 21,0 C 16,1 km/h (3 Bft) 100,00 %
04.07.2017 10:20 21,4 C 21,1 C 61 % 1020,0 hPa 0,0 l/m 8,1 km/h (2 Bft) W-NW 290 2 min 0,000 mm 3,2 UV-I 489 W/m 13,6 C 20,8 C 12,9 km/h (3 Bft) 98,31 %
04.07.2017 10:22 21,5 C 21,1 C 62 % 1020,0 hPa 0,0 l/m 6,3 km/h (2 Bft) S 171 2 min 0,000 mm 3,3 UV-I 504 W/m 13,9 C 21,5 C 9,7 km/h (2 Bft) 100,00 %
04.07.2017 10:24 21,6 C 21,1 C 61 % 1020,0 hPa 0,0 l/m 11,5 km/h (2 Bft) W-SW 251 2 min 0,000 mm 3,4 UV-I 568 W/m 13,7 C 20,0 C 19,3 km/h (3 Bft) 96,36 %
04.07.2017 10:26 21,6 C 21,1 C 61 % 1019,9 hPa 0,0 l/m 11,0 km/h (2 Bft) W-SW 237 2 min 0,000 mm 3,5 UV-I 656 W/m 13,7 C 20,1 C 17,7 km/h (3 Bft) 98,11 %
04.07.2017 10:28 21,6 C 21,1 C 60 % 1019,9 hPa 0,0 l/m 11,2 km/h (2 Bft) S-SW 202 2 min 0,000 mm 2,7 UV-I 436 W/m 13,5 C 20,1 C 20,9 km/h (4 Bft) 100,00 %
04.07.2017 10:30 21,6 C 21,1 C 60 % 1020,0 hPa 0,0 l/m 9,1 km/h (2 Bft) W-SW 250 2 min 0,000 mm 2,5 UV-I 460 W/m 13,5 C 20,7 C 14,5 km/h (3 Bft) 98,00 %
04.07.2017 10:32 21,6 C 21,1 C 60 % 1020,0 hPa 0,0 l/m 10,7 km/h (2 Bft) SW 220 0 min 0,000 mm 2,4 UV-I 330 W/m 13,5 C 20,2 C 17,7 km/h (3 Bft) 100,00 %
04.07.2017 10:34 21,6 C 21,1 C 61 % 1019,9 hPa 0,0 l/m 9,4 km/h (2 Bft) SW 231 2 min 0,000 mm 3,1 UV-I 422 W/m 13,7 C 20,6 C 19,3 km/h (3 Bft) 95,45 %
04.07.2017 10:36 21,7 C 21,1 C 61 % 1020,0 hPa 0,0 l/m 10,7 km/h (2 Bft) SW 220 2 min 0,000 mm 3,9 UV-I 510 W/m 13,8 C 20,3 C 17,7 km/h (3 Bft) 98,11 %
04.07.2017 10:38 21,8 C 21,1 C 61 % 1019,9 hPa 0,0 l/m 10,9 km/h (2 Bft) SW 219 2 min 0,000 mm 3,5 UV-I 533 W/m 13,9 C 20,4 C 16,1 km/h (3 Bft) 97,87 %
04.07.2017 10:40 21,9 C 21,1 C 60 % 1020,0 hPa 0,0 l/m 10,5 km/h (2 Bft) SW 215 2 min 0,000 mm 3,2 UV-I 469 W/m 13,8 C 20,6 C 17,7 km/h (3 Bft) 100,00 %
04.07.2017 10:42 21,9 C 21,1 C 60 % 1020,0 hPa 0,0 l/m 11,0 km/h (2 Bft) SW 236 0 min 0,000 mm 2,8 UV-I 404 W/m 13,8 C 20,5 C 17,7 km/h (3 Bft) 98,00 %
04.07.2017 10:44 21,8 C 21,1 C 60 % 1020,0 hPa 0,0 l/m 12,7 km/h (3 Bft) W-SW 248 0 min 0,000 mm 2,5 UV-I 365 W/m 13,7 C 19,9 C 17,7 km/h (3 Bft) 95,74 %
04.07.2017 10:46 21,7 C 21,1 C 60 % 1020,0 hPa 0,0 l/m 9,9 km/h (2 Bft) S-SW 198 0 min 0,000 mm 2,3 UV-I 335 W/m 13,6 C 20,5 C 14,5 km/h (3 Bft) 98,11 %
04.07.2017 10:48 21,6 C 21,1 C 59 % 1019,9 hPa 0,0 l/m 11,1 km/h (2 Bft) S-SW 207 0 min 0,000 mm 2,1 UV-I 309 W/m 13,2 C 20,1 C 19,3 km/h (3 Bft) 94,74 %
04.07.2017 10:50 21,5 C 21,1 C 60 % 1019,9 hPa 0,0 l/m 5,0 km/h (1 Bft) W-SW 239 0 min 0,000 mm 1,8 UV-I 268 W/m 13,4 C 21,5 C 11,3 km/h (2 Bft) 97,87 %
04.07.2017 10:52 21,5 C 21,1 C 61 % 1020,0 hPa 0,0 l/m 7,6 km/h (2 Bft) W 278 0 min 0,000 mm 1,6 UV-I 230 W/m 13,7 C 21,1 C 14,5 km/h (3 Bft) 95,45 %
04.07.2017 10:54 21,5 C 21,1 C 61 % 1019,9 hPa 0,0 l/m 10,9 km/h (2 Bft) S-SW 202 0 min 0,000 mm 1,6 UV-I 226 W/m 13,7 C 20,0 C 16,1 km/h (3 Bft) 98,21 %
04.07.2017 10:56 21,4 C 21,1 C 61 % 1020,0 hPa 0,0 l/m 11,5 km/h (2 Bft) W 261 0 min 0,000 mm 1,7 UV-I 236 W/m 13,6 C 19,8 C 17,7 km/h (3 Bft) 94,00 %
04.07.2017 10:58 21,4 C 21,1 C 60 % 1020,1 hPa 0,0 l/m 13,0 km/h (3 Bft) W-SW 242 0 min 0,000 mm 2,0 UV-I 258 W/m 13,3 C 19,4 C 20,9 km/h (4 Bft) 97,56 %
04.07.2017 11:00 21,4 C 21,1 C 60 % 1020,1 hPa 0,0 l/m 7,9 km/h (2 Bft) SW 224 0 min 0,305 mm 2,1 UV-I 267 W/m 13,3 C 20,9 C 11,3 km/h (2 Bft) 96,23 %
04.07.2017 11:02 21,4 C 21,1 C 60 % 1020,1 hPa 0,0 l/m 5,9 km/h (2 Bft) W-SW 249 0 min 0,000 mm 2,2 UV-I 262 W/m 13,3 C 21,4 C 9,7 km/h (2 Bft) 97,87 %
04.07.2017 11:04 21,4 C 21,1 C 60 % 1020,0 hPa 0,0 l/m 6,0 km/h (2 Bft) SW 225 0 min 0,000 mm 2,2 UV-I 259 W/m 13,3 C 21,4 C 11,3 km/h (2 Bft) 95,45 %
04.07.2017 11:06 21,4 C 21,1 C 62 % 1020,1 hPa 0,0 l/m 9,3 km/h (2 Bft) S-SW 213 0 min 0,000 mm 2,4 UV-I 264 W/m 13,8 C 20,4 C 17,7 km/h (3 Bft) 97,56 %
04.07.2017 11:08 21,4 C 21,1 C 61 % 1020,1 hPa 0,0 l/m 9,1 km/h (2 Bft) SW 232 0 min 0,000 mm 2,6 UV-I 268 W/m 13,6 C 20,5 C 16,1 km/h (3 Bft) 96,23 %
04.07.2017 11:10 21,4 C 21,1 C 60 % 1020,0 hPa 0,0 l/m 12,6 km/h (3 Bft) S-SW 205 0 min 0,000 mm 2,8 UV-I 282 W/m 13,3 C 19,5 C 19,3 km/h (3 Bft) 95,45 %
04.07.2017 11:12 21,4 C 21,1 C 60 % 1020,0 hPa 0,0 l/m 7,5 km/h (2 Bft) W-SW 241 0 min 0,000 mm 3,2 UV-I 341 W/m 13,3 C 21,0 C 14,5 km/h (3 Bft) 97,92 %
04.07.2017 11:14 21,6 C 21,1 C 61 % 1020,0 hPa 0,0 l/m 6,0 km/h (2 Bft) SW 234 0 min 0,000 mm 4,0 UV-I 417 W/m 13,7 C 21,6 C 8,0 km/h (2 Bft) 93,62 %
04.07.2017 11:16 21,9 C 21,1 C 60 % 1019,9 hPa 0,0 l/m 4,1 km/h (1 Bft) W-SW 246 2 min 0,000 mm 3,8 UV-I 610 W/m 13,8 C 21,9 C 8,0 km/h (2 Bft) 98,00 %
04.07.2017 11:18 22,1 C 21,1 C 58 % 1019,9 hPa 0,0 l/m 10,5 km/h (2 Bft) W-SW 248 2 min 0,000 mm 4,9 UV-I 638 W/m 13,4 C 20,8 C 19,3 km/h (3 Bft) 100,00 %
04.07.2017 11:20 22,2 C 21,1 C 58 % 1019,9 hPa 0,0 l/m 9,7 km/h (2 Bft) SW 229 2 min 0,000 mm 4,9 UV-I 638 W/m 13,5 C 21,2 C 14,5 km/h (3 Bft) 98,21 %
04.07.2017 11:22 22,4 C 21,1 C 60 % 1019,9 hPa 0,0 l/m 9,2 km/h (2 Bft) W-SW 252 2 min 0,000 mm 5,2 UV-I 836 W/m 14,2 C 21,5 C 14,5 km/h (3 Bft) 93,18 %
04.07.2017 11:24 22,7 C 21,1 C 59 % 1019,9 hPa 0,0 l/m 14,0 km/h (3 Bft) S 175 2 min 0,000 mm 5,2 UV-I 862 W/m 14,3 C 20,7 C 22,5 km/h (4 Bft) 96,55 %
04.07.2017 11:26 22,7 C 21,1 C 56 % 1019,8 hPa 0,0 l/m 13,3 km/h (3 Bft) S-SW 202 2 min 0,000 mm 5,5 UV-I 816 W/m 13,5 C 20,9 C 22,5 km/h (4 Bft) 98,53 %
04.07.2017 11:28 22,8 C 21,1 C 56 % 1019,9 hPa 0,0 l/m 16,1 km/h (3 Bft) SW 215 2 min 0,000 mm 5,8 UV-I 815 W/m 13,6 C 20,4 C 22,5 km/h (4 Bft) 95,65 %
04.07.2017 11:30 22,7 C 21,1 C 55 % 1019,8 hPa 0,0 l/m 11,8 km/h (2 Bft) S-SW 210 2 min 0,000 mm 6,3 UV-I 1031 W/m 13,2 C 21,2 C 19,3 km/h (3 Bft) 97,18 %
04.07.2017 11:32 22,7 C 21,1 C 56 % 1019,8 hPa 0,0 l/m 11,7 km/h (2 Bft) SW 236 2 min 0,000 mm 4,9 UV-I 1055 W/m 13,5 C 21,2 C 17,7 km/h (3 Bft) 100,00 %
04.07.2017 11:34 23,1 C 21,1 C 57 % 1019,7 hPa 0,0 l/m 9,5 km/h (2 Bft) W-SW 240 2 min 0,000 mm 6,0 UV-I 1031 W/m 14,1 C 22,2 C 17,7 km/h (3 Bft) 98,11 %
04.07.2017 11:36 23,3 C 21,1 C 56 % 1019,8 hPa 0,0 l/m 16,2 km/h (3 Bft) S-SW 203 2 min 0,000 mm 6,1 UV-I 1018 W/m 14,0 C 21,0 C 24,1 km/h (4 Bft) 100,00 %
04.07.2017 11:38 23,3 C 21,1 C 55 % 1019,8 hPa 0,0 l/m 14,0 km/h (3 Bft) W-SW 254 2 min 0,000 mm 5,9 UV-I 1026 W/m 13,7 C 21,4 C 22,5 km/h (4 Bft) 98,11 %
04.07.2017 11:40 23,3 C 21,1 C 54 % 1019,8 hPa 0,0 l/m 13,1 km/h (3 Bft) S-SW 204 2 min 0,000 mm 5,2 UV-I 1052 W/m 13,5 C 21,6 C 20,9 km/h (4 Bft) 100,00 %
04.07.2017 11:42 23,2 C 21,1 C 53 % 1019,7 hPa 0,0 l/m 8,4 km/h (2 Bft) W-NW 287 2 min 0,000 mm 3,7 UV-I 555 W/m 13,1 C 22,6 C 16,1 km/h (3 Bft) 96,43 %
04.07.2017 11:44 23,0 C 21,1 C 54 % 1019,7 hPa 0,0 l/m 6,9 km/h (2 Bft) W 269 0 min 0,000 mm 4,6 UV-I 243 W/m 13,2 C 22,8 C 12,9 km/h (3 Bft) 97,37 %
04.07.2017 11:46 23,1 C 21,1 C 54 % 1019,7 hPa 0,0 l/m 11,0 km/h (2 Bft) W 263 2 min 0,000 mm 5,9 UV-I 953 W/m 13,3 C 21,8 C 17,7 km/h (3 Bft) 100,00 %
04.07.2017 11:48 23,2 C 21,1 C 54 % 1019,6 hPa 0,0 l/m 9,3 km/h (2 Bft) W 266 2 min 0,000 mm 6,5 UV-I 1013 W/m 13,4 C 22,4 C 16,1 km/h (3 Bft) 94,00 %
04.07.2017 11:50 23,4 C 21,1 C 50 % 1019,6 hPa 0,0 l/m 15,2 km/h (3 Bft) S-SW 207 2 min 0,000 mm 5,5 UV-I 982 W/m 12,4 C 21,3 C 24,1 km/h (4 Bft) 100,00 %
04.07.2017 11:52 23,5 C 21,1 C 51 % 1019,6 hPa 0,0 l/m 9,6 km/h (2 Bft) W 259 2 min 0,000 mm 6,7 UV-I 1057 W/m 12,8 C 22,6 C 17,7 km/h (3 Bft) 100,00 %
04.07.2017 11:54 23,7 C 21,1 C 50 % 1019,7 hPa 0,0 l/m 16,3 km/h (3 Bft) W 264 2 min 0,000 mm 6,2 UV-I 1090 W/m 12,6 C 21,5 C 24,1 km/h (4 Bft) 97,56 %
04.07.2017 11:56 23,6 C 21,1 C 49 % 1019,7 hPa 0,0 l/m 16,6 km/h (3 Bft) W-SW 252 2 min 0,000 mm 4,6 UV-I 473 W/m 12,2 C 21,3 C 22,5 km/h (4 Bft) 97,87 %
04.07.2017 11:58 23,5 C 21,1 C 49 % 1019,6 hPa 0,0 l/m 12,5 km/h (3 Bft) W-SW 250 2 min 0,000 mm 6,8 UV-I 1057 W/m 12,2 C 22,0 C 19,3 km/h (3 Bft) 100,00 %
04.07.2017 12:00 23,5 C 21,1 C 49 % 1019,6 hPa 0,0 l/m 12,1 km/h (2 Bft) W 275 2 min 0,508 mm 6,0 UV-I 1139 W/m 12,2 C 22,0 C 16,1 km/h (3 Bft) 96,00 %
04.07.2017 12:02 23,6 C 21,1 C 49 % 1019,5 hPa 0,0 l/m 11,9 km/h (2 Bft) W-SW 240 2 min 0,000 mm 5,1 UV-I 1100 W/m 12,2 C 22,2 C 19,3 km/h (3 Bft) 100,00 %
04.07.2017 12:04 23,7 C 21,1 C 49 % 1019,5 hPa 0,0 l/m 17,5 km/h (3 Bft) W-SW 242 2 min 0,000 mm 5,2 UV-I 1124 W/m 12,3 C 21,3 C 25,7 km/h (4 Bft) 97,56 %
04.07.2017 12:06 23,6 C 21,1 C 48 % 1019,5 hPa 0,0 l/m 10,3 km/h (2 Bft) SW 233 2 min 0,000 mm 3,6 UV-I 548 W/m 11,9 C 22,5 C 17,7 km/h (3 Bft) 98,11 %
04.07.2017 12:08 23,6 C 21,1 C 48 % 1019,4 hPa 0,0 l/m 15,1 km/h (3 Bft) W-SW 258 0 min 0,000 mm 4,8 UV-I 292 W/m 11,9 C 21,6 C 22,5 km/h (4 Bft) 100,00 %
04.07.2017 12:10 23,8 C 21,1 C 49 % 1019,5 hPa 0,0 l/m 8,8 km/h (2 Bft) W 265 2 min 0,000 mm 7,0 UV-I 1019 W/m 12,4 C 23,1 C 16,1 km/h (3 Bft) 97,56 %
04.07.2017 12:12 24,2 C 21,7 C 48 % 1019,4 hPa 0,0 l/m 11,1 km/h (2 Bft) S-SW 204 2 min 0,000 mm 6,9 UV-I 1091 W/m 12,5 C 23,0 C 19,3 km/h (3 Bft) 94,64 %
04.07.2017 12:14 24,3 C 21,1 C 46 % 1019,4 hPa 0,0 l/m 16,5 km/h (3 Bft) SW 226 2 min 0,000 mm 4,7 UV-I 899 W/m 11,9 C 22,2 C 25,7 km/h (4 Bft) 91,67 %
04.07.2017 12:16 24,0 C 21,1 C 46 % 1019,4 hPa 0,0 l/m 16,7 km/h (3 Bft) SW 229 0 min 0,000 mm 3,7 UV-I 366 W/m 11,7 C 21,8 C 22,5 km/h (4 Bft) 95,31 %
04.07.2017 12:18 23,6 C 21,1 C 47 % 1019,4 hPa 0,0 l/m 17,1 km/h (3 Bft) W-SW 242 0 min 0,000 mm 3,5 UV-I 361 W/m 11,6 C 21,3 C 25,7 km/h (4 Bft) 100,00 %
04.07.2017 12:20 23,3 C 21,1 C 49 % 1019,4 hPa 0,0 l/m 11,6 km/h (2 Bft) W-SW 238 0 min 0,000 mm 3,4 UV-I 379 W/m 12,0 C 21,9 C 16,1 km/h (3 Bft) 90,57 %
04.07.2017 12:22 23,2 C 21,1 C 49 % 1019,4 hPa 0,0 l/m 10,1 km/h (2 Bft) S-SW 195 0 min 0,000 mm 3,5 UV-I 418 W/m 11,9 C 22,2 C 17,7 km/h (3 Bft) 90,91 %
04.07.2017 12:24 23,2 C 21,1 C 50 % 1019,4 hPa 0,0 l/m 12,7 km/h (3 Bft) S-SW 205 2 min 0,000 mm 4,9 UV-I 585 W/m 12,2 C 21,6 C 20,9 km/h (4 Bft) 94,64 %
04.07.2017 12:26 23,3 C 21,1 C 50 % 1019,4 hPa 0,0 l/m 9,9 km/h (2 Bft) S 184 0 min 0,000 mm 3,5 UV-I 452 W/m 12,3 C 22,3 C 14,5 km/h (3 Bft) 97,73 %
04.07.2017 12:28 23,3 C 21,1 C 51 % 1019,4 hPa 0,0 l/m 9,3 km/h (2 Bft) S-SW 193 0 min 0,000 mm 3,3 UV-I 422 W/m 12,6 C 22,5 C 16,1 km/h (3 Bft) 97,44 %
04.07.2017 12:30 23,4 C 21,1 C 51 % 1019,3 hPa 0,0 l/m 10,9 km/h (2 Bft) W-SW 244 0 min 0,000 mm 3,6 UV-I 394 W/m 12,7 C 22,2 C 14,5 km/h (3 Bft) 98,11 %
04.07.2017 12:32 23,3 C 21,1 C 50 % 1019,4 hPa 0,0 l/m 13,0 km/h (3 Bft) SW 223 0 min 0,000 mm 2,6 UV-I 323 W/m 12,3 C 21,6 C 19,3 km/h (3 Bft) 97,73 %
04.07.2017 12:34 23,2 C 21,1 C 51 % 1019,4 hPa 0,0 l/m 13,0 km/h (3 Bft) W-SW 258 0 min 0,000 mm 2,3 UV-I 285 W/m 12,5 C 21,5 C 19,3 km/h (3 Bft) 91,07 %
04.07.2017 12:36 23,2 C 21,1 C 52 % 1019,3 hPa 0,0 l/m 9,7 km/h (2 Bft) W-SW 252 0 min 0,000 mm 2,1 UV-I 268 W/m 12,8 C 22,3 C 16,1 km/h (3 Bft) 94,74 %
04.07.2017 12:38 23,1 C 21,1 C 51 % 1019,3 hPa 0,0 l/m 11,4 km/h (2 Bft) S-SW 209 0 min 0,000 mm 2,2 UV-I 271 W/m 12,4 C 21,7 C 17,7 km/h (3 Bft) 94,34 %
04.07.2017 12:40 22,9 C 21,1 C 51 % 1019,3 hPa 0,0 l/m 11,1 km/h (2 Bft) W-SW 248 0 min 0,000 mm 2,5 UV-I 292 W/m 12,2 C 21,6 C 19,3 km/h (3 Bft) 95,12 %
04.07.2017 12:42 22,9 C 21,7 C 52 % 1019,3 hPa 0,0 l/m 12,3 km/h (3 Bft) W 259 0 min 0,000 mm 2,9 UV-I 334 W/m 12,5 C 21,3 C 17,7 km/h (3 Bft) 94,34 %
04.07.2017 12:44 22,9 C 21,1 C 52 % 1019,3 hPa 0,0 l/m 12,6 km/h (3 Bft) W-SW 240 0 min 0,000 mm 3,4 UV-I 407 W/m 12,5 C 21,2 C 17,7 km/h (3 Bft) 95,12 %
04.07.2017 12:46 23,0 C 21,7 C 52 % 1019,3 hPa 0,0 l/m 12,1 km/h (2 Bft) W-NW 295 0 min 0,000 mm 3,6 UV-I 429 W/m 12,6 C 21,5 C 17,7 km/h (3 Bft) 94,00 %
04.07.2017 12:48 23,0 C 21,7 C 52 % 1019,3 hPa 0,0 l/m 8,1 km/h (2 Bft) S-SW 192 0 min 0,000 mm 3,0 UV-I 420 W/m 12,6 C 22,5 C 14,5 km/h (3 Bft) 93,18 %
04.07.2017 12:50 23,2 C 21,1 C 53 % 1019,3 hPa 0,0 l/m 8,9 km/h (2 Bft) S-SW 200 0 min 0,000 mm 3,1 UV-I 414 W/m 13,1 C 22,5 C 12,9 km/h (3 Bft) 95,12 %
04.07.2017 12:52 23,3 C 21,7 C 51 % 1019,3 hPa 0,0 l/m 11,0 km/h (2 Bft) W-SW 245 0 min 0,000 mm 2,8 UV-I 414 W/m 12,6 C 22,0 C 17,7 km/h (3 Bft) 92,00 %
04.07.2017 12:54 23,3 C 21,7 C 50 % 1019,3 hPa 0,0 l/m 10,9 km/h (2 Bft) W-SW 248 0 min 0,000 mm 2,7 UV-I 377 W/m 12,3 C 22,1 C 24,1 km/h (4 Bft) 90,00 %
04.07.2017 12:56 23,3 C 21,7 C 51 % 1019,2 hPa 0,0 l/m 4,7 km/h (1 Bft) W-SW 238 0 min 0,000 mm 3,1 UV-I 396 W/m 12,6 C 23,3 C 8,0 km/h (2 Bft) 94,34 %
04.07.2017 12:58 23,3 C 21,7 C 50 % 1019,2 hPa 0,0 l/m 6,3 km/h (2 Bft) W 281 0 min 0,000 mm 3,1 UV-I 421 W/m 12,3 C 23,3 C 11,3 km/h (2 Bft) 92,11 %
04.07.2017 13:00 23,2 C 21,7 C 49 % 1019,3 hPa 0,0 l/m 7,5 km/h (2 Bft) W-NW 298 0 min 0,381 mm 3,1 UV-I 393 W/m 11,9 C 22,9 C 16,1 km/h (3 Bft) 92,86 %
04.07.2017 13:02 23,0 C 21,7 C 50 % 1019,1 hPa 0,0 l/m 6,7 km/h (2 Bft) SW 221 0 min 0,000 mm 2,8 UV-I 337 W/m 12,0 C 22,9 C 11,3 km/h (2 Bft) 90,24 %
04.07.2017 13:04 22,9 C 21,7 C 50 % 1019,2 hPa 0,0 l/m 4,9 km/h (1 Bft) W-SW 253 0 min 0,000 mm 2,4 UV-I 304 W/m 11,9 C 22,9 C 11,3 km/h (2 Bft) 94,00 %
04.07.2017 13:06 22,8 C 21,7 C 52 % 1019,1 hPa 0,0 l/m 6,3 km/h (2 Bft) W 277 0 min 0,000 mm 2,2 UV-I 283 W/m 12,4 C 22,8 C 14,5 km/h (3 Bft) 90,91 %
04.07.2017 13:08 22,8 C 21,7 C 51 % 1019,1 hPa 0,0 l/m 4,6 km/h (1 Bft) N 351 0 min 0,000 mm 2,1 UV-I 260 W/m 12,1 C 22,8 C 9,7 km/h (2 Bft) 94,44 %
04.07.2017 13:10 22,8 C 21,7 C 51 % 1019,1 hPa 0,0 l/m 1,6 km/h (1 Bft) SW 229 0 min 0,000 mm 2,0 UV-I 253 W/m 12,1 C 22,8 C 4,8 km/h (1 Bft) 96,23 %
04.07.2017 13:12 22,8 C 21,7 C 51 % 1019,1 hPa 0,0 l/m 2,0 km/h (1 Bft) W-SW 256 0 min 0,000 mm 1,9 UV-I 244 W/m 12,1 C 22,8 C 4,8 km/h (1 Bft) 92,86 %
04.07.2017 13:14 22,8 C 21,7 C 52 % 1019,1 hPa 0,0 l/m 3,0 km/h (1 Bft) W-NW 302 0 min 0,000 mm 1,9 UV-I 243 W/m 12,4 C 22,8 C 6,4 km/h (2 Bft) 92,11 %
04.07.2017 13:16 22,8 C 21,7 C 52 % 1019,1 hPa 0,0 l/m 1,2 km/h (1 Bft) W-NW 302 0 min 0,000 mm 2,1 UV-I 256 W/m 12,4 C 22,8 C 3,2 km/h (1 Bft) 94,00 %
04.07.2017 13:18 22,8 C 21,7 C 54 % 1019,0 hPa 0,0 l/m 2,4 km/h (1 Bft) W-NW 296 0 min 0,000 mm 2,1 UV-I 261 W/m 13,0 C 22,8 C 8,0 km/h (2 Bft) 95,74 %
04.07.2017 13:20 22,8 C 21,7 C 53 % 1019,1 hPa 0,0 l/m 3,0 km/h (1 Bft) W-NW 298 0 min 0,000 mm 2,1 UV-I 258 W/m 12,7 C 22,8 C 6,4 km/h (2 Bft) 94,74 %
04.07.2017 13:22 22,8 C 21,7 C 53 % 1019,0 hPa 0,0 l/m 3,1 km/h (1 Bft) N-NO 22 0 min 0,000 mm 2,0 UV-I 247 W/m 12,7 C 22,8 C 8,0 km/h (2 Bft) 93,55 %
04.07.2017 13:24 22,7 C 21,7 C 54 % 1019,1 hPa 0,0 l/m 2,4 km/h (1 Bft) W 280 0 min 0,000 mm 2,0 UV-I 249 W/m 12,9 C 22,7 C 4,8 km/h (1 Bft) 97,37 %
04.07.2017 13:26 22,7 C 21,7 C 54 % 1019,1 hPa 0,0 l/m 2,6 km/h (1 Bft) O 86 0 min 0,000 mm 2,3 UV-I 281 W/m 12,9 C 22,7 C 9,7 km/h (2 Bft) 94,34 %
04.07.2017 13:28 22,7 C 21,7 C 54 % 1019,1 hPa 0,0 l/m 3,6 km/h (1 Bft) NW 321 0 min 0,000 mm 3,1 UV-I 376 W/m 12,9 C 22,7 C 9,7 km/h (2 Bft) 92,11 %
04.07.2017 13:30 22,8 C 21,7 C 54 % 1019,1 hPa 0,0 l/m 4,6 km/h (1 Bft) W-SW 250 0 min 0,000 mm 4,3 UV-I 485 W/m 13,0 C 22,8 C 12,9 km/h (3 Bft) 98,11 %
04.07.2017 13:32 22,9 C 21,7 C 54 % 1019,1 hPa 0,0 l/m 6,7 km/h (2 Bft) N-NW 345 2 min 0,000 mm 4,5 UV-I 524 W/m 13,1 C 22,8 C 16,1 km/h (3 Bft) 94,74 %
04.07.2017 13:34 22,9 C 21,7 C 53 % 1019,1 hPa 0,0 l/m 8,6 km/h (2 Bft) N-NW 329 2 min 0,000 mm 4,6 UV-I 552 W/m 12,8 C 22,2 C 16,1 km/h (3 Bft) 94,92 %
04.07.2017 13:36 22,9 C 21,7 C 53 % 1019,1 hPa 0,0 l/m 9,0 km/h (2 Bft) N 355 2 min 0,000 mm 4,9 UV-I 564 W/m 12,8 C 22,1 C 16,1 km/h (3 Bft) 94,74 %
04.07.2017 13:38 22,8 C 21,7 C 53 % 1019,0 hPa 0,0 l/m 5,1 km/h (1 Bft) N-NW 329 2 min 0,000 mm 4,0 UV-I 488 W/m 12,7 C 22,8 C 14,5 km/h (3 Bft) 96,00 %
04.07.2017 13:40 22,9 C 21,7 C 53 % 1019,1 hPa 0,0 l/m 3,9 km/h (1 Bft) NW 315 2 min 0,000 mm 4,0 UV-I 496 W/m 12,8 C 22,9 C 6,4 km/h (2 Bft) 94,34 %
04.07.2017 13:42 23,0 C 21,7 C 52 % 1019,1 hPa 0,0 l/m 3,6 km/h (1 Bft) NW 315 0 min 0,000 mm 3,6 UV-I 455 W/m 12,6 C 23,0 C 12,9 km/h (3 Bft) 97,73 %
04.07.2017 13:44 23,2 C 21,7 C 54 % 1019,1 hPa 0,0 l/m 3,3 km/h (1 Bft) W-SW 250 0 min 0,000 mm 3,5 UV-I 429 W/m 13,4 C 23,2 C 6,4 km/h (2 Bft) 97,62 %
04.07.2017 13:46 23,2 C 21,7 C 52 % 1019,0 hPa 0,0 l/m 3,0 km/h (1 Bft) W-SW 252 0 min 0,000 mm 4,0 UV-I 461 W/m 12,8 C 23,2 C 9,7 km/h (2 Bft) 100,00 %
04.07.2017 13:48 23,1 C 21,7 C 52 % 1019,0 hPa 0,0 l/m 4,3 km/h (1 Bft) N 351 0 min 0,000 mm 3,8 UV-I 438 W/m 12,7 C 23,1 C 11,3 km/h (2 Bft) 91,67 %
04.07.2017 13:50 23,1 C 21,7 C 52 % 1019,0 hPa 0,0 l/m 5,5 km/h (1 Bft) W-SW 254 2 min 0,000 mm 4,4 UV-I 593 W/m 12,7 C 23,1 C 11,3 km/h (2 Bft) 86,84 %
04.07.2017 13:52 23,1 C 21,7 C 54 % 1019,1 hPa 0,0 l/m 5,1 km/h (1 Bft) NW 305 0 min 0,000 mm 6,3 UV-I 401 W/m 13,3 C 23,1 C 11,3 km/h (2 Bft) 96,23 %
04.07.2017 13:54 23,2 C 21,7 C 53 % 1019,1 hPa 0,0 l/m 5,4 km/h (1 Bft) NW 320 2 min 0,000 mm 6,1 UV-I 634 W/m 13,1 C 23,2 C 9,7 km/h (2 Bft) 98,11 %
04.07.2017 13:56 23,4 C 21,7 C 52 % 1019,1 hPa 0,0 l/m 5,0 km/h (1 Bft) W 260 2 min 0,000 mm 6,2 UV-I 964 W/m 13,0 C 23,4 C 14,5 km/h (3 Bft) 94,74 %
04.07.2017 13:58 23,7 C 21,7 C 50 % 1019,0 hPa 0,0 l/m 7,0 km/h (2 Bft) W 261 2 min 0,000 mm 6,3 UV-I 960 W/m 12,6 C 23,5 C 12,9 km/h (3 Bft) 98,11 %
04.07.2017 14:00 23,7 C 21,7 C 53 % 1019,1 hPa 0,0 l/m 4,8 km/h (1 Bft) N-NO 25 2 min 0,305 mm 6,5 UV-I 954 W/m 13,5 C 23,7 C 9,7 km/h (2 Bft) 100,00 %
04.07.2017 14:02 24,0 C 21,7 C 51 % 1019,0 hPa 0,0 l/m 4,0 km/h (1 Bft) N 350 2 min 0,000 mm 6,3 UV-I 946 W/m 13,2 C 24,0 C 9,7 km/h (2 Bft) 95,65 %
04.07.2017 14:04 24,3 C 21,7 C 49 % 1019,1 hPa 0,0 l/m 7,3 km/h (2 Bft) W-NW 284 2 min 0,000 mm 5,2 UV-I 902 W/m 12,9 C 24,1 C 14,5 km/h (3 Bft) 92,86 %
04.07.2017 14:06 24,2 C 21,7 C 50 % 1019,0 hPa 0,0 l/m 5,0 km/h (1 Bft) W 265 0 min 0,000 mm 3,8 UV-I 335 W/m 13,1 C 24,2 C 12,9 km/h (3 Bft) 98,08 %
04.07.2017 14:08 23,9 C 21,7 C 49 % 1019,2 hPa 0,0 l/m 9,0 km/h (2 Bft) W-NW 289 0 min 0,000 mm 4,0 UV-I 291 W/m 12,5 C 23,2 C 19,3 km/h (3 Bft) 98,00 %
04.07.2017 14:10 23,5 C 21,7 C 51 % 1019,0 hPa 0,0 l/m 5,2 km/h (1 Bft) W-SW 252 0 min 0,000 mm 2,7 UV-I 193 W/m 12,8 C 23,5 C 9,7 km/h (2 Bft) 100,00 %
04.07.2017 14:12 23,3 C 21,7 C 52 % 1019,0 hPa 0,0 l/m 6,9 km/h (2 Bft) NW 322 0 min 0,000 mm 2,4 UV-I 181 W/m 12,9 C 23,1 C 12,9 km/h (3 Bft) 96,00 %
04.07.2017 14:14 23,2 C 21,7 C 51 % 1019,1 hPa 0,0 l/m 10,5 km/h (2 Bft) W-NW 296 0 min 0,000 mm 2,3 UV-I 210 W/m 12,5 C 22,1 C 16,1 km/h (3 Bft) 97,56 %
04.07.2017 14:16 23,1 C 21,7 C 53 % 1019,1 hPa 0,0 l/m 5,9 km/h (2 Bft) W 281 0 min 0,000 mm 2,2 UV-I 246 W/m 13,0 C 23,1 C 12,9 km/h (3 Bft) 92,45 %
04.07.2017 14:18 22,9 C 21,7 C 52 % 1019,1 hPa 0,0 l/m 7,7 km/h (2 Bft) N-NO 28 0 min 0,000 mm 2,0 UV-I 252 W/m 12,5 C 22,5 C 14,5 km/h (3 Bft) 100,00 %
04.07.2017 14:20 23,0 C 21,7 C 52 % 1019,1 hPa 0,0 l/m 8,3 km/h (2 Bft) W-SW 252 0 min 0,000 mm 1,9 UV-I 233 W/m 12,6 C 22,4 C 14,5 km/h (3 Bft) 97,87 %
04.07.2017 14:22 23,0 C 21,7 C 52 % 1019,1 hPa 0,0 l/m 9,9 km/h (2 Bft) W-SW 248 0 min 0,000 mm 1,7 UV-I 216 W/m 12,6 C 22,0 C 17,7 km/h (3 Bft) 93,62 %
04.07.2017 14:24 23,0 C 21,7 C 52 % 1019,1 hPa 0,0 l/m 5,8 km/h (2 Bft) SW 233 0 min 0,000 mm 1,6 UV-I 202 W/m 12,6 C 23,0 C 11,3 km/h (2 Bft) 93,75 %
04.07.2017 14:26 23,0 C 21,7 C 53 % 1019,1 hPa 0,0 l/m 3,1 km/h (1 Bft) W 265 0 min 0,000 mm 1,4 UV-I 188 W/m 12,9 C 23,0 C 8,0 km/h (2 Bft) 98,08 %
04.07.2017 14:28 23,0 C 21,7 C 53 % 1019,1 hPa 0,0 l/m 3,2 km/h (1 Bft) W 269 0 min 0,000 mm 1,3 UV-I 182 W/m 12,9 C 23,0 C 6,4 km/h (2 Bft) 100,00 %
04.07.2017 14:30 23,0 C 21,7 C 53 % 1019,1 hPa 0,0 l/m 2,6 km/h (1 Bft) W 280 0 min 0,000 mm 1,3 UV-I 182 W/m 12,9 C 23,0 C 4,8 km/h (1 Bft) 100,00 %
04.07.2017 14:32 22,9 C 21,7 C 53 % 1019,1 hPa 0,0 l/m 5,0 km/h (1 Bft) W-SW 252 0 min 0,000 mm 1,4 UV-I 186 W/m 12,8 C 22,9 C 14,5 km/h (3 Bft) 95,12 %
04.07.2017 14:34 22,9 C 21,7 C 53 % 1019,1 hPa 0,0 l/m 5,5 km/h (1 Bft) W 260 0 min 0,000 mm 1,5 UV-I 200 W/m 12,8 C 22,9 C 16,1 km/h (3 Bft) 94,00 %
04.07.2017 14:36 22,9 C 21,7 C 53 % 1019,1 hPa 0,0 l/m 9,3 km/h (2 Bft) W 261 0 min 0,000 mm 1,6 UV-I 220 W/m 12,8 C 22,0 C 16,1 km/h (3 Bft) 96,23 %
04.07.2017 14:38 22,9 C 21,7 C 54 % 1019,1 hPa 0,0 l/m 7,1 km/h (2 Bft) W-SW 252 0 min 0,000 mm 1,8 UV-I 250 W/m 13,1 C 22,7 C 14,5 km/h (3 Bft) 93,62 %
04.07.2017 14:40 22,9 C 21,7 C 53 % 1019,1 hPa 0,0 l/m 6,3 km/h (2 Bft) W-SW 249 0 min 0,000 mm 2,1 UV-I 287 W/m 12,8 C 22,9 C 12,9 km/h (3 Bft) 95,45 %
04.07.2017 14:42 22,9 C 21,7 C 54 % 1019,1 hPa 0,0 l/m 3,7 km/h (1 Bft) SW 233 0 min 0,000 mm 2,3 UV-I 311 W/m 13,1 C 22,9 C 9,7 km/h (2 Bft) 95,12 %
04.07.2017 14:44 23,1 C 21,7 C 53 % 1019,1 hPa 0,0 l/m 5,3 km/h (1 Bft) W 275 0 min 0,000 mm 2,4 UV-I 326 W/m 13,0 C 23,1 C 12,9 km/h (3 Bft) 96,23 %
04.07.2017 14:46 23,1 C 21,7 C 52 % 1019,1 hPa 0,0 l/m 5,9 km/h (2 Bft) W 260 0 min 0,000 mm 2,5 UV-I 317 W/m 12,7 C 23,1 C 9,7 km/h (2 Bft) 92,68 %
04.07.2017 14:48 23,2 C 21,7 C 53 % 1019,1 hPa 0,0 l/m 2,3 km/h (1 Bft) W 261 0 min 0,000 mm 2,5 UV-I 342 W/m 13,1 C 23,2 C 4,8 km/h (1 Bft) 92,45 %
04.07.2017 14:50 23,2 C 21,7 C 53 % 1019,1 hPa 0,0 l/m 3,3 km/h (1 Bft) W 263 0 min 0,000 mm 2,6 UV-I 352 W/m 13,1 C 23,2 C 6,4 km/h (2 Bft) 97,87 %
04.07.2017 14:52 23,3 C 21,7 C 53 % 1019,1 hPa 0,0 l/m 5,4 km/h (1 Bft) W-SW 243 0 min 0,000 mm 2,8 UV-I 369 W/m 13,2 C 23,3 C 8,0 km/h (2 Bft) 94,74 %
04.07.2017 14:54 23,3 C 21,7 C 52 % 1019,1 hPa 0,0 l/m 3,3 km/h (1 Bft) W-NW 288 0 min 0,000 mm 3,1 UV-I 403 W/m 12,9 C 23,3 C 9,7 km/h (2 Bft) 90,91 %
04.07.2017 14:56 23,4 C 21,7 C 52 % 1019,1 hPa 0,0 l/m 4,4 km/h (1 Bft) NW 321 2 min 0,000 mm 3,8 UV-I 546 W/m 13,0 C 23,4 C 9,7 km/h (2 Bft) 92,86 %
04.07.2017 15:00 23,8 C 21,7 C 51 % 1019,0 hPa 0,0 l/m 3,2 km/h (1 Bft) W-SW 247 0 min 0,229 mm 3,3 UV-I 393 W/m 13,0 C 23,8 C 9,7 km/h (2 Bft) 98,25 %
04.07.2017 15:04 23,5 C 21,7 C 51 % 1019,0 hPa 0,0 l/m 4,8 km/h (1 Bft) W 271 4 min 0,000 mm 3,9 UV-I 535 W/m 12,8 C 23,5 C 4,8 km/h (1 Bft) 95,21 %
04.07.2017 15:06 23,4 C 21,7 C 51 % 1019,0 hPa 0,0 l/m 3,7 km/h (1 Bft) N-NW 327 0 min 0,000 mm 2,5 UV-I 296 W/m 12,7 C 23,4 C 6,4 km/h (2 Bft) 100,00 %
04.07.2017 15:08 23,3 C 21,7 C 52 % 1019,0 hPa 0,0 l/m 4,6 km/h (1 Bft) N 360 0 min 0,000 mm 2,3 UV-I 307 W/m 12,9 C 23,3 C 9,7 km/h (2 Bft) 95,45 %
04.07.2017 15:10 23,3 C 21,7 C 51 % 1019,0 hPa 0,0 l/m 2,0 km/h (1 Bft) N-NW 331 0 min 0,000 mm 2,3 UV-I 314 W/m 12,6 C 23,3 C 4,8 km/h (1 Bft) 100,00 %
04.07.2017 15:12 23,3 C 21,7 C 52 % 1019,0 hPa 0,0 l/m 4,2 km/h (1 Bft) N 355 0 min 0,000 mm 2,3 UV-I 323 W/m 12,9 C 23,3 C 8,0 km/h (2 Bft) 96,23 %
04.07.2017 15:14 23,3 C 21,7 C 52 % 1019,0 hPa 0,0 l/m 8,9 km/h (2 Bft) W 273 0 min 0,000 mm 2,3 UV-I 326 W/m 12,9 C 22,6 C 12,9 km/h (3 Bft) 96,67 %
04.07.2017 15:16 23,3 C 21,7 C 51 % 1019,0 hPa 0,0 l/m 6,4 km/h (2 Bft) W-NW 296 0 min 0,000 mm 2,3 UV-I 324 W/m 12,6 C 23,3 C 11,3 km/h (2 Bft) 98,08 %
04.07.2017 15:18 23,4 C 21,7 C 52 % 1018,9 hPa 0,0 l/m 6,6 km/h (2 Bft) SW 232 0 min 0,000 mm 2,3 UV-I 315 W/m 13,0 C 23,3 C 12,9 km/h (3 Bft) 100,00 %
04.07.2017 15:20 23,4 C 21,7 C 52 % 1018,9 hPa 0,0 l/m 4,5 km/h (1 Bft) W 277 0 min 0,000 mm 2,1 UV-I 302 W/m 13,0 C 23,4 C 6,4 km/h (2 Bft) 95,74 %
04.07.2017 15:22 23,4 C 21,7 C 52 % 1018,9 hPa 0,0 l/m 2,5 km/h (1 Bft) N-NO 19 0 min 0,000 mm 2,1 UV-I 300 W/m 13,0 C 23,4 C 6,4 km/h (2 Bft) 97,87 %
04.07.2017 15:24 23,4 C 21,7 C 53 % 1018,9 hPa 0,0 l/m 3,5 km/h (1 Bft) NW 312 0 min 0,000 mm 2,1 UV-I 308 W/m 13,3 C 23,4 C 8,0 km/h (2 Bft) 94,00 %
04.07.2017 15:26 23,4 C 21,7 C 51 % 1018,9 hPa 0,0 l/m 5,4 km/h (1 Bft) N-NW 330 0 min 0,000 mm 2,2 UV-I 317 W/m 12,7 C 23,4 C 12,9 km/h (3 Bft) 97,62 %
04.07.2017 15:28 23,4 C 21,7 C 51 % 1018,9 hPa 0,0 l/m 2,9 km/h (1 Bft) W-NW 301 0 min 0,000 mm 2,2 UV-I 323 W/m 12,7 C 23,4 C 6,4 km/h (2 Bft) 100,00 %
04.07.2017 15:30 23,4 C 21,7 C 51 % 1018,9 hPa 0,0 l/m 2,0 km/h (1 Bft) W-NW 292 0 min 0,000 mm 2,4 UV-I 357 W/m 12,7 C 23,4 C 6,4 km/h (2 Bft) 98,11 %
04.07.2017 15:32 23,6 C 21,7 C 50 % 1018,9 hPa 0,0 l/m 4,8 km/h (1 Bft) N-NW 346 0 min 0,000 mm 2,6 UV-I 392 W/m 12,6 C 23,6 C 17,7 km/h (3 Bft) 98,00 %
04.07.2017 15:34 23,6 C 21,7 C 52 % 1018,9 hPa 0,0 l/m 4,5 km/h (1 Bft) NW 306 0 min 0,000 mm 2,5 UV-I 370 W/m 13,2 C 23,6 C 11,3 km/h (2 Bft) 97,87 %
04.07.2017 15:36 23,7 C 21,7 C 50 % 1018,9 hPa 0,0 l/m 3,6 km/h (1 Bft) SW 229 0 min 0,000 mm 2,4 UV-I 365 W/m 12,6 C 23,7 C 6,4 km/h (2 Bft) 97,37 %
04.07.2017 15:38 23,8 C 21,7 C 50 % 1018,8 hPa 0,0 l/m 2,2 km/h (1 Bft) W-NW 294 0 min 0,000 mm 2,6 UV-I 396 W/m 12,7 C 23,8 C 4,8 km/h (1 Bft) 98,00 %
04.07.2017 15:40 23,8 C 21,7 C 50 % 1018,8 hPa 0,0 l/m 1,9 km/h (1 Bft) N-NW 336 2 min 0,000 mm 2,4 UV-I 420 W/m 12,7 C 23,8 C 8,0 km/h (2 Bft) 92,11 %
04.07.2017 15:42 23,7 C 21,7 C 50 % 1018,8 hPa 0,0 l/m 3,2 km/h (1 Bft) N-NW 336 2 min 0,000 mm 2,1 UV-I 422 W/m 12,6 C 23,7 C 11,3 km/h (2 Bft) 97,73 %
04.07.2017 15:44 23,8 C 21,7 C 50 % 1018,8 hPa 0,0 l/m 2,4 km/h (1 Bft) NW 324 0 min 0,000 mm 2,4 UV-I 399 W/m 12,7 C 23,8 C 6,4 km/h (2 Bft) 94,64 %
04.07.2017 15:46 23,9 C 21,7 C 50 % 1018,8 hPa 0,0 l/m 2,7 km/h (1 Bft) W-NW 299 0 min 0,000 mm 2,2 UV-I 368 W/m 12,8 C 23,9 C 8,0 km/h (2 Bft) 98,00 %
04.07.2017 15:48 23,9 C 21,7 C 50 % 1018,8 hPa 0,0 l/m 4,8 km/h (1 Bft) NO 42 0 min 0,000 mm 1,5 UV-I 340 W/m 12,8 C 23,9 C 8,0 km/h (2 Bft) 94,00 %
04.07.2017 15:50 23,8 C 21,7 C 50 % 1018,8 hPa 0,0 l/m 4,1 km/h (1 Bft) N-NW 338 0 min 0,000 mm 1,5 UV-I 314 W/m 12,7 C 23,8 C 11,3 km/h (2 Bft) 97,56 %
04.07.2017 15:52 23,7 C 21,7 C 50 % 1018,8 hPa 0,0 l/m 3,5 km/h (1 Bft) W-NW 301 0 min 0,000 mm 1,4 UV-I 294 W/m 12,6 C 23,7 C 8,0 km/h (2 Bft) 98,00 %
04.07.2017 15:54 23,6 C 21,7 C 51 % 1018,9 hPa 0,0 l/m 5,1 km/h (1 Bft) N-NW 329 0 min 0,000 mm 1,4 UV-I 301 W/m 12,9 C 23,6 C 16,1 km/h (3 Bft) 96,00 %
04.07.2017 15:56 23,6 C 21,7 C 52 % 1018,8 hPa 0,0 l/m 3,3 km/h (1 Bft) N 350 0 min 0,000 mm 1,4 UV-I 318 W/m 13,2 C 23,6 C 6,4 km/h (2 Bft) 97,37 %
04.07.2017 15:58 23,6 C 21,7 C 52 % 1018,8 hPa 0,0 l/m 3,0 km/h (1 Bft) NW 304 0 min 0,000 mm 1,8 UV-I 326 W/m 13,2 C 23,6 C 8,0 km/h (2 Bft) 98,00 %
04.07.2017 16:00 23,6 C 21,7 C 52 % 1018,7 hPa 0,0 l/m 3,5 km/h (1 Bft) N-NW 342 0 min 0,254 mm 2,2 UV-I 336 W/m 13,2 C 23,6 C 6,4 km/h (2 Bft) 100,00 %
04.07.2017 16:02 23,7 C 21,7 C 52 % 1018,7 hPa 0,0 l/m 3,4 km/h (1 Bft) NW 311 0 min 0,000 mm 2,2 UV-I 343 W/m 13,2 C 23,7 C 4,8 km/h (1 Bft) 97,22 %
04.07.2017 16:04 23,6 C 21,7 C 51 % 1018,7 hPa 0,0 l/m 5,1 km/h (1 Bft) W-NW 290 0 min 0,000 mm 2,2 UV-I 343 W/m 12,9 C 23,6 C 11,3 km/h (2 Bft) 95,74 %
04.07.2017 16:06 23,6 C 21,7 C 51 % 1018,7 hPa 0,0 l/m 3,3 km/h (1 Bft) W-NW 297 0 min 0,000 mm 2,2 UV-I 341 W/m 12,9 C 23,6 C 6,4 km/h (2 Bft) 97,87 %
04.07.2017 16:08 23,7 C 21,7 C 51 % 1018,8 hPa 0,0 l/m 3,9 km/h (1 Bft) N-NW 348 0 min 0,000 mm 2,2 UV-I 345 W/m 13,0 C 23,7 C 11,3 km/h (2 Bft) 97,87 %
04.07.2017 16:10 23,7 C 21,7 C 51 % 1018,7 hPa 0,0 l/m 1,6 km/h (1 Bft) N-NW 328 0 min 0,000 mm 2,2 UV-I 349 W/m 13,0 C 23,7 C 3,2 km/h (1 Bft) 96,23 %
04.07.2017 16:12 23,7 C 21,7 C 51 % 1018,7 hPa 0,0 l/m 2,5 km/h (1 Bft) W 272 0 min 0,000 mm 2,2 UV-I 349 W/m 13,0 C 23,7 C 6,4 km/h (2 Bft) 100,00 %
04.07.2017 16:14 23,7 C 21,7 C 50 % 1018,7 hPa 0,0 l/m 4,1 km/h (1 Bft) SW 232 0 min 0,000 mm 2,1 UV-I 333 W/m 12,6 C 23,7 C 11,3 km/h (2 Bft) 96,23 %
04.07.2017 16:16 23,7 C 21,7 C 51 % 1018,7 hPa 0,0 l/m 1,0 km/h (0 Bft) W 263 0 min 0,000 mm 2,1 UV-I 320 W/m 13,0 C 23,7 C 4,8 km/h (1 Bft) 100,00 %
04.07.2017 16:18 23,9 C 21,7 C 52 % 1018,7 hPa 0,0 l/m 1,3 km/h (1 Bft) W 265 0 min 0,000 mm 2,2 UV-I 360 W/m 13,4 C 23,9 C 4,8 km/h (1 Bft) 97,87 %
04.07.2017 16:20 23,9 C 21,7 C 49 % 1018,7 hPa 0,0 l/m 5,7 km/h (1 Bft) W-SW 250 2 min 0,000 mm 2,3 UV-I 395 W/m 12,5 C 23,9 C 11,3 km/h (2 Bft) 97,87 %
04.07.2017 16:22 23,9 C 21,7 C 51 % 1018,7 hPa 0,0 l/m 1,5 km/h (1 Bft) W-SW 250 2 min 0,000 mm 2,4 UV-I 404 W/m 13,1 C 23,9 C 3,2 km/h (1 Bft) 94,74 %
04.07.2017 16:24 24,2 C 21,7 C 50 % 1018,7 hPa 0,0 l/m 2,2 km/h (1 Bft) N-NW 340 2 min 0,000 mm 3,2 UV-I 406 W/m 13,1 C 24,2 C 4,8 km/h (1 Bft) 100,00 %
04.07.2017 16:26 24,4 C 21,7 C 50 % 1018,6 hPa 0,0 l/m 2,0 km/h (1 Bft) NW 317 2 min 0,000 mm 2,6 UV-I 425 W/m 13,3 C 24,4 C 4,8 km/h (1 Bft) 100,00 %
04.07.2017 16:28 24,5 C 21,7 C 48 % 1018,6 hPa 0,0 l/m 2,5 km/h (1 Bft) W-SW 248 2 min 0,000 mm 2,4 UV-I 400 W/m 12,8 C 24,5 C 9,7 km/h (2 Bft) 94,34 %
04.07.2017 16:30 24,4 C 22,2 C 49 % 1018,6 hPa 0,0 l/m 5,6 km/h (1 Bft) W-NW 294 0 min 0,000 mm 2,3 UV-I 366 W/m 13,0 C 24,4 C 11,3 km/h (2 Bft) 94,29 %
04.07.2017 16:32 24,2 C 22,2 C 50 % 1018,6 hPa 0,0 l/m 2,4 km/h (1 Bft) NW 319 2 min 0,000 mm 2,2 UV-I 367 W/m 13,1 C 24,2 C 4,8 km/h (1 Bft) 96,23 %
04.07.2017 16:34 24,2 C 22,2 C 49 % 1018,6 hPa 0,0 l/m 2,7 km/h (1 Bft) W 271 2 min 0,000 mm 2,4 UV-I 424 W/m 12,8 C 24,2 C 8,0 km/h (2 Bft) 95,74 %
04.07.2017 16:36 24,2 C 22,2 C 51 % 1018,6 hPa 0,0 l/m 4,2 km/h (1 Bft) W 275 2 min 0,000 mm 3,2 UV-I 526 W/m 13,4 C 24,2 C 9,7 km/h (2 Bft) 97,87 %
04.07.2017 16:38 24,6 C 22,2 C 49 % 1018,5 hPa 0,0 l/m 4,6 km/h (1 Bft) W 265 2 min 0,000 mm 3,2 UV-I 839 W/m 13,2 C 24,6 C 11,3 km/h (2 Bft) 94,00 %
04.07.2017 16:40 24,8 C 22,2 C 49 % 1018,5 hPa 0,0 l/m 5,3 km/h (1 Bft) N 5 2 min 0,000 mm 2,9 UV-I 830 W/m 13,3 C 24,8 C 11,3 km/h (2 Bft) 95,12 %
04.07.2017 16:42 25,1 C 22,2 C 48 % 1018,5 hPa 0,0 l/m 4,7 km/h (1 Bft) N-NW 341 2 min 0,000 mm 2,7 UV-I 761 W/m 13,3 C 25,1 C 9,7 km/h (2 Bft) 95,24 %
04.07.2017 16:44 25,2 C 22,2 C 47 % 1018,5 hPa 0,0 l/m 2,3 km/h (1 Bft) N-NW 335 2 min 0,000 mm 2,9 UV-I 737 W/m 13,1 C 25,2 C 6,4 km/h (2 Bft) 90,00 %
04.07.2017 16:46 25,3 C 22,2 C 46 % 1018,5 hPa 0,0 l/m 6,9 km/h (2 Bft) W 270 2 min 0,000 mm 2,4 UV-I 707 W/m 12,8 C 25,2 C 14,5 km/h (3 Bft) 93,62 %
04.07.2017 16:48 25,1 C 22,2 C 46 % 1018,5 hPa 0,0 l/m 1,6 km/h (1 Bft) N 355 2 min 0,000 mm 2,7 UV-I 712 W/m 12,7 C 25,1 C 4,8 km/h (1 Bft) 94,00 %
04.07.2017 16:50 24,9 C 22,2 C 46 % 1018,5 hPa 0,0 l/m 0,4 km/h (0 Bft) NO 47 2 min 0,000 mm 2,2 UV-I 547 W/m 12,5 C 24,9 C 1,6 km/h (1 Bft) 96,00 %
04.07.2017 16:52 24,9 C 22,2 C 46 % 1018,4 hPa 0,0 l/m 1,6 km/h (1 Bft) N-NO 30 2 min 0,000 mm 2,1 UV-I 431 W/m 12,5 C 24,9 C 4,8 km/h (1 Bft) 92,11 %
04.07.2017 16:54 25,0 C 22,2 C 47 % 1018,5 hPa 0,0 l/m 1,8 km/h (1 Bft) N-NW 334 0 min 0,000 mm 1,7 UV-I 316 W/m 12,9 C 25,0 C 6,4 km/h (2 Bft) 92,86 %
04.07.2017 16:56 24,9 C 22,2 C 47 % 1018,4 hPa 0,0 l/m 4,5 km/h (1 Bft) W-NW 290 0 min 0,000 mm 1,9 UV-I 294 W/m 12,8 C 24,9 C 9,7 km/h (2 Bft) 95,12 %
04.07.2017 16:58 24,7 C 22,2 C 48 % 1018,4 hPa 0,0 l/m 3,8 km/h (1 Bft) N 355 0 min 0,000 mm 1,9 UV-I 323 W/m 12,9 C 24,7 C 6,4 km/h (2 Bft) 96,00 %
04.07.2017 17:00 24,6 C 22,2 C 48 % 1018,4 hPa 0,0 l/m 1,7 km/h (1 Bft) N-NW 339 0 min 0,000 mm 1,8 UV-I 319 W/m 12,8 C 24,6 C 6,4 km/h (2 Bft) 96,00 %
04.07.2017 17:02 24,4 C 22,2 C 48 % 1018,4 hPa 0,0 l/m 3,9 km/h (1 Bft) W-NW 292 0 min 0,304 mm 1,8 UV-I 329 W/m 12,7 C 24,4 C 6,4 km/h (2 Bft) 85,71 %
04.07.2017 17:04 24,3 C 22,2 C 48 % 1018,4 hPa 0,0 l/m 1,8 km/h (1 Bft) W-NW 293 2 min 0,000 mm 2,0 UV-I 370 W/m 12,6 C 24,3 C 4,8 km/h (1 Bft) 94,00 %
04.07.2017 17:06 24,6 C 22,2 C 49 % 1018,4 hPa 0,0 l/m 0,2 km/h (0 Bft) W-NW 293 2 min 0,000 mm 2,0 UV-I 446 W/m 13,2 C 24,6 C 1,6 km/h (1 Bft) 91,49 %
04.07.2017 17:08 24,7 C 22,2 C 49 % 1018,4 hPa 0,0 l/m 1,6 km/h (1 Bft) NW 320 2 min 0,000 mm 1,8 UV-I 390 W/m 13,3 C 24,7 C 4,8 km/h (1 Bft) 94,34 %
04.07.2017 17:10 24,7 C 22,2 C 48 % 1018,3 hPa 0,0 l/m 2,8 km/h (1 Bft) N-NW 336 0 min 0,000 mm 1,7 UV-I 300 W/m 12,9 C 24,7 C 6,4 km/h (2 Bft) 95,12 %
04.07.2017 17:12 24,4 C 22,2 C 49 % 1018,3 hPa 0,0 l/m 2,0 km/h (1 Bft) N 11 0 min 0,000 mm 1,7 UV-I 277 W/m 13,0 C 24,4 C 4,8 km/h (1 Bft) 90,00 %
04.07.2017 17:14 24,3 C 22,2 C 48 % 1018,3 hPa 0,0 l/m 3,7 km/h (1 Bft) NW 316 0 min 0,000 mm 1,6 UV-I 255 W/m 12,6 C 24,3 C 6,4 km/h (2 Bft) 97,87 %
04.07.2017 17:16 24,3 C 22,2 C 50 % 1018,3 hPa 0,0 l/m 2,1 km/h (1 Bft) SW 223 0 min 0,000 mm 1,6 UV-I 304 W/m 13,2 C 24,3 C 4,8 km/h (1 Bft) 92,45 %
04.07.2017 17:18 24,3 C 22,2 C 50 % 1018,3 hPa 0,0 l/m 2,2 km/h (1 Bft) NW 323 2 min 0,000 mm 1,7 UV-I 313 W/m 13,2 C 24,3 C 4,8 km/h (1 Bft) 89,47 %
04.07.2017 17:20 24,4 C 22,2 C 51 % 1018,3 hPa 0,0 l/m 3,4 km/h (1 Bft) N-NW 338 0 min 0,000 mm 1,3 UV-I 302 W/m 13,6 C 24,4 C 6,4 km/h (2 Bft) 96,23 %
04.07.2017 17:22 24,4 C 22,2 C 49 % 1018,3 hPa 0,0 l/m 2,7 km/h (1 Bft) NW 315 2 min 0,000 mm 1,7 UV-I 394 W/m 13,0 C 24,4 C 6,4 km/h (2 Bft) 94,87 %
04.07.2017 17:24 24,6 C 22,2 C 50 % 1018,3 hPa 0,0 l/m 3,8 km/h (1 Bft) W-SW 240 2 min 0,000 mm 2,1 UV-I 634 W/m 13,5 C 24,6 C 6,4 km/h (2 Bft) 92,86 %
04.07.2017 17:26 24,8 C 22,2 C 49 % 1018,2 hPa 0,0 l/m 2,6 km/h (1 Bft) NW 310 2 min 0,000 mm 1,9 UV-I 581 W/m 13,3 C 24,8 C 4,8 km/h (1 Bft) 95,12 %
04.07.2017 17:28 24,9 C 22,2 C 48 % 1018,3 hPa 0,0 l/m 2,2 km/h (1 Bft) W-NW 288 2 min 0,000 mm 1,8 UV-I 538 W/m 13,1 C 24,9 C 4,8 km/h (1 Bft) 87,23 %
04.07.2017 17:30 24,9 C 22,2 C 49 % 1018,2 hPa 0,0 l/m 3,9 km/h (1 Bft) N 11 2 min 0,000 mm 1,9 UV-I 504 W/m 13,4 C 24,9 C 6,4 km/h (2 Bft) 94,34 %
04.07.2017 17:33 25,1 C 22,2 C 48 % 1018,2 hPa 0,0 l/m 2,6 km/h (1 Bft) NW 324 3 min 0,000 mm 1,8 UV-I 485 W/m 13,3 C 25,1 C 8,0 km/h (2 Bft) 98,44 %
04.07.2017 17:34 25,2 C 22,2 C 47 % 1018,2 hPa 0,0 l/m 3,7 km/h (1 Bft) N-NW 328 1 min 0,000 mm 1,6 UV-I 482 W/m 13,1 C 25,2 C 8,0 km/h (2 Bft) 95,83 %
04.07.2017 17:35 25,2 C 22,2 C 47 % 1018,2 hPa 0,0 l/m 3,2 km/h (1 Bft) NW 315 1 min 0,000 mm 1,7 UV-I 483 W/m 13,1 C 25,2 C 8,0 km/h (2 Bft) 95,61 %
04.07.2017 17:38 25,2 C 22,2 C 47 % 1018,2 hPa 0,0 l/m 4,5 km/h (1 Bft) W-NW 288 3 min 0,000 mm 1,7 UV-I 463 W/m 13,1 C 25,2 C 6,4 km/h (2 Bft) 91,89 %
04.07.2017 17:40 25,3 C 22,2 C 47 % 1018,2 hPa 0,0 l/m 3,4 km/h (1 Bft) W-SW 251 2 min 0,000 mm 1,7 UV-I 462 W/m 13,2 C 25,3 C 9,7 km/h (2 Bft) 98,21 %
04.07.2017 17:42 25,3 C 22,2 C 47 % 1018,2 hPa 0,0 l/m 3,2 km/h (1 Bft) SO 142 2 min 0,000 mm 1,5 UV-I 458 W/m 13,2 C 25,3 C 9,7 km/h (2 Bft) 97,37 %
04.07.2017 17:44 25,4 C 22,2 C 47 % 1018,1 hPa 0,0 l/m 0,8 km/h (0 Bft) S-SO 167 2 min 0,000 mm 1,6 UV-I 454 W/m 13,3 C 25,4 C 6,4 km/h (2 Bft) 97,73 %
04.07.2017 17:46 25,6 C 22,2 C 47 % 1018,1 hPa 0,0 l/m 2,8 km/h (1 Bft) S-SW 205 2 min 0,000 mm 1,6 UV-I 451 W/m 13,4 C 25,6 C 6,4 km/h (2 Bft) 92,86 %
04.07.2017 17:48 25,7 C 22,2 C 46 % 1018,1 hPa 0,0 l/m 8,0 km/h (2 Bft) W 259 2 min 0,000 mm 1,5 UV-I 444 W/m 13,2 C 25,3 C 12,9 km/h (3 Bft) 92,11 %
04.07.2017 17:50 25,6 C 22,2 C 44 % 1018,1 hPa 0,0 l/m 8,6 km/h (2 Bft) W 269 2 min 0,000 mm 1,2 UV-I 438 W/m 12,4 C 25,1 C 16,1 km/h (3 Bft) 97,73 %
04.07.2017 17:52 25,4 C 22,2 C 44 % 1018,1 hPa 0,0 l/m 4,9 km/h (1 Bft) N-NW 331 2 min 0,000 mm 1,4 UV-I 428 W/m 12,2 C 25,4 C 12,9 km/h (3 Bft) 96,61 %
04.07.2017 17:54 25,3 C 22,2 C 44 % 1018,0 hPa 0,0 l/m 5,4 km/h (1 Bft) W-SW 257 2 min 0,000 mm 1,4 UV-I 416 W/m 12,2 C 25,3 C 11,3 km/h (2 Bft) 100,00 %
04.07.2017 17:56 25,2 C 22,2 C 44 % 1018,0 hPa 0,0 l/m 5,8 km/h (2 Bft) W-NW 291 2 min 0,000 mm 1,1 UV-I 406 W/m 12,1 C 25,2 C 9,7 km/h (2 Bft) 97,87 %
04.07.2017 17:58 25,2 C 22,2 C 44 % 1018,0 hPa 0,0 l/m 8,9 km/h (2 Bft) W-NW 300 2 min 0,000 mm 1,0 UV-I 385 W/m 12,1 C 24,6 C 14,5 km/h (3 Bft) 97,67 %
04.07.2017 18:00 25,1 C 22,2 C 45 % 1018,0 hPa 0,0 l/m 7,2 km/h (2 Bft) W 280 2 min 0,305 mm 1,2 UV-I 402 W/m 12,3 C 24,9 C 12,9 km/h (3 Bft) 98,21 %
04.07.2017 18:02 25,2 C 22,2 C 45 % 1017,9 hPa 0,0 l/m 5,4 km/h (1 Bft) W-NW 284 2 min 0,000 mm 1,2 UV-I 398 W/m 12,4 C 25,2 C 9,7 km/h (2 Bft) 97,62 %
04.07.2017 18:04 25,3 C 22,2 C 46 % 1017,9 hPa 0,0 l/m 2,8 km/h (1 Bft) NW 313 2 min 0,000 mm 1,3 UV-I 386 W/m 12,8 C 25,3 C 12,9 km/h (3 Bft) 98,08 %
04.07.2017 18:06 25,3 C 22,2 C 45 % 1017,9 hPa 0,0 l/m 2,5 km/h (1 Bft) W-SW 257 2 min 0,000 mm 1,2 UV-I 359 W/m 12,5 C 25,3 C 6,4 km/h (2 Bft) 97,44 %
04.07.2017 18:08 25,5 C 22,2 C 46 % 1017,9 hPa 0,0 l/m 6,3 km/h (2 Bft) W 279 2 min 0,000 mm 1,2 UV-I 377 W/m 13,0 C 25,5 C 11,3 km/h (2 Bft) 93,18 %
04.07.2017 18:10 25,5 C 22,2 C 45 % 1017,9 hPa 0,0 l/m 4,0 km/h (1 Bft) NO 37 2 min 0,000 mm 1,2 UV-I 371 W/m 12,7 C 25,5 C 9,7 km/h (2 Bft) 98,00 %
04.07.2017 18:12 25,4 C 22,2 C 47 % 1017,9 hPa 0,0 l/m 0,9 km/h (0 Bft) N-NW 330 2 min 0,000 mm 1,1 UV-I 363 W/m 13,3 C 25,4 C 3,2 km/h (1 Bft) 100,00 %
04.07.2017 18:14 25,6 C 22,2 C 47 % 1017,9 hPa 0,0 l/m 3,2 km/h (1 Bft) W-NW 288 2 min 0,000 mm 1,0 UV-I 353 W/m 13,4 C 25,6 C 6,4 km/h (2 Bft) 97,87 %
04.07.2017 18:16 25,6 C 22,2 C 44 % 1017,9 hPa 0,0 l/m 4,4 km/h (1 Bft) W-SW 254 2 min 0,000 mm 0,9 UV-I 347 W/m 12,4 C 25,6 C 8,0 km/h (2 Bft) 97,87 %
04.07.2017 18:18 25,3 C 22,2 C 43 % 1017,9 hPa 0,0 l/m 4,1 km/h (1 Bft) W 273 2 min 0,000 mm 1,0 UV-I 341 W/m 11,8 C 25,3 C 6,4 km/h (2 Bft) 94,64 %
04.07.2017 18:20 25,2 C 22,2 C 44 % 1017,9 hPa 0,0 l/m 3,4 km/h (1 Bft) W 265 2 min 0,000 mm 1,0 UV-I 321 W/m 12,1 C 25,2 C 6,4 km/h (2 Bft) 92,68 %
04.07.2017 18:22 25,1 C 22,2 C 45 % 1017,9 hPa 0,0 l/m 3,5 km/h (1 Bft) W-SW 244 2 min 0,000 mm 1,0 UV-I 313 W/m 12,3 C 25,1 C 4,8 km/h (1 Bft) 96,00 %
04.07.2017 18:24 25,1 C 22,2 C 44 % 1017,8 hPa 0,0 l/m 4,2 km/h (1 Bft) W-SW 240 2 min 0,000 mm 1,0 UV-I 327 W/m 12,0 C 25,1 C 6,4 km/h (2 Bft) 88,57 %
04.07.2017 18:26 25,1 C 22,2 C 44 % 1017,9 hPa 0,0 l/m 10,7 km/h (2 Bft) S-SW 203 2 min 0,000 mm 0,8 UV-I 316 W/m 12,0 C 24,1 C 17,7 km/h (3 Bft) 94,00 %
04.07.2017 18:28 25,1 C 22,2 C 45 % 1017,8 hPa 0,0 l/m 9,4 km/h (2 Bft) W-SW 251 2 min 0,000 mm 0,9 UV-I 309 W/m 12,3 C 24,4 C 14,5 km/h (3 Bft) 92,00 %
04.07.2017 18:30 25,1 C 22,2 C 44 % 1017,8 hPa 0,0 l/m 7,8 km/h (2 Bft) W-SW 251 2 min 0,000 mm 0,9 UV-I 299 W/m 12,0 C 24,8 C 12,9 km/h (3 Bft) 93,18 %
04.07.2017 18:32 25,1 C 22,2 C 45 % 1017,8 hPa 0,0 l/m 5,2 km/h (1 Bft) W-SW 242 2 min 0,000 mm 0,8 UV-I 288 W/m 12,3 C 25,1 C 9,7 km/h (2 Bft) 89,36 %
04.07.2017 18:34 25,2 C 22,2 C 45 % 1017,7 hPa 0,0 l/m 3,3 km/h (1 Bft) W-NW 288 2 min 0,000 mm 0,8 UV-I 293 W/m 12,4 C 25,2 C 11,3 km/h (2 Bft) 92,86 %
04.07.2017 18:36 25,3 C 22,2 C 45 % 1017,8 hPa 0,0 l/m 1,8 km/h (1 Bft) NW 318 2 min 0,000 mm 0,8 UV-I 290 W/m 12,5 C 25,3 C 4,8 km/h (1 Bft) 97,37 %
04.07.2017 18:38 25,2 C 22,2 C 45 % 1017,7 hPa 0,0 l/m 2,5 km/h (1 Bft) N 360 2 min 0,000 mm 0,8 UV-I 287 W/m 12,4 C 25,2 C 4,8 km/h (1 Bft) 95,74 %
04.07.2017 18:40 25,2 C 22,2 C 46 % 1017,7 hPa 0,0 l/m 1,6 km/h (1 Bft) N-NW 333 2 min 0,000 mm 0,7 UV-I 283 W/m 12,7 C 25,2 C 4,8 km/h (1 Bft) 97,92 %
04.07.2017 18:42 25,1 C 22,2 C 46 % 1017,7 hPa 0,0 l/m 1,2 km/h (1 Bft) N 350 2 min 0,000 mm 0,7 UV-I 279 W/m 12,7 C 25,1 C 4,8 km/h (1 Bft) 95,74 %
04.07.2017 18:44 25,2 C 22,2 C 45 % 1017,7 hPa 0,0 l/m 3,1 km/h (1 Bft) N-NO 15 2 min 0,000 mm 0,7 UV-I 270 W/m 12,4 C 25,2 C 6,4 km/h (2 Bft) 98,11 %
04.07.2017 18:46 25,1 C 22,2 C 46 % 1017,7 hPa 0,0 l/m 4,2 km/h (1 Bft) W-NW 303 2 min 0,000 mm 0,7 UV-I 265 W/m 12,7 C 25,1 C 8,0 km/h (2 Bft) 93,88 %
04.07.2017 18:48 25,1 C 22,2 C 45 % 1017,7 hPa 0,0 l/m 0,6 km/h (0 Bft) W-NW 303 2 min 0,000 mm 0,6 UV-I 250 W/m 12,3 C 25,1 C 4,8 km/h (1 Bft) 94,87 %
04.07.2017 18:50 25,1 C 22,2 C 46 % 1017,7 hPa 0,0 l/m 1,6 km/h (1 Bft) W-SW 250 0 min 0,000 mm 0,5 UV-I 129 W/m 12,7 C 25,1 C 6,4 km/h (2 Bft) 100,00 %
04.07.2017 18:52 24,9 C 22,2 C 45 % 1017,7 hPa 0,0 l/m 2,6 km/h (1 Bft) W-SW 250 0 min 0,000 mm 0,5 UV-I 65 W/m 12,1 C 24,9 C 4,8 km/h (1 Bft) 95,74 %
04.07.2017 18:54 24,7 C 22,2 C 47 % 1017,7 hPa 0,0 l/m 0,0 km/h (0 Bft) W-SW 250 0 min 0,000 mm 0,3 UV-I 66 W/m 12,6 C 24,7 C 0,0 km/h (0 Bft) 97,37 %
04.07.2017 18:56 24,4 C 22,2 C 46 % 1017,8 hPa 0,0 l/m 0,0 km/h (0 Bft) W-SW 251 0 min 0,000 mm 0,5 UV-I 66 W/m 12,0 C 24,4 C 0,0 km/h (0 Bft) 100,00 %
04.07.2017 18:58 24,2 C 22,2 C 49 % 1017,7 hPa 0,0 l/m 0,5 km/h (0 Bft) N-NW 329 0 min 0,000 mm 0,5 UV-I 129 W/m 12,8 C 24,2 C 3,2 km/h (1 Bft) 91,49 %
04.07.2017 19:00 24,2 C 22,2 C 49 % 1017,8 hPa 0,0 l/m 1,3 km/h (1 Bft) N-NW 329 2 min 0,203 mm 0,5 UV-I 223 W/m 12,8 C 24,2 C 4,8 km/h (1 Bft) 97,44 %
04.07.2017 19:02 24,2 C 22,2 C 48 % 1017,7 hPa 0,0 l/m 1,2 km/h (1 Bft) N-NW 328 2 min 0,000 mm 0,5 UV-I 223 W/m 12,5 C 24,2 C 4,8 km/h (1 Bft) 98,00 %
04.07.2017 19:04 24,3 C 22,2 C 48 % 1017,7 hPa 0,0 l/m 2,5 km/h (1 Bft) W-NW 292 2 min 0,000 mm 0,5 UV-I 219 W/m 12,6 C 24,3 C 6,4 km/h (2 Bft) 100,00 %
04.07.2017 19:06 24,4 C 22,2 C 49 % 1017,7 hPa 0,0 l/m 3,6 km/h (1 Bft) NW 319 2 min 0,000 mm 0,3 UV-I 211 W/m 13,0 C 24,4 C 8,0 km/h (2 Bft) 94,64 %
04.07.2017 19:08 24,4 C 22,2 C 48 % 1017,7 hPa 0,0 l/m 2,5 km/h (1 Bft) N-NW 332 2 min 0,000 mm 0,0 UV-I 203 W/m 12,7 C 24,4 C 6,4 km/h (2 Bft) 92,00 %
04.07.2017 19:10 24,5 C 22,2 C 49 % 1017,7 hPa 0,0 l/m 0,3 km/h (0 Bft) N-NW 332 2 min 0,000 mm 0,0 UV-I 180 W/m 13,1 C 24,5 C 1,6 km/h (1 Bft) 100,00 %
04.07.2017 19:12 24,5 C 22,2 C 49 % 1017,7 hPa 0,0 l/m 0,5 km/h (0 Bft) N-NW 334 2 min 0,000 mm 0,0 UV-I 186 W/m 13,1 C 24,5 C 1,6 km/h (1 Bft) 100,00 %
04.07.2017 19:14 24,4 C 22,2 C 49 % 1017,7 hPa 0,0 l/m 0,3 km/h (0 Bft) N-NW 334 2 min 0,000 mm 0,0 UV-I 161 W/m 13,0 C 24,4 C 1,6 km/h (1 Bft) 94,74 %
04.07.2017 19:16 24,4 C 22,2 C 50 % 1017,7 hPa 0,0 l/m 0,6 km/h (0 Bft) N-NW 334 0 min 0,000 mm 0,0 UV-I 128 W/m 13,3 C 24,4 C 3,2 km/h (1 Bft) 100,00 %
04.07.2017 19:18 24,4 C 22,2 C 50 % 1017,8 hPa 0,0 l/m 0,1 km/h (0 Bft) N-NW 334 2 min 0,000 mm 0,0 UV-I 174 W/m 13,3 C 24,4 C 1,6 km/h (1 Bft) 94,00 %
04.07.2017 19:20 24,4 C 22,2 C 49 % 1017,8 hPa 0,0 l/m 1,0 km/h (0 Bft) N-NW 334 2 min 0,000 mm 0,0 UV-I 171 W/m 13,0 C 24,4 C 3,2 km/h (1 Bft) 97,37 %
04.07.2017 19:22 24,3 C 22,2 C 49 % 1017,7 hPa 0,0 l/m 1,2 km/h (1 Bft) N-NW 333 2 min 0,000 mm 0,0 UV-I 168 W/m 12,9 C 24,3 C 4,8 km/h (1 Bft) 100,00 %
04.07.2017 19:24 24,3 C 22,2 C 49 % 1017,8 hPa 0,0 l/m 1,3 km/h (1 Bft) N-NW 331 2 min 0,000 mm 0,0 UV-I 161 W/m 12,9 C 24,3 C 4,8 km/h (1 Bft) 100,00 %
04.07.2017 19:26 24,3 C 22,2 C 49 % 1017,8 hPa 0,0 l/m 0,9 km/h (0 Bft) N-NW 331 2 min 0,000 mm 0,0 UV-I 155 W/m 12,9 C 24,3 C 3,2 km/h (1 Bft) 97,87 %
04.07.2017 19:28 24,3 C 22,2 C 49 % 1017,7 hPa 0,0 l/m 0,1 km/h (0 Bft) N-NW 331 2 min 0,000 mm 0,0 UV-I 150 W/m 12,9 C 24,3 C 1,6 km/h (1 Bft) 98,00 %
04.07.2017 19:30 24,4 C 22,2 C 49 % 1017,7 hPa 0,0 l/m 0,2 km/h (0 Bft) N-NW 331 2 min 0,000 mm 0,0 UV-I 144 W/m 13,0 C 24,4 C 1,6 km/h (1 Bft) 100,00 %
04.07.2017 19:32 24,4 C 22,2 C 50 % 1017,8 hPa 0,0 l/m 0,5 km/h (0 Bft) N-NW 331 2 min 0,000 mm 0,0 UV-I 142 W/m 13,3 C 24,4 C 1,6 km/h (1 Bft) 94,00 %
04.07.2017 19:34 24,3 C 22,2 C 48 % 1017,7 hPa 0,0 l/m 0,0 km/h (0 Bft) N-NW 331 2 min 0,000 mm 0,0 UV-I 138 W/m 12,6 C 24,3 C 0,0 km/h (0 Bft) 98,11 %
04.07.2017 19:36 24,3 C 22,2 C 49 % 1017,7 hPa 0,0 l/m 1,0 km/h (0 Bft) N-NW 332 2 min 0,000 mm 0,0 UV-I 134 W/m 12,9 C 24,3 C 3,2 km/h (1 Bft) 94,44 %
04.07.2017 19:38 24,2 C 22,2 C 50 % 1017,8 hPa 0,0 l/m 0,7 km/h (0 Bft) N-NW 332 2 min 0,000 mm 0,0 UV-I 130 W/m 13,1 C 24,2 C 3,2 km/h (1 Bft) 100,00 %
04.07.2017 19:40 24,2 C 22,2 C 50 % 1017,8 hPa 0,0 l/m 0,8 km/h (0 Bft) N-NW 332 2 min 0,000 mm 0,0 UV-I 126 W/m 13,1 C 24,2 C 3,2 km/h (1 Bft) 98,00 %
04.07.2017 19:42 24,2 C 22,2 C 49 % 1017,8 hPa 0,0 l/m 0,0 km/h (0 Bft) N-NW 332 2 min 0,000 mm 0,0 UV-I 122 W/m 12,8 C 24,2 C 1,6 km/h (1 Bft) 97,14 %
04.07.2017 19:44 24,2 C 22,2 C 49 % 1017,8 hPa 0,0 l/m 0,4 km/h (0 Bft) N-NW 332 2 min 0,000 mm 0,0 UV-I 118 W/m 12,8 C 24,2 C 1,6 km/h (1 Bft) 96,43 %
04.07.2017 19:46 24,2 C 22,2 C 49 % 1017,8 hPa 0,0 l/m 0,9 km/h (0 Bft) N-NW 332 2 min 0,000 mm 0,0 UV-I 113 W/m 12,8 C 24,2 C 3,2 km/h (1 Bft) 96,00 %
04.07.2017 19:48 24,2 C 22,2 C 50 % 1017,8 hPa 0,0 l/m 0,0 km/h (0 Bft) N-NW 332 2 min 0,000 mm 0,0 UV-I 109 W/m 13,1 C 24,2 C 0,0 km/h (0 Bft) 97,73 %
04.07.2017 19:50 24,1 C 22,2 C 50 % 1017,8 hPa 0,0 l/m 0,3 km/h (0 Bft) N-NW 332 2 min 0,000 mm 0,0 UV-I 105 W/m 13,0 C 24,1 C 1,6 km/h (1 Bft) 97,87 %
04.07.2017 19:52 24,1 C 22,2 C 51 % 1017,8 hPa 0,0 l/m 0,4 km/h (0 Bft) N-NW 332 2 min 0,000 mm 0,0 UV-I 101 W/m 13,3 C 24,1 C 3,2 km/h (1 Bft) 96,00 %
04.07.2017 19:54 24,0 C 22,2 C 50 % 1017,8 hPa 0,0 l/m 2,0 km/h (1 Bft) N-NW 331 2 min 0,000 mm 0,0 UV-I 97 W/m 12,9 C 24,0 C 4,8 km/h (1 Bft) 100,00 %
04.07.2017 19:56 24,0 C 22,2 C 50 % 1017,8 hPa 0,0 l/m 1,9 km/h (1 Bft) N-NW 331 2 min 0,000 mm 0,0 UV-I 93 W/m 12,9 C 24,0 C 3,2 km/h (1 Bft) 97,87 %
04.07.2017 19:58 23,9 C 22,2 C 50 % 1017,8 hPa 0,0 l/m 0,6 km/h (0 Bft) N-NW 331 2 min 0,000 mm 0,0 UV-I 90 W/m 12,8 C 23,9 C 3,2 km/h (1 Bft) 98,11 %
04.07.2017 20:00 23,9 C 22,2 C 50 % 1017,8 hPa 0,0 l/m 0,8 km/h (0 Bft) N-NW 331 2 min 0,102 mm 0,0 UV-I 86 W/m 12,8 C 23,9 C 3,2 km/h (1 Bft) 94,74 %
04.07.2017 20:02 23,8 C 22,2 C 51 % 1017,8 hPa 0,0 l/m 1,4 km/h (1 Bft) N-NW 331 2 min 0,000 mm 0,0 UV-I 83 W/m 13,0 C 23,8 C 4,8 km/h (1 Bft) 98,00 %
04.07.2017 20:04 23,7 C 22,2 C 51 % 1017,9 hPa 0,0 l/m 1,1 km/h (1 Bft) NW 326 2 min 0,000 mm 0,0 UV-I 80 W/m 13,0 C 23,7 C 4,8 km/h (1 Bft) 98,11 %
04.07.2017 20:06 23,7 C 22,2 C 51 % 1017,8 hPa 0,0 l/m 1,9 km/h (1 Bft) NW 311 2 min 0,000 mm 0,0 UV-I 76 W/m 13,0 C 23,7 C 6,4 km/h (2 Bft) 97,56 %
04.07.2017 20:08 23,6 C 22,2 C 51 % 1017,8 hPa 0,0 l/m 1,6 km/h (1 Bft) NW 311 2 min 0,000 mm 0,0 UV-I 72 W/m 12,9 C 23,6 C 3,2 km/h (1 Bft) 98,00 %
04.07.2017 20:10 23,6 C 22,2 C 51 % 1017,9 hPa 0,0 l/m 0,3 km/h (0 Bft) NW 311 2 min 0,000 mm 0,0 UV-I 68 W/m 12,9 C 23,6 C 1,6 km/h (1 Bft) 96,00 %
04.07.2017 20:12 23,4 C 22,2 C 51 % 1017,8 hPa 0,0 l/m 0,5 km/h (0 Bft) NW 311 2 min 0,000 mm 0,0 UV-I 65 W/m 12,7 C 23,4 C 3,2 km/h (1 Bft) 94,74 %
04.07.2017 20:14 23,3 C 22,2 C 52 % 1017,9 hPa 0,0 l/m 0,9 km/h (0 Bft) NW 311 2 min 0,000 mm 0,0 UV-I 62 W/m 12,9 C 23,3 C 3,2 km/h (1 Bft) 96,23 %
04.07.2017 20:16 23,2 C 22,2 C 52 % 1017,9 hPa 0,0 l/m 0,2 km/h (0 Bft) NW 311 0 min 0,000 mm 0,0 UV-I 57 W/m 12,8 C 23,2 C 1,6 km/h (1 Bft) 94,00 %
04.07.2017 20:18 23,1 C 22,2 C 53 % 1017,9 hPa 0,0 l/m 0,4 km/h (0 Bft) NW 313 0 min 0,000 mm 0,0 UV-I 54 W/m 13,0 C 23,1 C 3,2 km/h (1 Bft) 97,87 %
04.07.2017 20:20 22,9 C 22,2 C 53 % 1017,9 hPa 0,0 l/m 1,2 km/h (1 Bft) NW 313 0 min 0,000 mm 0,0 UV-I 50 W/m 12,8 C 22,9 C 3,2 km/h (1 Bft) 94,87 %
04.07.2017 20:22 22,9 C 22,2 C 53 % 1017,9 hPa 0,0 l/m 0,9 km/h (0 Bft) NW 313 0 min 0,000 mm 0,0 UV-I 48 W/m 12,8 C 22,9 C 3,2 km/h (1 Bft) 92,00 %
04.07.2017 20:24 22,8 C 22,2 C 54 % 1017,9 hPa 0,0 l/m 0,3 km/h (0 Bft) NW 313 0 min 0,000 mm 0,0 UV-I 44 W/m 13,0 C 22,8 C 1,6 km/h (1 Bft) 98,11 %
04.07.2017 20:26 22,8 C 22,2 C 54 % 1017,9 hPa 0,0 l/m 0,0 km/h (0 Bft) NW 313 0 min 0,000 mm 0,0 UV-I 42 W/m 13,0 C 22,8 C 0,0 km/h (0 Bft) 94,74 %
04.07.2017 20:28 22,7 C 22,2 C 55 % 1017,9 hPa 0,0 l/m 0,0 km/h (0 Bft) NW 313 0 min 0,000 mm 0,0 UV-I 40 W/m 13,2 C 22,7 C 0,0 km/h (0 Bft) 94,34 %
04.07.2017 20:30 22,6 C 22,2 C 55 % 1017,9 hPa 0,0 l/m 0,0 km/h (0 Bft) NW 313 0 min 0,000 mm 0,0 UV-I 38 W/m 13,1 C 22,6 C 0,0 km/h (0 Bft) 94,74 %
04.07.2017 20:32 22,4 C 22,2 C 56 % 1017,9 hPa 0,0 l/m 0,0 km/h (0 Bft) NW 313 0 min 0,000 mm 0,0 UV-I 36 W/m 13,2 C 22,4 C 0,0 km/h (0 Bft) 94,00 %
04.07.2017 20:34 22,3 C 22,2 C 56 % 1018,0 hPa 0,0 l/m 0,0 km/h (0 Bft) NW 313 0 min 0,000 mm 0,0 UV-I 33 W/m 13,1 C 22,3 C 0,0 km/h (0 Bft) 90,57 %
04.07.2017 20:36 22,3 C 22,2 C 56 % 1018,0 hPa 0,0 l/m 0,0 km/h (0 Bft) NW 313 2 min 0,000 mm 0,0 UV-I 32 W/m 13,1 C 22,3 C 1,6 km/h (1 Bft) 94,74 %
04.07.2017 20:38 22,2 C 22,2 C 56 % 1018,0 hPa 0,0 l/m 0,0 km/h (0 Bft) NW 313 0 min 0,000 mm 0,0 UV-I 28 W/m 13,0 C 22,2 C 0,0 km/h (0 Bft) 98,00 %
04.07.2017 20:40 22,2 C 22,2 C 56 % 1018,0 hPa 0,0 l/m 0,1 km/h (0 Bft) NW 313 0 min 0,000 mm 0,0 UV-I 26 W/m 13,0 C 22,2 C 1,6 km/h (1 Bft) 97,87 %
04.07.2017 20:42 22,1 C 22,2 C 56 % 1018,0 hPa 0,0 l/m 1,1 km/h (1 Bft) NW 313 2 min 0,000 mm 0,0 UV-I 24 W/m 12,9 C 22,1 C 3,2 km/h (1 Bft) 94,34 %
04.07.2017 20:44 22,1 C 22,2 C 58 % 1018,0 hPa 0,0 l/m 1,2 km/h (1 Bft) NW 313 2 min 0,000 mm 0,0 UV-I 21 W/m 13,4 C 22,1 C 3,2 km/h (1 Bft) 95,12 %
04.07.2017 20:46 21,9 C 22,2 C 58 % 1018,0 hPa 0,0 l/m 0,6 km/h (0 Bft) NW 313 2 min 0,000 mm 0,0 UV-I 21 W/m 13,3 C 21,9 C 1,6 km/h (1 Bft) 96,23 %
04.07.2017 20:48 21,7 C 22,2 C 59 % 1018,0 hPa 0,0 l/m 0,0 km/h (0 Bft) NW 313 2 min 0,000 mm 0,0 UV-I 20 W/m 13,3 C 21,7 C 0,0 km/h (0 Bft) 94,74 %
04.07.2017 20:50 21,5 C 22,2 C 60 % 1018,0 hPa 0,0 l/m 0,0 km/h (0 Bft) NW 313 2 min 0,000 mm 0,0 UV-I 18 W/m 13,4 C 21,5 C 0,0 km/h (0 Bft) 95,74 %
04.07.2017 20:54 21,2 C 22,2 C 62 % 1018,0 hPa 0,0 l/m 0,0 km/h (0 Bft) NW 313 0 min 0,000 mm 0,0 UV-I 16 W/m 13,6 C 21,2 C 0,0 km/h (0 Bft) 94,68 %
04.07.2017 20:56 20,9 C 22,2 C 63 % 1018,0 hPa 0,0 l/m 0,0 km/h (0 Bft) NW 313 0 min 0,000 mm 0,0 UV-I 13 W/m 13,6 C 20,9 C 0,0 km/h (0 Bft) 95,24 %
04.07.2017 21:00 20,6 C 22,2 C 65 % 1018,1 hPa 0,0 l/m 0,0 km/h (0 Bft) NW 313 0 min 0,025 mm 0,0 UV-I 11 W/m 13,8 C 20,6 C 0,0 km/h (0 Bft) 93,40 %
04.07.2017 21:02 20,4 C 22,2 C 65 % 1018,1 hPa 0,0 l/m 0,0 km/h (0 Bft) NW 313 0 min 0,000 mm 0,0 UV-I 11 W/m 13,6 C 20,4 C 0,0 km/h (0 Bft) 97,56 %
04.07.2017 21:04 20,3 C 22,2 C 65 % 1018,1 hPa 0,0 l/m 0,0 km/h (0 Bft) NW 313 0 min 0,000 mm 0,0 UV-I 10 W/m 13,5 C 20,3 C 0,0 km/h (0 Bft) 96,00 %
04.07.2017 21:06 20,2 C 22,2 C 65 % 1018,1 hPa 0,0 l/m 0,0 km/h (0 Bft) NW 313 0 min 0,000 mm 0,0 UV-I 9 W/m 13,4 C 20,2 C 0,0 km/h (0 Bft) 96,00 %
04.07.2017 21:08 20,1 C 22,2 C 66 % 1018,1 hPa 0,0 l/m 1,4 km/h (1 Bft) NW 313 0 min 0,000 mm 0,0 UV-I 8 W/m 13,5 C 20,1 C 3,2 km/h (1 Bft) 94,29 %
04.07.2017 21:10 19,9 C 22,2 C 67 % 1018,2 hPa 0,0 l/m 2,8 km/h (1 Bft) NW 313 0 min 0,000 mm 0,0 UV-I 7 W/m 13,6 C 19,9 C 3,2 km/h (1 Bft) 93,88 %
04.07.2017 21:12 19,7 C 22,2 C 68 % 1018,2 hPa 0,0 l/m 3,3 km/h (1 Bft) NW 313 0 min 0,000 mm 0,0 UV-I 7 W/m 13,6 C 19,7 C 4,8 km/h (1 Bft) 96,00 %
04.07.2017 21:14 19,6 C 22,2 C 69 % 1018,2 hPa 0,0 l/m 4,1 km/h (1 Bft) NW 313 0 min 0,000 mm 0,0 UV-I 7 W/m 13,8 C 19,6 C 4,8 km/h (1 Bft) 95,74 %
04.07.2017 21:16 19,4 C 22,2 C 68 % 1018,2 hPa 0,0 l/m 3,8 km/h (1 Bft) NW 313 0 min 0,000 mm 0,0 UV-I 5 W/m 13,3 C 19,4 C 4,8 km/h (1 Bft) 96,00 %
04.07.2017 21:18 19,3 C 22,2 C 68 % 1018,2 hPa 0,0 l/m 3,7 km/h (1 Bft) NW 313 0 min 0,000 mm 0,0 UV-I 5 W/m 13,2 C 19,3 C 4,8 km/h (1 Bft) 97,44 %
04.07.2017 21:20 19,2 C 22,2 C 69 % 1018,3 hPa 0,0 l/m 3,3 km/h (1 Bft) NW 313 0 min 0,000 mm 0,0 UV-I 5 W/m 13,4 C 19,2 C 4,8 km/h (1 Bft) 96,15 %
04.07.2017 21:22 19,2 C 22,2 C 69 % 1018,3 hPa 0,0 l/m 3,0 km/h (1 Bft) NW 313 0 min 0,000 mm 0,0 UV-I 5 W/m 13,4 C 19,2 C 4,8 km/h (1 Bft) 96,23 %
04.07.2017 21:24 19,1 C 22,2 C 69 % 1018,3 hPa 0,0 l/m 2,4 km/h (1 Bft) NW 313 0 min 0,000 mm 0,0 UV-I 3 W/m 13,3 C 19,1 C 3,2 km/h (1 Bft) 97,44 %
04.07.2017 21:26 19,1 C 22,2 C 69 % 1018,3 hPa 0,0 l/m 1,8 km/h (1 Bft) NW 313 0 min 0,000 mm 0,0 UV-I 0 W/m 13,3 C 19,1 C 3,2 km/h (1 Bft) 93,62 %
04.07.2017 21:28 19,0 C 22,2 C 69 % 1018,3 hPa 0,0 l/m 2,5 km/h (1 Bft) NW 313 0 min 0,000 mm 0,0 UV-I 0 W/m 13,2 C 19,0 C 3,2 km/h (1 Bft) 97,87 %
04.07.2017 21:30 18,9 C 22,2 C 69 % 1018,3 hPa 0,0 l/m 2,5 km/h (1 Bft) NW 313 0 min 0,000 mm 0,0 UV-I 0 W/m 13,1 C 18,9 C 3,2 km/h (1 Bft) 95,12 %
04.07.2017 21:32 18,8 C 22,2 C 70 % 1018,4 hPa 0,0 l/m 2,2 km/h (1 Bft) NW 313 0 min 0,000 mm 0,0 UV-I 0 W/m 13,2 C 18,8 C 3,2 km/h (1 Bft) 94,34 %
04.07.2017 21:34 18,8 C 22,2 C 70 % 1018,5 hPa 0,0 l/m 1,3 km/h (1 Bft) NW 313 0 min 0,000 mm 0,0 UV-I 0 W/m 13,2 C 18,8 C 3,2 km/h (1 Bft) 96,23 %
04.07.2017 21:36 18,7 C 22,2 C 70 % 1018,4 hPa 0,0 l/m 1,8 km/h (1 Bft) NW 313 0 min 0,000 mm 0,0 UV-I 0 W/m 13,1 C 18,7 C 3,2 km/h (1 Bft) 94,74 %
04.07.2017 21:38 18,7 C 22,2 C 71 % 1018,4 hPa 0,0 l/m 0,9 km/h (0 Bft) NW 313 0 min 0,000 mm 0,0 UV-I 0 W/m 13,3 C 18,7 C 1,6 km/h (1 Bft) 96,00 %
04.07.2017 21:40 18,6 C 22,2 C 71 % 1018,5 hPa 0,0 l/m 0,4 km/h (0 Bft) NW 313 0 min 0,000 mm 0,0 UV-I 0 W/m 13,2 C 18,6 C 3,2 km/h (1 Bft) 96,00 %
04.07.2017 21:42 18,6 C 22,2 C 71 % 1018,5 hPa 0,0 l/m 2,1 km/h (1 Bft) NW 313 0 min 0,000 mm 0,0 UV-I 0 W/m 13,2 C 18,6 C 3,2 km/h (1 Bft) 92,68 %
04.07.2017 21:44 18,6 C 22,2 C 71 % 1018,5 hPa 0,0 l/m 2,1 km/h (1 Bft) NW 313 0 min 0,000 mm 0,0 UV-I 0 W/m 13,2 C 18,6 C 3,2 km/h (1 Bft) 94,34 %
04.07.2017 21:46 18,6 C 22,2 C 70 % 1018,5 hPa 0,0 l/m 2,1 km/h (1 Bft) NW 313 0 min 0,000 mm 0,0 UV-I 0 W/m 13,0 C 18,6 C 3,2 km/h (1 Bft) 98,00 %
04.07.2017 21:48 18,6 C 22,2 C 71 % 1018,5 hPa 0,0 l/m 0,2 km/h (0 Bft) NW 313 0 min 0,000 mm 0,0 UV-I 0 W/m 13,2 C 18,6 C 1,6 km/h (1 Bft) 97,14 %
04.07.2017 21:50 18,5 C 22,2 C 70 % 1018,5 hPa 0,0 l/m 0,0 km/h (0 Bft) NW 313 0 min 0,000 mm 0,0 UV-I 0 W/m 12,9 C 18,5 C 0,0 km/h (0 Bft) 100,00 %
04.07.2017 21:53 18,5 C 22,2 C 71 % 1018,6 hPa 0,0 l/m 0,0 km/h (0 Bft) NW 313 0 min 0,000 mm 0,0 UV-I 0 W/m 13,1 C 18,5 C 0,0 km/h (0 Bft) 97,40 %
04.07.2017 21:54 18,4 C 22,2 C 71 % 1018,6 hPa 0,0 l/m 0,0 km/h (0 Bft) NW 313 0 min 0,000 mm 0,0 UV-I 0 W/m 13,0 C 18,4 C 0,0 km/h (0 Bft) 100,00 %
04.07.2017 21:56 18,4 C 22,2 C 71 % 1018,6 hPa 0,0 l/m 0,0 km/h (0 Bft) NW 313 0 min 0,000 mm 0,0 UV-I 0 W/m 13,0 C 18,4 C 0,0 km/h (0 Bft) 95,74 %
04.07.2017 21:58 18,4 C 22,2 C 70 % 1018,6 hPa 0,0 l/m 0,0 km/h (0 Bft) NW 313 0 min 0,000 mm 0,0 UV-I 0 W/m 12,8 C 18,4 C 0,0 km/h (0 Bft) 97,87 %
04.07.2017 22:00 18,4 C 22,2 C 70 % 1018,6 hPa 0,0 l/m 0,0 km/h (0 Bft) NW 313 0 min 0,000 mm 0,0 UV-I 0 W/m 12,8 C 18,4 C 0,0 km/h (0 Bft) 97,22 %
04.07.2017 22:02 18,4 C 22,2 C 70 % 1018,6 hPa 0,0 l/m 0,0 km/h (0 Bft) NW 313 0 min 0,026 mm 0,0 UV-I 0 W/m 12,8 C 18,4 C 0,0 km/h (0 Bft) 98,11 %
04.07.2017 22:04 18,3 C 22,2 C 71 % 1018,6 hPa 0,0 l/m 0,0 km/h (0 Bft) NW 313 0 min 0,000 mm 0,0 UV-I 0 W/m 12,9 C 18,3 C 0,0 km/h (0 Bft) 100,00 %
04.07.2017 22:06 18,3 C 22,2 C 71 % 1018,6 hPa 0,0 l/m 0,0 km/h (0 Bft) NW 313 0 min 0,000 mm 0,0 UV-I 0 W/m 12,9 C 18,3 C 0,0 km/h (0 Bft) 98,00 %
04.07.2017 22:08 18,3 C 22,2 C 71 % 1018,6 hPa 0,0 l/m 0,0 km/h (0 Bft) NW 313 0 min 0,000 mm 0,0 UV-I 0 W/m 12,9 C 18,3 C 0,0 km/h (0 Bft) 95,74 %
04.07.2017 22:10 18,2 C 22,2 C 72 % 1018,6 hPa 0,0 l/m 0,0 km/h (0 Bft) NW 313 0 min 0,000 mm 0,0 UV-I 0 W/m 13,1 C 18,2 C 0,0 km/h (0 Bft) 92,68 %
04.07.2017 22:12 18,1 C 22,2 C 73 % 1018,6 hPa 0,0 l/m 0,0 km/h (0 Bft) NW 313 0 min 0,000 mm 0,0 UV-I 0 W/m 13,2 C 18,1 C 0,0 km/h (0 Bft) 97,87 %
04.07.2017 22:14 17,9 C 22,2 C 74 % 1018,6 hPa 0,0 l/m 0,0 km/h (0 Bft) NW 313 0 min 0,000 mm 0,0 UV-I 0 W/m 13,2 C 17,9 C 0,0 km/h (0 Bft) 94,00 %
04.07.2017 22:16 17,8 C 22,2 C 75 % 1018,6 hPa 0,0 l/m 0,0 km/h (0 Bft) NW 313 0 min 0,000 mm 0,0 UV-I 0 W/m 13,3 C 17,8 C 0,0 km/h (0 Bft) 94,00 %
04.07.2017 22:18 17,7 C 22,2 C 75 % 1018,6 hPa 0,0 l/m 0,0 km/h (0 Bft) NW 313 0 min 0,000 mm 0,0 UV-I 0 W/m 13,2 C 17,7 C 0,0 km/h (0 Bft) 97,87 %
04.07.2017 22:20 17,7 C 22,2 C 74 % 1018,6 hPa 0,0 l/m 0,0 km/h (0 Bft) NW 313 0 min 0,000 mm 0,0 UV-I 0 W/m 13,0 C 17,7 C 0,0 km/h (0 Bft) 97,37 %
04.07.2017 22:22 17,7 C 22,2 C 74 % 1018,6 hPa 0,0 l/m 0,0 km/h (0 Bft) NW 313 0 min 0,000 mm 0,0 UV-I 0 W/m 13,0 C 17,7 C 0,0 km/h (0 Bft) 93,62 %
04.07.2017 22:24 17,7 C 22,2 C 74 % 1018,6 hPa 0,0 l/m 0,0 km/h (0 Bft) NW 313 0 min 0,000 mm 0,0 UV-I 0 W/m 13,0 C 17,7 C 0,0 km/h (0 Bft) 97,87 %
04.07.2017 22:26 17,7 C 22,2 C 74 % 1018,6 hPa 0,0 l/m 1,2 km/h (1 Bft) NW 313 0 min 0,000 mm 0,0 UV-I 0 W/m 13,0 C 17,7 C 3,2 km/h (1 Bft) 91,43 %
04.07.2017 22:28 17,6 C 22,2 C 74 % 1018,6 hPa 0,0 l/m 0,9 km/h (0 Bft) NW 313 0 min 0,000 mm 0,0 UV-I 0 W/m 12,9 C 17,6 C 3,2 km/h (1 Bft) 98,53 %
04.07.2017 22:30 17,4 C 22,2 C 74 % 1018,6 hPa 0,0 l/m 0,9 km/h (0 Bft) NW 313 0 min 0,000 mm 0,0 UV-I 0 W/m 12,7 C 17,4 C 1,6 km/h (1 Bft) 93,62 %
04.07.2017 22:32 17,3 C 22,2 C 73 % 1018,6 hPa 0,0 l/m 3,8 km/h (1 Bft) NW 313 0 min 0,000 mm 0,0 UV-I 0 W/m 12,4 C 17,3 C 4,8 km/h (1 Bft) 97,37 %
04.07.2017 22:34 17,4 C 22,2 C 73 % 1018,6 hPa 0,0 l/m 3,5 km/h (1 Bft) NW 312 0 min 0,000 mm 0,0 UV-I 0 W/m 12,5 C 17,4 C 4,8 km/h (1 Bft) 92,00 %
04.07.2017 22:36 17,6 C 22,2 C 73 % 1018,6 hPa 0,0 l/m 1,2 km/h (1 Bft) NW 312 0 min 0,000 mm 0,0 UV-I 0 W/m 12,7 C 17,6 C 1,6 km/h (1 Bft) 98,00 %
04.07.2017 22:38 17,7 C 22,2 C 73 % 1018,6 hPa 0,0 l/m 0,8 km/h (0 Bft) NW 312 0 min 0,000 mm 0,0 UV-I 0 W/m 12,8 C 17,7 C 1,6 km/h (1 Bft) 94,87 %
04.07.2017 22:40 17,7 C 22,2 C 73 % 1018,6 hPa 0,0 l/m 0,2 km/h (0 Bft) NW 312 0 min 0,000 mm 0,0 UV-I 0 W/m 12,8 C 17,7 C 1,6 km/h (1 Bft) 96,36 %
04.07.2017 22:42 17,7 C 22,2 C 73 % 1018,6 hPa 0,0 l/m 0,3 km/h (0 Bft) NW 312 0 min 0,000 mm 0,0 UV-I 0 W/m 12,8 C 17,7 C 1,6 km/h (1 Bft) 92,31 %
04.07.2017 22:44 17,7 C 22,2 C 73 % 1018,6 hPa 0,0 l/m 0,2 km/h (0 Bft) NW 312 0 min 0,000 mm 0,0 UV-I 0 W/m 12,8 C 17,7 C 1,6 km/h (1 Bft) 97,87 %
04.07.2017 22:46 17,7 C 22,2 C 73 % 1018,5 hPa 0,0 l/m 0,4 km/h (0 Bft) NW 312 0 min 0,000 mm 0,0 UV-I 0 W/m 12,8 C 17,7 C 1,6 km/h (1 Bft) 94,00 %
04.07.2017 22:48 17,7 C 22,2 C 73 % 1018,6 hPa 0,0 l/m 0,1 km/h (0 Bft) NW 312 0 min 0,000 mm 0,0 UV-I 0 W/m 12,8 C 17,7 C 1,6 km/h (1 Bft) 98,11 %
04.07.2017 22:50 17,7 C 22,2 C 74 % 1018,5 hPa 0,0 l/m 0,3 km/h (0 Bft) NW 312 0 min 0,000 mm 0,0 UV-I 0 W/m 13,0 C 17,7 C 3,2 km/h (1 Bft) 93,62 %
04.07.2017 22:52 17,6 C 22,2 C 74 % 1018,6 hPa 0,0 l/m 1,3 km/h (1 Bft) NW 312 0 min 0,000 mm 0,0 UV-I 0 W/m 12,9 C 17,6 C 3,2 km/h (1 Bft) 97,37 %
04.07.2017 22:54 17,4 C 22,2 C 74 % 1018,6 hPa 0,0 l/m 1,6 km/h (1 Bft) NW 312 0 min 0,000 mm 0,0 UV-I 0 W/m 12,7 C 17,4 C 3,2 km/h (1 Bft) 96,23 %
04.07.2017 22:56 17,3 C 22,2 C 74 % 1018,5 hPa 0,0 l/m 2,6 km/h (1 Bft) NW 312 0 min 0,000 mm 0,0 UV-I 0 W/m 12,6 C 17,3 C 3,2 km/h (1 Bft) 97,56 %
04.07.2017 22:58 17,3 C 22,2 C 75 % 1018,5 hPa 0,0 l/m 2,0 km/h (1 Bft) NW 312 0 min 0,000 mm 0,0 UV-I 0 W/m 12,8 C 17,3 C 3,2 km/h (1 Bft) 96,43 %
04.07.2017 23:00 17,3 C 22,2 C 75 % 1018,5 hPa 0,0 l/m 1,6 km/h (1 Bft) NW 312 0 min 0,000 mm 0,0 UV-I 0 W/m 12,8 C 17,3 C 3,2 km/h (1 Bft) 95,74 %
04.07.2017 23:02 17,3 C 22,2 C 75 % 1018,5 hPa 0,0 l/m 1,3 km/h (1 Bft) NW 312 0 min 0,000 mm 0,0 UV-I 0 W/m 12,8 C 17,3 C 1,6 km/h (1 Bft) 100,00 %
04.07.2017 23:04 17,3 C 22,2 C 75 % 1018,5 hPa 0,0 l/m 0,3 km/h (0 Bft) NW 312 0 min 0,000 mm 0,0 UV-I 0 W/m 12,8 C 17,3 C 1,6 km/h (1 Bft) 97,87 %
04.07.2017 23:06 17,3 C 22,2 C 75 % 1018,5 hPa 0,0 l/m 0,2 km/h (0 Bft) NW 312 0 min 0,000 mm 0,0 UV-I 0 W/m 12,8 C 17,3 C 1,6 km/h (1 Bft) 97,87 %
04.07.2017 23:08 17,2 C 22,2 C 75 % 1018,5 hPa 0,0 l/m 0,7 km/h (0 Bft) NW 312 0 min 0,000 mm 0,0 UV-I 0 W/m 12,7 C 17,2 C 1,6 km/h (1 Bft) 97,37 %
04.07.2017 23:10 17,2 C 22,2 C 76 % 1018,5 hPa 0,0 l/m 0,1 km/h (0 Bft) NW 312 0 min 0,000 mm 0,0 UV-I 0 W/m 12,9 C 17,2 C 1,6 km/h (1 Bft) 98,00 %
04.07.2017 23:12 17,2 C 21,7 C 75 % 1018,5 hPa 0,0 l/m 0,4 km/h (0 Bft) NW 312 0 min 0,000 mm 0,0 UV-I 0 W/m 12,7 C 17,2 C 1,6 km/h (1 Bft) 100,00 %
04.07.2017 23:14 17,2 C 21,7 C 76 % 1018,5 hPa 0,0 l/m 0,7 km/h (0 Bft) NW 312 0 min 0,000 mm 0,0 UV-I 0 W/m 12,9 C 17,2 C 3,2 km/h (1 Bft) 95,83 %
04.07.2017 23:16 17,2 C 21,7 C 75 % 1018,5 hPa 0,0 l/m 0,7 km/h (0 Bft) NW 312 0 min 0,000 mm 0,0 UV-I 0 W/m 12,7 C 17,2 C 1,6 km/h (1 Bft) 100,00 %
04.07.2017 23:18 17,2 C 22,2 C 75 % 1018,5 hPa 0,0 l/m 1,4 km/h (1 Bft) NW 312 0 min 0,000 mm 0,0 UV-I 0 W/m 12,7 C 17,2 C 3,2 km/h (1 Bft) 97,87 %
04.07.2017 23:20 17,2 C 22,2 C 75 % 1018,6 hPa 0,0 l/m 2,1 km/h (1 Bft) NW 312 0 min 0,000 mm 0,0 UV-I 0 W/m 12,7 C 17,2 C 3,2 km/h (1 Bft) 98,00 %
04.07.2017 23:22 17,1 C 22,2 C 75 % 1018,6 hPa 0,0 l/m 1,5 km/h (1 Bft) NW 312 0 min 0,000 mm 0,0 UV-I 0 W/m 12,6 C 17,1 C 3,2 km/h (1 Bft) 96,00 %
04.07.2017 23:24 17,0 C 22,2 C 75 % 1018,5 hPa 0,0 l/m 0,7 km/h (0 Bft) NW 312 0 min 0,000 mm 0,0 UV-I 0 W/m 12,5 C 17,0 C 1,6 km/h (1 Bft) 94,74 %
04.07.2017 23:26 17,0 C 22,2 C 76 % 1018,5 hPa 0,0 l/m 0,2 km/h (0 Bft) NW 312 0 min 0,000 mm 0,0 UV-I 0 W/m 12,7 C 17,0 C 1,6 km/h (1 Bft) 100,00 %
04.07.2017 23:28 16,9 C 21,7 C 75 % 1018,5 hPa 0,0 l/m 0,8 km/h (0 Bft) NW 312 0 min 0,000 mm 0,0 UV-I 0 W/m 12,4 C 16,9 C 3,2 km/h (1 Bft) 97,56 %
04.07.2017 23:30 17,0 C 21,7 C 75 % 1018,5 hPa 0,0 l/m 2,0 km/h (1 Bft) NW 312 0 min 0,000 mm 0,0 UV-I 0 W/m 12,5 C 17,0 C 3,2 km/h (1 Bft) 100,00 %
04.07.2017 23:32 16,9 C 21,7 C 76 % 1018,5 hPa 0,0 l/m 1,4 km/h (1 Bft) NW 312 0 min 0,000 mm 0,0 UV-I 0 W/m 12,6 C 16,9 C 3,2 km/h (1 Bft) 98,11 %
04.07.2017 23:34 16,8 C 21,7 C 76 % 1018,5 hPa 0,0 l/m 1,3 km/h (1 Bft) NW 312 0 min 0,000 mm 0,0 UV-I 0 W/m 12,5 C 16,8 C 3,2 km/h (1 Bft) 95,74 %
04.07.2017 23:36 16,8 C 21,7 C 77 % 1018,5 hPa 0,0 l/m 0,5 km/h (0 Bft) NW 312 0 min 0,000 mm 0,0 UV-I 0 W/m 12,7 C 16,8 C 1,6 km/h (1 Bft) 96,00 %
04.07.2017 23:38 16,8 C 21,7 C 77 % 1018,5 hPa 0,0 l/m 1,9 km/h (1 Bft) NW 312 0 min 0,000 mm 0,0 UV-I 0 W/m 12,7 C 16,8 C 3,2 km/h (1 Bft) 97,56 %
04.07.2017 23:40 16,7 C 21,7 C 77 % 1018,5 hPa 0,0 l/m 2,5 km/h (1 Bft) NW 312 0 min 0,000 mm 0,0 UV-I 0 W/m 12,6 C 16,7 C 3,2 km/h (1 Bft) 100,00 %
04.07.2017 23:42 16,7 C 21,7 C 77 % 1018,5 hPa 0,0 l/m 3,4 km/h (1 Bft) NW 312 0 min 0,000 mm 0,0 UV-I 0 W/m 12,6 C 16,7 C 4,8 km/h (1 Bft) 97,87 %
04.07.2017 23:44 16,6 C 21,7 C 78 % 1018,5 hPa 0,0 l/m 3,0 km/h (1 Bft) NW 312 0 min 0,000 mm 0,0 UV-I 0 W/m 12,7 C 16,6 C 4,8 km/h (1 Bft) 100,00 %
04.07.2017 23:46 16,6 C 21,7 C 78 % 1018,5 hPa 0,0 l/m 2,3 km/h (1 Bft) NW 312 0 min 0,000 mm 0,0 UV-I 0 W/m 12,7 C 16,6 C 3,2 km/h (1 Bft) 93,62 %
04.07.2017 23:48 16,6 C 21,7 C 78 % 1018,6 hPa 0,0 l/m 1,9 km/h (1 Bft) NW 312 0 min 0,000 mm 0,0 UV-I 0 W/m 12,7 C 16,6 C 3,2 km/h (1 Bft) 94,00 %
04.07.2017 23:50 16,6 C 21,7 C 78 % 1018,5 hPa 0,0 l/m 1,8 km/h (1 Bft) NW 312 0 min 0,000 mm 0,0 UV-I 0 W/m 12,7 C 16,6 C 3,2 km/h (1 Bft) 97,37 %
04.07.2017 23:52 16,6 C 21,7 C 78 % 1018,5 hPa 0,0 l/m 2,5 km/h (1 Bft) NW 312 0 min 0,000 mm 0,0 UV-I 0 W/m 12,7 C 16,6 C 3,2 km/h (1 Bft) 94,55 %
04.07.2017 23:54 16,6 C 21,7 C 79 % 1018,5 hPa 0,0 l/m 2,7 km/h (1 Bft) NW 312 0 min 0,000 mm 0,0 UV-I 0 W/m 12,9 C 16,6 C 3,2 km/h (1 Bft) 98,00 %
04.07.2017 23:56 16,4 C 21,7 C 79 % 1018,6 hPa 0,0 l/m 3,1 km/h (1 Bft) NW 312 0 min 0,000 mm 0,0 UV-I 0 W/m 12,7 C 16,4 C 3,2 km/h (1 Bft) 97,62 %
04.07.2017 23:58 16,3 C 21,7 C 79 % 1018,5 hPa 0,0 l/m 2,0 km/h (1 Bft) NW 312 0 min 0,000 mm 0,0 UV-I 0 W/m 12,6 C 16,3 C 3,2 km/h (1 Bft) 97,73 %
_ Min-Zeit 02:22 05:30 18:18 18:34 - 18:54 - - - - - - 01:54 05:16 18:54 17:02
Minimum _ 13,5 C 20,6 C 43 % 1017,7 hPa - 0,0 km/h (0 Bft) - - - - - - 10,9 C 12,1 C 0,0 km/h (0 Bft) 85,71 %
_ Max-Zeit 17:48 16:30 04:52 09:04 00:00 12:04 - - 15:04 12:00 12:10 12:00 11:24 17:46 12:04 00:00
Maximum _ 25,7 C 22,2 C 88 % 1020,1 hPa 0,0 l/m 17,5 km/h
W-SW (3 Bft)
- - 4 min 0,508 mm 7,0 UV-I 1139 W/m 14,3 C 25,6 C 25,7 km/h
W-SW (4 Bft)
100,00 %
Durchschnitt _ 19,6 C 21,5 C 66 % 1019,1 hPa #0,0 l/m 5,3 km/h (1 Bft) S-SW - #8:40 h #3,861 mm 2,4 UV-I 324 W/m 12,7 C 19,3 C 9,1 km/h (2 Bft) 96,53 %